[[[{"header":{"parameterUnit":"kt","parameterCategory":2,"dx":1,"dy":1,"la1":29.285339999999998,"la2":30.599998999999997,"lo1":-89.70041500000002,"lo2":-87.6738589999976,"nx":112,"ny":82,"refTime":"2022-10-30T12:00:00:Z","depth":0,"parameterNumber":1,"parameterNumberName":"U-component_of_WINDS"},"data":[5.0077,5.0874,0.0,4.7514,4.6261,0.0,4.1648,0.0,3.8991,0.0,0.0,0.0,4.0813,3.9579,3.8193,3.7643,3.6808,3.5934,0.0,3.5004,0.0,0.0,0.0,0.0,0.0,0.0,0.0,0.0,0.0,0.0,0.0,0.0,5.3778,5.3778,5.4576,5.4993,5.4993,5.4993,5.4993,5.4993,5.4993,5.4993,5.4993,5.4993,5.4993,5.4993,5.4993,5.4993,5.4993,5.4993,5.4993,5.4993,5.4993,5.4993,5.4993,5.4993,5.4993,5.4993,5.4993,5.4993,5.4993,5.4993,5.4993,5.4993,5.4993,5.4993,5.4993,5.4993,5.4993,5.4993,5.4993,5.4993,5.4993,5.4993,5.4993,5.4993,5.4993,5.4993,5.4993,5.4993,5.4993,5.4993,5.4993,5.4993,5.4993,5.4993,5.4557,5.4405,5.4936,5.4538,5.4405,5.4936,5.4519,5.4215,5.4215,5.3456,5.3076,5.338,5.3399,5.3266,5.2962,5.2848,5.2563,5.2089,5.2032,5.1766,5.1292,5.0741,5.0475,5.0475,5.0172,5.0039,0.0,0.0,4.8273,4.461,0.0,0.0,0.0,0.0,0.0,0.0,3.6903,3.7491,3.7491,3.7491,3.7225,3.6371,3.6466,3.6371,0.0,0.0,0.0,0.0,0.0,0.0,0.0,0.0,0.0,0.0,0.0,0.0,0.0,5.3456,5.4196,5.4196,5.4708,5.4993,5.4993,5.4993,5.4993,5.4993,5.4993,5.4993,5.4993,5.4993,5.4993,5.4993,5.4993,5.4993,5.4993,5.4993,5.4993,5.4993,5.4993,5.4993,5.4993,5.4993,5.4993,5.4993,5.4993,5.4993,5.4993,5.4993,5.4993,5.4993,5.4993,5.4993,5.4993,5.4993,5.4993,5.4993,5.4993,5.4993,5.4993,5.4993,5.4993,5.4993,5.4993,5.4993,5.4993,5.4993,5.4993,5.4993,5.4993,5.4538,5.4215,5.4386,5.3968,5.374,5.4101,5.4177,5.4253,5.4405,5.3949,5.3437,5.2981,5.2677,5.2506,5.2506,5.2506,5.2393,5.2108,5.2108,5.1956,5.1671,5.114,5.0874,5.0874,5.0304,5.0039,5.0039,5.0039,5.0039,4.5711,0.0,4.3907,3.9807,0.0,0.0,0.0,0.0,3.6063,3.6082,3.6865,3.7415,3.7453,3.7453,3.7187,3.6215,3.6979,0.0,0.0,0.0,0.0,0.0,0.0,0.0,0.0,0.0,0.0,0.0,0.0,0.0,5.3513,5.4557,5.4993,5.4993,5.4993,5.4993,5.4993,5.4993,5.4993,5.4993,5.4993,5.4993,5.4993,5.4993,5.4993,5.4993,5.4993,5.4993,5.4993,5.4993,5.4993,5.4993,5.4993,5.4993,5.4993,5.4993,5.4993,5.4993,5.4993,5.4993,5.4993,5.4993,5.4993,5.4993,5.4993,5.4993,5.4993,5.4993,5.4993,5.4993,5.4993,5.4993,5.4993,5.4993,5.4993,5.4993,5.4993,5.4993,5.4993,5.4993,5.4974,5.4955,5.4955,5.3588,5.2658,5.319,5.3228,5.3,5.2506,5.3873,5.4481,5.338,5.3247,5.2715,5.1405,5.1994,5.2431,5.2431,5.2431,5.207,5.1292,5.1254,5.0874,5.0039,5.0039,5.0039,5.0039,5.0039,5.0039,5.0039,5.0039,5.0039,4.161,4.2256,4.2787,4.1022,4.0566,4.0073,3.8136,3.6485,3.5517,3.6105,0.0,0.0,0.0,0.0,3.6504,3.6257,0.0,3.8782,0.0,0.0,0.0,0.0,0.0,0.0,0.0,0.0,0.0,0.0,0.0,0.0,5.3607,5.4557,5.4993,5.4993,5.4993,5.4993,5.4993,5.4993,5.4993,5.4993,5.4993,5.4993,5.4993,5.4993,5.4993,5.4993,5.4993,5.4993,5.4993,5.4993,5.4993,5.4993,5.4993,5.4993,5.4993,5.4993,5.4993,5.4993,5.4993,5.4993,5.4993,5.4993,5.4993,5.4993,5.4993,5.4993,5.4993,5.4993,5.4993,5.4993,5.4993,5.4993,5.4993,5.4993,5.4993,5.4993,5.4993,5.4993,5.4993,5.4993,5.4519,5.4101,5.4101,5.2867,5.207,5.2639,5.169,5.0874,5.0722,5.1804,5.2601,5.2715,5.2203,5.169,5.133,5.0931,5.0703,5.0703,5.0703,5.0608,5.038,5.038,5.0266,5.0039,5.0039,5.0039,5.0039,5.0039,5.0039,5.0039,5.0039,5.0039,3.9826,4.0433,4.1174,3.9978,3.9959,3.9674,3.7624,3.6314,3.5555,0.0,0.0,0.0,0.0,0.0,0.0,0.0,3.8421,0.0,0.0,0.0,0.0,0.0,0.0,0.0,0.0,0.0,0.0,0.0,0.0,5.1652,5.4158,5.4746,5.4993,5.4993,5.4993,5.4993,5.4993,5.4993,5.4993,5.4993,5.4993,5.4993,5.4993,5.4993,5.4993,5.4993,5.4993,5.4993,5.4993,5.4993,5.4993,5.4993,5.4993,5.4993,5.4993,5.4993,5.4993,5.4993,5.4993,5.4993,5.4993,5.4993,5.4993,5.4993,5.4993,5.4993,5.4993,5.4993,5.4993,5.4993,5.4993,5.4993,5.4993,5.4993,5.4993,5.4993,5.4993,5.4727,5.4481,5.4481,5.3816,5.3019,5.2317,5.1519,5.1083,5.1424,5.0646,5.0039,5.0039,5.0589,5.1102,5.1424,5.1045,5.076,5.076,5.0323,5.0039,5.0039,5.0039,5.0039,5.0039,5.0039,5.0039,5.0039,5.0039,5.0039,5.0039,5.0039,5.0039,5.0039,5.0039,5.0039,3.9275,3.8972,3.9218,3.7833,3.7966,3.7928,3.601,0.0,3.6561,3.6219,0.0,0.0,0.0,0.0,0.0,0.0,0.0,0.0,0.0,0.0,0.0,0.0,0.0,0.0,0.0,0.0,5.1823,5.4765,5.2962,5.2677,5.4879,5.4993,5.4993,5.4993,5.4993,5.4993,5.4993,5.4993,5.4993,5.4993,5.4993,5.4993,5.4993,5.4993,5.4993,5.4993,5.4993,5.4993,5.4993,5.4993,5.4993,5.4993,5.4993,5.4993,5.4993,5.4993,5.4993,5.4993,5.4993,5.4993,5.4993,5.4993,5.4993,5.4993,5.4993,5.4993,5.4993,5.4993,5.4993,5.4974,5.4879,5.486,5.4822,5.4746,5.4708,5.4708,5.4708,5.4139,5.3645,5.3645,5.2867,5.1766,5.0285,5.0039,5.0039,5.0039,5.0039,5.0039,5.0039,5.0039,5.0039,5.0039,5.0039,5.0039,5.0039,5.0039,5.0039,5.0039,5.0039,5.0039,5.0039,5.0039,5.0039,5.0039,5.0039,5.0039,5.0039,5.0039,5.0039,5.0039,5.0039,5.0039,3.7054,3.6827,3.7035,3.7396,3.7092,3.7111,0.0,0.0,0.0,0.0,0.0,0.0,0.0,0.0,0.0,0.0,0.0,0.0,0.0,0.0,0.0,0.0,0.0,0.0,0.0,5.4044,5.431,5.4955,5.4557,5.45,5.4974,5.4993,5.4993,5.4993,5.4993,5.4993,5.4993,5.4993,5.4993,5.4993,5.4993,5.4993,5.4993,5.4993,5.4993,5.4993,5.4993,5.4993,5.4993,5.4993,5.4993,5.4993,5.4993,5.4993,5.4993,5.4993,5.4993,5.4993,5.4993,5.4993,5.4993,5.4993,5.4993,5.4993,5.4993,5.4993,5.4993,5.4993,5.4993,5.4841,5.4196,5.4006,5.3835,5.3152,5.2981,5.2981,5.2981,5.2867,5.2753,5.2753,5.1538,5.0399,5.0077,5.0039,5.0039,5.0039,5.0039,5.0039,5.0039,5.0039,5.0039,5.0039,5.0039,5.0039,5.0039,5.0039,5.0039,5.0039,5.0039,5.0039,5.0039,5.0039,5.0039,5.0039,5.0039,5.0039,5.0039,5.0039,5.0039,5.0039,5.0039,5.0039,3.6561,3.6542,3.6865,3.6865,3.6865,0.0,0.0,3.8099,3.9048,4.2446,4.2787,4.2996,4.4686,0.0,0.0,0.0,0.0,0.0,0.0,0.0,0.0,0.0,0.0,0.0,5.4993,5.4993,5.4993,5.4993,5.4993,5.4993,5.4993,5.4993,5.4993,5.4993,5.4993,5.4993,5.4993,5.4993,5.4993,5.4993,5.4993,5.4993,5.4993,5.4993,5.4993,5.4993,5.4993,5.4993,5.4993,5.4993,5.4993,5.4993,5.4993,5.4993,5.4993,5.4993,5.4993,5.4993,5.4993,5.4993,5.4936,5.4519,5.4386,5.4386,5.4386,5.4082,5.3759,5.3759,5.3759,5.3645,5.3247,5.3152,5.3038,5.262,5.2506,5.2506,5.2506,5.2184,5.1785,5.1349,5.0589,5.0039,5.0039,5.0039,5.0039,5.0039,5.0039,5.0039,5.0039,5.0039,5.0039,5.0039,5.0039,5.0039,5.0039,5.0039,5.0039,5.0039,5.0039,5.0039,5.0039,5.0039,5.0039,5.0039,5.0039,5.0039,5.0039,5.0039,5.0039,5.0039,5.0039,5.0039,3.6352,3.6485,3.6884,3.6352,3.6618,0.0,3.7396,3.7719,3.8953,0.0,4.3053,4.3679,0.0,0.0,0.0,0.0,0.0,0.0,0.0,0.0,0.0,0.0,0.0,0.0,5.4993,5.4993,5.4993,5.4993,5.4993,5.4993,5.4993,5.4993,5.4993,5.4993,5.4993,5.4993,5.4993,5.4993,5.4993,5.4993,5.4993,5.4993,5.4993,5.4993,5.4993,5.4993,5.4993,5.4993,5.4993,5.4993,5.4993,5.4993,5.4993,5.4898,5.4765,5.4765,5.4652,5.4519,5.4519,5.4519,5.4405,5.374,5.3532,5.3532,5.3532,5.3057,5.2506,5.2506,5.2506,5.2468,5.2317,5.2279,5.2241,5.207,5.2032,5.2032,5.2032,5.15,5.0855,5.0172,5.0039,5.0039,5.0039,5.0039,5.0039,5.0039,5.0039,5.0039,5.0039,5.0039,5.0039,5.0039,5.0039,5.0039,5.0039,5.0039,5.0039,5.0039,5.0039,5.0039,5.0039,5.0039,5.0039,5.0039,5.0039,5.0039,5.0039,5.0039,5.0039,5.0039,5.0039,5.0039,3.5194,3.5213,3.5441,3.5931,3.5745,0.0,4.0851,4.2958,4.5179,0.0,5.1861,5.3209,0.0,0.0,0.0,0.0,0.0,0.0,0.0,0.0,0.0,0.0,0.0,0.0,5.4993,5.4993,5.4993,5.4993,5.4993,5.4993,5.4993,5.4993,5.4993,5.4993,5.4993,5.4993,5.4993,5.4993,5.4993,5.4993,5.4993,5.4993,5.4993,5.4993,5.4993,5.4993,5.4993,5.4993,5.4993,5.4993,5.4993,5.4993,5.4993,5.4557,5.3911,5.3911,5.3437,5.2791,5.2791,5.2791,5.2772,5.2677,5.2658,5.2658,5.2658,5.2582,5.2506,5.2506,5.2506,5.2355,5.1614,5.1424,5.1235,5.0475,5.0304,5.0304,5.0304,5.0229,5.0134,5.0058,5.0039,5.0039,5.0039,5.0039,5.0039,5.0039,5.0039,5.0039,5.0039,5.0039,5.0039,5.0039,5.0039,5.0039,5.0039,5.0039,5.0039,5.0039,5.0039,5.0039,5.0039,5.0039,5.0039,5.0039,5.0039,5.0039,5.0039,5.0039,5.0039,5.0039,5.0039,5.0039,3.5004,3.5004,3.508,3.5422,0.0,0.0,3.9712,4.199,4.461,0.0,4.9282,5.0364,0.0,0.0,0.0,0.0,0.0,0.0,0.0,0.0,0.0,0.0,0.0,0.0,0.0,5.3551,5.3551,5.3551,5.3114,5.3038,5.3513,5.3551,5.3551,5.3551,5.3551,5.3551,5.3551,5.4025,5.4291,5.4291,5.4291,5.4538,5.4974,5.45,5.4538,5.4993,5.4993,5.4993,5.4917,5.3949,5.3551,5.3551,5.3551,5.3342,5.3038,5.3038,5.281,5.2506,5.2506,5.2506,5.2431,5.1956,5.1804,5.1804,5.1804,5.1462,5.1178,5.1671,5.1443,5.0988,5.0646,5.0551,5.0475,5.0115,5.0039,5.0039,5.0039,5.0039,5.0039,5.0039,5.0039,5.0039,5.0039,5.0039,5.0039,5.0039,5.0039,5.0039,5.0039,5.0039,5.0039,5.0039,5.0039,5.0039,5.0039,5.0039,5.0039,5.0039,5.0039,5.0039,5.0039,5.0039,5.0039,5.0039,5.0039,5.0039,5.0039,5.0039,5.0039,5.0039,5.0039,5.0039,3.5004,0.0,0.0,0.0,0.0,0.0,3.7862,3.9909,4.2264,4.5162,4.6217,4.7605,0.0,0.0,0.0,0.0,0.0,0.0,0.0,0.0,0.0,0.0,0.0,0.0,0.0,0.0,0.0,0.0,5.1975,5.1899,5.2468,5.2506,5.2506,5.2506,5.2506,5.2506,5.2506,5.3133,5.3437,5.3437,5.3437,5.374,5.4291,5.3702,5.3759,5.431,5.431,5.431,5.4215,5.3019,5.2506,5.2506,5.2506,5.2374,5.2184,5.2184,5.2032,5.1823,5.1823,5.1823,5.1728,5.114,5.095,5.095,5.095,5.0513,5.0153,5.0779,5.0494,5.0039,5.0039,5.0039,5.0039,5.0039,5.0039,5.0039,5.0039,5.0039,5.0039,5.0039,5.0039,5.0039,5.0039,5.0039,5.0039,5.0039,5.0039,5.0039,5.0039,5.0039,5.0039,5.0039,5.0039,5.0039,5.0039,5.0039,5.0039,5.0039,5.0039,5.0039,5.0039,5.0039,5.0039,5.0039,5.0039,5.0039,5.0039,5.0039,5.0039,5.0039,5.0039,5.0039,0.0,0.0,0.0,3.5366,3.5173,3.5509,3.6422,3.7818,3.9246,4.107,4.5258,4.8499,4.8772,0.0,0.0,0.0,0.0,0.0,0.0,0.0,0.0,0.0,0.0,0.0,0.0,0.0,0.0,0.0,5.2487,5.2487,5.2506,5.2506,5.2506,5.2506,5.2506,5.2506,5.2506,5.2525,5.2544,5.2544,5.2544,5.2563,5.2582,5.2563,5.2563,5.2582,5.2582,5.2582,5.2582,5.2525,5.2506,5.2506,5.2506,5.2032,5.133,5.133,5.0817,5.0096,5.0096,5.0096,5.0096,5.0077,5.0058,5.0058,5.0058,5.0058,5.0039,5.0058,5.0058,5.0039,5.0039,5.0039,5.0039,5.0039,5.0039,5.0039,5.0039,5.0039,5.0039,5.0039,5.0039,5.0039,5.0039,5.0039,5.0039,5.0039,5.0039,5.0039,5.0039,5.0039,5.0039,5.0039,5.0039,5.0039,5.0039,5.0039,5.0039,5.0039,5.0039,5.0039,5.0039,5.0039,5.0039,5.0039,5.0039,5.0039,5.0039,5.0039,5.0039,5.0039,5.0039,5.0039,3.2788,3.299,3.3101,3.4463,3.5078,3.5564,3.659,3.8608,4.0449,4.0931,4.2111,4.344,4.4831,4.5353,0.0,0.0,0.0,0.0,0.0,0.0,0.0,0.0,0.0,0.0,0.0,0.0,0.0,0.0,0.0,0.0,4.5574,4.6721,4.7669,4.821,4.9854,5.0874,5.0874,5.1424,5.1709,5.1709,5.1709,5.1994,5.2487,5.1956,5.2013,5.2506,5.2506,5.188,5.0874,5.0874,5.0874,5.0874,5.0874,5.0703,5.0456,5.0456,5.0266,5.0039,5.0039,5.0039,5.0039,5.0039,5.0039,5.0039,5.0039,5.0039,5.0039,5.0039,5.0039,5.0039,5.0039,5.0039,5.0039,5.0039,5.0039,5.0039,5.0039,5.0039,5.0039,5.0039,5.0039,5.0039,5.0039,5.0039,5.0039,5.0039,5.0039,5.0039,5.0039,5.0039,5.0039,5.0039,5.0039,5.0039,5.0039,5.0039,5.0039,5.0039,5.0039,5.0039,5.0039,5.0039,5.0039,5.0039,5.0039,5.0039,5.0039,5.0039,5.0039,5.0039,5.0039,5.0039,3.1576,3.2003,3.223,3.3835,3.4659,3.5009,3.5454,3.6889,3.8036,3.8096,3.8947,3.9862,4.1261,4.0212,3.9325,0.0,0.0,0.0,0.0,0.0,0.0,0.0,0.0,0.0,0.0,0.0,0.0,0.0,0.0,4.1605,4.2054,4.3205,4.4152,4.4645,4.6246,4.7243,4.7243,4.8749,4.943,4.943,5.0432,5.1102,5.1614,5.1083,5.1121,5.1614,5.1614,5.1007,5.0039,5.0039,5.0039,5.0039,5.0039,5.0039,5.0039,5.0039,5.0039,5.0039,5.0039,5.0039,5.0039,5.0039,5.0039,5.0039,5.0039,5.0039,5.0039,5.0039,5.0039,5.0039,5.0039,5.0039,5.0039,5.0039,5.0039,5.0039,5.0039,5.0039,5.0039,5.0039,5.0039,5.0039,5.0039,5.0039,5.0039,5.0039,5.0039,5.0039,5.0039,5.0039,5.0039,5.0039,5.0039,5.0039,5.0039,5.0039,5.0039,5.0039,5.0039,5.0039,5.0039,5.0039,5.0039,5.0039,5.0039,5.0039,5.0039,5.0039,5.0039,5.0039,5.0039,5.0039,3.1416,3.2528,3.3099,3.3524,3.3763,3.368,3.2861,3.254,3.2683,3.3268,3.5776,3.7966,3.7966,3.5972,3.4177,3.4177,0.0,0.0,0.0,0.0,0.0,0.0,0.0,0.0,0.0,0.0,0.0,0.0,4.1692,4.1692,4.1692,4.1889,4.1889,4.1889,4.2086,4.2283,4.2283,4.4645,4.586,4.5842,4.8426,4.9622,4.9622,4.9641,4.9831,4.9831,4.9622,4.9641,5.002,4.9831,4.9831,5.0039,5.0039,5.0039,5.0039,5.0039,5.0039,5.0039,5.0039,5.0039,5.0039,5.0039,5.0039,5.0039,5.0039,5.0039,5.0039,5.0039,5.0039,5.0039,5.0039,5.0039,5.0039,5.0039,5.0039,5.0039,5.0039,5.0039,5.0039,5.0039,5.0039,5.0039,5.0039,5.0039,5.0039,5.0039,5.0039,5.0039,5.0039,5.0039,5.0039,5.0039,5.0039,5.0039,5.0039,5.0039,5.0039,5.0039,5.0039,5.0039,5.0039,5.0039,5.0039,5.0039,5.0039,5.0039,5.0039,5.0039,5.0039,5.0039,5.0039,5.0039,2.9049,3.0349,3.132,3.3581,3.3426,3.3093,3.3676,3.3423,3.3281,3.3852,3.4671,3.5172,3.5172,3.4573,3.4177,3.4177,3.4177,0.0,0.0,0.0,0.0,0.0,0.0,0.0,0.0,0.0,0.0,0.0,3.6162,3.6162,3.6162,3.8153,3.914,3.914,4.1099,4.2283,4.2283,4.2872,4.3264,4.3264,4.3867,4.4256,4.4256,4.6246,4.7033,4.7033,4.5051,4.6438,4.9831,4.7835,4.8236,5.0039,5.0039,5.0039,5.0039,5.0039,5.0039,5.0039,5.0039,5.0039,5.0039,5.0039,5.0039,5.0039,5.0039,5.0039,5.0039,5.0039,5.0039,5.0039,5.0039,5.0039,5.0039,5.0039,5.0039,5.0039,5.0039,5.0039,5.0039,5.0039,5.0039,5.0039,5.0039,5.0039,5.0039,5.0039,5.0039,5.0039,5.0039,5.0039,5.0039,5.0039,5.0039,5.0039,5.0039,5.0039,5.0039,5.0039,5.0039,5.0039,5.0039,5.0039,5.0039,5.0039,5.0039,5.0039,5.0039,5.0039,5.0039,5.0039,5.0039,5.0039,2.7424,2.9099,3.0865,3.3216,3.3138,3.2774,3.3917,3.3748,3.3501,3.406,3.4177,3.4177,3.4177,3.4177,3.4177,3.4177,3.4177,3.4177,0.0,0.0,0.0,0.0,0.0,0.0,0.0,0.0,0.0,0.0,3.4177,3.4177,3.4177,3.5566,3.6365,3.6365,3.7937,3.874,3.874,3.874,3.9325,4.0321,4.1692,4.2283,4.2283,4.3671,4.4256,4.4256,4.2872,4.5051,4.9831,4.7051,4.7626,5.0039,5.0039,5.0039,5.0039,5.0039,5.0039,5.0039,5.0039,5.0039,5.0039,5.0039,5.0039,5.0039,5.0039,5.0039,5.0039,5.0039,5.0039,5.0039,5.0039,5.0039,5.0039,5.0039,5.0039,5.0039,5.0039,5.0039,5.0039,5.0039,5.0039,5.0039,5.0039,5.0039,5.0039,5.0039,5.0039,5.0039,5.0039,5.0039,5.0039,5.0039,5.0039,5.0039,5.0039,5.0039,5.0039,5.0039,5.0039,5.0039,5.0039,5.0039,5.0039,5.0039,5.0039,5.0039,5.0039,5.0039,5.0039,5.0039,5.0039,5.0039,2.6892,2.8827,3.1177,3.2904,3.3021,3.2943,3.3865,3.3748,3.3592,3.4073,3.4177,3.4177,3.4177,3.4177,3.4177,3.4177,3.4177,3.4177,3.4177,3.4177,0.0,0.0,0.0,0.0,0.0,0.0,0.0,0.0,3.4177,3.4177,3.4177,3.4177,3.4177,3.4177,3.4177,3.4177,3.4177,3.4177,3.5376,3.7563,3.9908,4.1083,4.1083,4.1083,4.1297,4.1692,4.1297,4.4062,4.8635,4.6053,4.6649,4.9034,4.9243,4.9433,4.9433,4.9831,5.0039,5.0039,5.0039,5.0039,5.0039,5.0039,5.0039,5.0039,5.0039,5.0039,5.0039,5.0039,5.0039,5.0039,5.0039,5.0039,5.0039,5.0039,5.0039,5.0039,5.0039,5.0039,5.0039,5.0039,5.0039,5.0039,5.0039,5.0039,5.0039,5.0039,5.0039,5.0039,5.0039,5.0039,5.0039,5.0039,5.0039,5.0039,5.0039,5.0039,5.0039,5.0039,5.0039,5.0039,5.0039,5.0039,5.0039,5.0039,5.0039,5.0039,5.0039,5.0039,5.0039,5.0039,5.0039,5.0039,2.8827,3.0034,3.1177,3.2904,3.3618,3.3813,3.354,3.3761,3.406,3.4151,3.4177,3.4177,3.4177,3.4177,3.4177,3.4177,3.4177,3.4177,3.4177,3.4177,3.4177,3.4177,0.0,0.0,0.0,0.0,0.0,0.0,0.0,3.4177,3.4177,3.4177,3.4177,3.4177,3.4177,3.4177,3.4177,3.4177,3.4381,3.4981,3.5376,3.5566,3.5566,3.5566,3.6756,3.874,3.6567,3.854,4.3264,4.052,4.1099,4.3671,4.5842,4.6841,4.7033,4.9224,5.0039,5.0039,5.0039,5.0039,5.0039,5.0039,5.0039,5.0039,5.0039,5.0039,5.0039,5.0039,5.0039,5.0039,5.0039,5.0039,5.0039,5.0039,5.0039,5.0039,5.0039,5.0039,5.0039,5.0039,5.0039,5.0039,5.0039,5.0039,5.0039,5.0039,5.0039,5.0039,5.0039,5.0039,5.0039,5.0039,5.0039,5.0039,5.0039,5.0039,5.0039,5.0039,5.0039,5.0039,5.0039,5.0039,5.0039,5.0039,5.0039,5.0039,5.0039,5.0039,5.0039,5.0039,5.0039,5.0039,2.8307,2.945,3.0528,3.1359,3.2216,3.3008,3.3631,3.3761,3.3735,3.3735,3.3735,3.3826,3.4125,3.4177,3.4177,3.4177,3.4177,3.4177,3.4177,3.4177,3.4177,3.4177,3.4177,3.4177,3.4177,0.0,0.0,0.0,0.0,3.4177,3.4177,3.4177,3.4177,3.4177,3.4177,3.4177,3.4177,3.4177,3.4177,3.4177,3.4177,3.4177,3.4177,3.4177,3.5566,3.7952,3.5376,3.7146,4.1889,3.9125,3.9724,4.2283,4.3476,4.4062,4.4256,4.5456,4.586,4.586,4.586,4.6841,4.7835,4.7835,4.8844,5.0039,5.0039,5.0039,5.0039,5.0039,5.0039,5.0039,5.0039,5.0039,5.0039,5.0039,5.0039,5.0039,5.0039,5.0039,5.0039,5.0039,5.0039,5.0039,5.0039,5.0039,5.0039,5.0039,5.0039,5.0039,5.0039,5.0039,5.0039,5.0039,5.0039,5.0039,5.0039,5.0039,5.0039,5.0039,5.0039,5.0039,5.0039,5.0039,5.0039,5.0039,5.0039,5.0039,5.0039,5.0039,5.0039,5.0039,5.0039,5.0039,2.7489,2.8632,2.9866,3.0359,3.0865,3.1683,3.3268,3.3294,3.3073,3.3436,3.332,3.3358,3.4047,3.3982,3.3891,3.4138,3.4177,3.4177,3.4177,3.4177,3.4177,3.4177,3.4177,3.4177,3.4177,3.4177,3.4177,3.4177,3.4177,3.4177,3.4177,3.4177,3.4177,3.4177,3.4177,3.4177,3.4177,3.4177,3.4177,3.4177,3.4177,3.4177,3.4177,3.4177,3.5376,3.716,3.5172,3.6553,4.0306,3.8153,3.854,4.0504,4.1099,4.1297,4.1297,4.1889,4.2283,4.2283,4.2283,4.3476,4.5245,4.5245,4.6631,4.8426,4.9034,4.9034,4.9243,4.9831,5.0039,5.0039,5.0039,5.0039,5.0039,5.0039,5.0039,5.0039,5.0039,5.0039,5.0039,5.0039,5.0039,5.0039,5.0039,5.0039,5.0039,5.0039,5.0039,5.0039,5.0039,5.0039,5.0039,5.0039,5.0039,5.0039,5.0039,5.0039,5.0039,5.0039,5.0039,5.0039,5.0039,5.0039,5.0039,5.0039,5.0039,5.0039,5.0039,5.0039,5.0039,5.0039,5.0039,4.9925,2.7866,2.8645,2.9658,3.1722,3.1151,3.0398,3.1593,3.1826,3.2229,3.3787,3.3281,3.2891,3.3982,3.332,3.2969,3.4008,3.4177,3.4177,3.4177,3.4177,3.4177,3.4177,3.4177,3.4177,3.4177,3.4177,3.4177,3.4177,3.4177,3.4177,3.4177,3.4177,3.4177,3.4177,3.4177,3.4177,3.4177,3.4177,3.4177,3.4177,3.4177,3.4177,3.4177,3.4177,3.4381,3.4573,3.4381,3.4573,3.4968,3.4777,3.4777,3.5172,3.7549,3.8554,3.8755,4.1297,4.2283,4.2283,4.2283,4.2283,4.2479,4.2479,4.2676,4.3264,4.5649,4.6438,4.6841,4.9243,5.0039,5.0039,5.0039,5.0039,5.0039,5.0039,5.0039,5.0039,5.0039,5.0039,5.0039,5.0039,5.0039,5.0039,5.0039,5.0039,5.0039,5.0039,5.0039,5.0039,5.0039,5.0039,5.0039,5.0039,5.0039,5.0039,5.0039,5.0039,5.0039,5.0039,5.0039,5.0039,5.0039,5.0039,5.0039,5.0039,5.0039,5.0039,5.0039,5.0039,5.0039,5.0039,5.0039,4.9602,2.4996,2.6048,2.7243,2.8152,2.8905,2.9541,2.9995,3.0099,3.0489,3.1839,3.2034,3.1891,3.1657,3.2372,3.2917,3.2683,3.3501,3.4177,3.4177,3.4177,3.4177,3.4177,3.4177,3.4177,3.4177,3.4177,3.4177,3.4177,3.4177,3.4177,3.4177,3.4177,3.4177,3.4177,3.4177,3.4177,3.4177,3.4177,3.4177,3.4177,3.4177,3.4177,3.4177,3.4177,3.4177,3.4177,3.4177,3.4177,3.4177,3.4177,3.4177,3.4381,3.5376,3.5769,3.5972,3.6944,3.7347,3.7347,3.7347,3.8339,3.9923,4.1692,4.3264,4.5051,4.7644,4.8445,4.8635,4.9641,5.0039,5.0039,5.0039,5.0039,5.0039,5.0039,5.0039,5.0039,5.0039,5.0039,5.0039,5.0039,5.0039,5.0039,5.0039,5.0039,5.0039,5.0039,5.0039,5.0039,5.0039,5.0039,5.0039,5.0039,5.0039,5.0039,5.0039,5.0039,5.0039,5.0039,5.0039,4.9564,4.852,4.8482,4.8482,4.8482,4.8482,4.8482,4.8482,4.8482,4.8482,4.8482,4.8482,4.8292,2.2815,2.384,2.5035,2.5554,2.6749,2.8074,2.9099,2.8814,2.843,2.8373,2.9244,2.9976,3.0112,3.1216,3.193,3.145,3.2527,3.3488,3.3644,3.367,3.3735,3.3904,3.393,3.3995,3.4164,3.4177,3.4177,3.4177,3.4177,3.4177,3.4177,3.4177,3.4177,3.4177,3.4177,3.4177,3.4177,3.4177,3.4177,3.4177,3.4177,3.4177,3.4177,3.4177,3.4177,3.4177,3.4177,3.4177,3.4177,3.4177,3.4177,3.4177,3.4177,3.4177,3.4177,3.4177,3.4177,3.4177,3.4177,3.5376,3.7362,3.9125,4.1099,4.3084,4.5666,4.6456,4.6649,4.7435,4.8236,4.8844,4.8844,4.8844,4.9034,4.9831,5.0039,5.0039,5.0039,5.0039,5.0039,5.0039,4.983,4.9735,4.9982,4.9602,4.9355,4.9602,4.9431,4.926,4.926,4.926,4.926,4.926,4.926,4.926,4.926,4.926,4.926,4.926,4.926,4.8729,4.7514,4.7457,4.7457,4.7457,4.7457,4.7457,4.7457,4.7457,4.7457,4.7457,4.7457,4.7324,2.2217,2.2646,2.3516,2.5243,2.5243,2.5864,2.9138,2.8164,2.5841,2.3703,2.4722,2.7124,3.0093,2.9866,2.9489,3.0593,3.1268,3.1852,3.2411,3.2488,3.2696,3.3281,3.3346,3.3566,3.4125,3.4177,3.4177,3.4177,3.4177,3.4177,3.4177,3.4177,3.4177,3.4177,3.4177,3.4177,3.4177,3.4177,3.4177,3.4177,3.4177,3.4177,3.4177,3.4177,3.4177,3.4177,3.4177,3.4177,3.4177,3.4177,3.4177,3.4177,3.4177,3.4177,3.4177,3.4177,3.4177,3.4177,3.4177,3.4177,3.4177,3.4177,3.4381,3.4777,3.7362,3.8153,3.874,4.1494,4.4062,4.6053,4.6053,4.6053,4.6841,4.9433,5.0039,5.0039,5.0039,5.0039,5.0039,5.0039,4.9336,4.9014,4.9887,4.8615,4.778,4.8615,4.8027,4.7476,4.7476,4.7476,4.7476,4.7476,4.7476,4.7476,4.7476,4.7476,4.7476,4.7476,4.7476,4.7476,4.7457,4.7457,4.7457,4.7457,4.7457,4.7457,4.7457,4.7457,4.7457,4.7457,4.7457,4.7039,2.1062,2.2049,2.2965,2.2614,2.3411,2.4058,2.3728,2.2905,2.2565,2.2818,2.3723,2.4796,2.5142,2.6644,2.7607,2.7584,2.8807,3.0277,3.2255,3.2476,3.254,3.2722,3.2748,3.2813,3.2995,3.3008,3.3008,3.3008,3.3008,3.3008,3.3008,3.3008,3.319,3.3592,3.3216,3.3203,3.3592,3.3605,3.3605,3.3592,3.3203,3.3008,3.3008,3.3008,3.3008,3.3034,3.3436,3.3605,3.3631,3.4021,3.4177,3.4177,3.4177,3.4177,3.4177,3.4177,3.4177,3.4177,3.4177,3.4177,3.4573,3.6365,3.6958,3.7362,4.0122,4.0901,4.1099,4.1889,4.2676,4.2953,4.073,4.1219,4.2755,4.5237,4.5829,4.6198,4.7908,4.8273,4.8273,4.8273,4.8045,4.7951,4.8216,4.7818,4.7552,4.7818,4.7628,4.7457,4.7457,4.7457,4.7457,4.7457,4.7457,4.7457,4.7457,4.7457,4.7457,4.7457,4.6394,4.5768,4.5768,4.5768,4.5768,4.5768,4.5768,4.5768,4.5768,4.5768,4.5768,4.5768,4.5768,4.5616,2.0617,2.1291,2.1613,2.0918,2.0938,2.0772,1.9123,1.9613,2.0261,2.0214,2.1951,2.2988,2.1085,2.3723,2.5838,2.4272,2.6204,2.8079,2.8866,2.8901,2.8972,2.9367,2.9391,2.9852,3.1047,3.1072,3.1475,3.2476,3.2476,3.2476,3.2476,3.2476,3.2644,3.2995,3.2657,3.2644,3.3008,3.3008,3.2904,3.2696,3.254,3.2476,3.2476,3.2476,3.2476,3.2488,3.2852,3.3008,3.3034,3.3384,3.3527,3.3527,3.3527,3.3527,3.3527,3.3527,3.3527,3.3566,3.3787,3.3865,3.4284,3.6093,3.6567,3.6958,3.8725,3.9125,3.9125,3.9125,3.9741,3.9799,3.7589,3.7883,3.9422,4.2047,4.2618,4.2987,4.447,4.5416,4.6159,4.6159,4.6655,4.7096,4.74,4.6944,4.6622,4.6944,4.6736,4.6527,4.6527,4.6527,4.6527,4.6527,4.6527,4.6527,4.6527,4.6527,4.6527,4.6527,4.5559,4.497,4.497,4.497,4.497,4.497,4.497,4.497,4.497,4.497,4.497,4.497,4.497,4.497,2.0437,2.0275,1.9488,1.9748,1.8191,1.6455,1.5877,1.7485,1.8434,1.6167,1.9364,2.1394,1.7923,2.0981,2.3524,2.1081,2.3399,2.4854,2.326,0.0,2.3428,2.4067,2.4117,2.5257,2.8256,2.8532,2.935,3.1556,3.1751,3.1751,3.1751,3.1751,3.1776,3.1814,3.197,3.2165,3.2203,3.2216,3.2099,3.1313,3.1881,3.2126,3.2294,3.2333,3.2359,3.2359,3.2359,3.2372,3.2411,3.2411,3.2437,3.2476,3.2476,3.2476,3.2476,3.2476,3.2476,3.2553,3.3086,3.3268,3.3358,3.3878,3.406,3.406,3.406,3.406,3.406,3.406,3.5411,3.6752,3.6145,3.5957,3.6674,3.928,4.0026,4.001,4.0196,4.1895,4.3581,4.3581,4.4652,4.6024,4.6778,4.5628,4.5065,4.6033,4.5483,4.497,4.497,4.497,4.497,4.497,4.497,4.497,4.497,4.497,4.497,4.497,4.497,4.497,4.497,4.497,4.497,4.497,4.497,4.497,4.497,4.497,4.497,4.497,4.497,4.4951,1.6796,1.7208,1.7166,1.6277,1.6081,1.5758,1.4538,1.409,1.3965,1.3755,1.5191,1.6458,1.623,1.7038,1.7958,1.8657,1.9587,2.0828,2.2378,2.3713,2.4731,2.5242,2.5105,2.5464,2.6507,2.5399,2.4671,2.5243,2.5243,2.5243,2.5243,2.5243,2.5604,2.5954,2.7537,2.8464,2.8866,3.0845,3.0354,2.7324,2.8027,2.9032,3.0541,3.0969,3.1164,3.1164,3.1164,3.1424,3.1826,3.1826,3.2086,3.2476,3.2476,3.2476,3.2476,3.2476,3.2476,3.2488,3.2631,3.267,3.2696,3.2826,3.2865,3.2865,3.2865,3.2865,3.2865,3.2865,3.2838,3.2939,3.2792,3.2417,3.2626,3.5177,3.5893,3.6257,3.8036,3.8934,3.9291,3.9291,3.9677,4.0511,4.2442,4.2523,4.288,4.4894,4.5103,4.497,4.497,4.497,4.497,4.497,4.497,4.497,4.497,4.497,4.497,4.497,4.497,4.497,4.497,4.497,4.497,4.497,4.497,4.497,4.497,4.497,4.497,4.497,4.497,4.4648,1.5611,1.5887,1.5571,1.3426,1.3246,1.3662,1.3583,1.3061,1.279,1.3286,1.3986,1.4346,1.4451,1.4392,1.5048,1.7102,1.7696,1.7981,1.8332,1.9532,2.0216,2.0055,0.0,2.127,2.2359,2.1801,2.1903,2.303,2.3219,2.3219,2.3219,2.3219,2.3327,2.3563,2.4665,2.5399,2.5656,2.7009,2.7187,2.6042,2.5428,2.6345,2.8093,2.7512,2.7187,2.7373,0.0,2.9231,2.969,3.0841,3.1411,3.1696,3.1696,3.1696,3.1696,3.1696,3.1696,3.1722,3.1995,3.2086,3.2125,3.2385,3.2476,3.2476,3.2476,3.2476,3.2476,3.2476,3.1878,3.1242,3.1242,3.1008,3.113,3.2401,3.2767,3.3118,3.4332,3.5414,3.6311,3.6311,3.7188,3.859,4.1042,4.139,4.229,4.4611,4.497,4.497,4.497,4.497,4.497,4.497,4.497,4.497,4.497,4.497,4.497,4.497,4.2343,4.0897,4.0897,4.0897,4.0897,4.0897,4.1757,4.1906,4.0897,4.1924,4.2259,4.2259,4.2259,4.2556,1.4882,1.5027,1.3945,1.1541,1.0917,1.1268,1.2765,1.2855,1.2743,1.3277,1.3492,1.3435,1.2525,1.2559,1.3374,1.5547,1.6204,1.5805,1.3869,1.4356,1.4768,1.4044,1.4903,1.6324,1.7889,1.8518,1.9649,2.1708,2.1906,2.1924,2.199,2.199,2.1828,2.1893,2.2273,2.2405,2.1906,2.1962,2.2895,2.4831,2.3348,2.3544,2.5497,2.3762,2.3219,2.3219,0.0,2.6897,2.7152,2.954,3.0697,3.0774,3.0774,3.0774,3.0774,3.0774,3.0774,3.0839,3.1333,3.1502,3.158,3.206,3.2216,3.2216,3.2216,3.2216,3.2216,3.2216,3.1515,3.0774,3.0774,3.0774,3.0774,3.0774,3.071,3.0645,3.0645,3.2182,3.356,3.356,3.5129,3.7385,3.964,3.9987,4.0867,4.3181,4.3539,4.3708,4.4065,4.4178,4.4442,4.463,4.4555,4.4384,4.4272,4.3894,4.3743,4.3743,3.9013,3.6244,3.6131,3.6131,3.6131,3.6131,3.7942,3.7942,3.6131,3.8272,3.9275,3.9275,3.9619,4.074,1.1295,1.1492,1.1392,1.102,1.0885,1.1059,1.1431,1.1193,1.1028,1.1254,1.1363,1.1289,1.1246,1.1353,1.1687,1.2108,1.2592,1.3011,1.308,1.4688,1.5929,1.6393,1.6316,0.0,1.7583,1.6458,1.5629,1.599,1.599,1.6103,1.6351,1.6365,1.6486,1.6762,1.886,1.8769,1.5997,1.6245,1.7311,1.9328,1.9856,2.1107,2.2918,2.3013,2.3219,2.32,2.5222,0.0,2.7129,2.9127,3.0333,3.0774,3.0774,3.0774,3.0774,3.0774,3.0774,3.0787,3.0865,3.0904,3.0917,3.1008,3.1034,3.1034,3.1034,3.1034,3.1034,3.1034,3.0904,3.0774,3.0774,3.0774,3.0774,3.0774,3.0411,3.006,3.006,3.0026,3.0035,3.0035,3.0197,3.1217,3.3549,3.4062,3.4729,3.7128,3.7463,3.8132,3.9974,4.0876,4.1997,4.376,4.2786,4.1832,4.136,3.9423,3.8395,3.8395,3.7511,3.6763,3.6147,3.6131,3.6131,3.6131,3.6465,3.6465,3.6131,3.8272,3.9275,3.9275,4.1156,4.1804,1.0288,1.012,1.0146,1.0377,1.0411,1.0456,1.0753,1.0608,1.0509,1.0805,1.0865,1.0911,1.1062,1.1188,1.1326,1.1491,1.1887,1.2315,1.273,1.3993,1.4662,1.4606,1.5186,1.5459,0.0,1.4939,1.4774,1.4774,1.4774,1.4827,1.4952,1.4959,1.5025,1.5157,1.6273,1.6139,1.4774,1.4899,1.5891,1.7876,1.7144,1.8372,2.1188,1.9318,1.9221,2.0314,2.1377,2.2397,2.2982,2.5146,2.7094,2.8676,2.8676,2.9442,3.0774,3.0774,3.0774,3.0774,3.0774,3.0774,3.0774,3.0774,3.0774,3.0774,3.0774,3.0346,2.9853,2.9853,2.9853,2.9853,2.9853,2.9853,2.9853,2.9853,2.9658,2.9476,2.9476,2.9268,2.9086,2.9086,2.9086,2.993,3.2243,3.2584,3.342,3.5796,3.6455,3.7053,3.805,3.8688,3.9504,4.0384,3.9984,3.9336,3.9175,3.5496,3.3081,3.2922,3.2893,3.2603,3.1949,3.1752,3.1775,3.1426,3.2551,3.2536,3.1426,3.3503,3.4463,3.4625,3.5611,3.6421,0.9955,0.0,1.0017,1.0118,1.0133,1.0245,0.0,1.0605,1.0619,1.0713,1.0819,1.0911,1.1049,1.1135,1.1234,1.1392,1.1722,1.2032,1.2243,1.2908,1.3172,1.2645,1.3634,1.4154,1.3614,1.4174,1.4563,1.4563,1.4563,1.4596,1.4662,1.4669,1.4702,1.4768,1.4636,1.4563,1.4563,1.4629,1.5435,1.693,1.5519,1.6265,1.8789,1.5952,1.5631,1.6991,1.794,1.8828,1.9335,2.1632,2.3896,2.5874,2.5874,2.6991,2.8679,2.8679,2.9057,2.9435,2.9435,2.9812,3.0372,3.0372,3.0372,3.0372,3.0372,2.9775,2.9086,2.9086,2.9086,2.9086,2.9086,2.9086,2.9086,2.9086,2.8983,2.8892,2.8892,2.8775,2.8684,2.8684,2.8684,2.9344,3.1162,3.1486,3.1978,3.3821,3.4604,3.4992,3.5645,3.6274,3.6923,3.7449,3.7271,3.6947,3.6951,3.2625,2.9749,2.9307,2.9151,2.8892,2.845,2.8294,2.8022,2.7593,2.8883,2.88,2.7385,2.9586,3.0511,3.0525,3.0992,3.211,0.0,1.0468,1.1067,1.0899,1.087,1.0805,1.0825,1.0621,0.0,1.0579,1.0674,1.0786,1.0528,1.0706,1.0812,1.0555,1.0977,1.1346,1.1366,1.1662,1.2051,1.2526,1.2915,1.333,1.3805,1.3904,1.3943,1.3943,1.3943,1.4062,1.4346,1.4359,1.4484,1.4761,1.4234,1.3943,1.3943,1.422,1.4523,1.4687,1.481,1.4783,1.483,1.481,1.4803,0.0,1.7297,1.853,1.876,2.1246,2.2508,2.2717,2.2717,2.2717,2.2895,2.2895,2.4342,2.5973,2.5973,2.7409,2.9203,2.9203,2.9203,2.9203,2.9203,2.9151,2.9086,2.9086,2.9086,2.9086,2.9086,2.9086,2.9086,2.9086,2.8671,2.8294,2.8294,2.7879,2.7502,2.7502,2.7502,2.7502,2.7819,2.7819,2.7819,2.7983,2.8023,2.9034,3.1347,3.2476,3.3967,3.6321,3.541,3.4473,3.3827,3.1498,2.9917,2.9866,2.9372,2.906,2.9034,2.8515,2.8203,2.8164,2.7275,2.7001,2.7385,2.9586,3.0511,3.0511,3.2428,3.3537,0.8117,0.7466,0.6944,0.7112,0.7869,0.876,0.8918,0.97,1.0552,1.0552,1.0509,1.0555,1.0572,1.0515,1.0667,1.0911,1.1135,1.1039,1.0213,1.0208,0.9981,0.9143,1.0539,1.1599,1.1785,1.287,1.3693,1.3864,1.3719,1.3746,1.4036,1.4049,1.4102,1.4214,1.3996,1.3878,1.3878,1.3996,1.4049,1.4049,1.4161,1.4751,1.548,1.4604,1.4847,1.5942,1.5713,1.5705,0.0,1.6955,1.8358,1.9789,1.9845,2.0831,2.2447,2.2447,2.2803,2.3524,2.3524,2.4234,2.4952,2.4952,2.5857,2.6936,2.6936,2.559,2.4206,2.5574,2.6961,2.8035,2.8035,2.8035,2.8035,2.8035,2.7853,2.7697,2.7697,2.7528,2.7385,2.7385,2.7385,2.7385,2.7385,2.7385,2.7385,2.7385,2.7684,2.8436,2.9843,3.0613,3.1552,3.285,3.2433,3.1824,3.0844,2.9913,2.9398,2.9398,2.9203,2.8931,2.8567,2.8346,2.8061,2.771,2.6918,2.6632,2.684,2.7255,2.7524,2.7524,2.8291,2.8602,0.6386,0.5669,0.4912,0.52,0.599,0.6901,0.7048,0.8018,0.8792,0.8893,0.8793,0.885,0.885,0.885,0.8984,0.9257,0.9467,0.9245,0.8303,0.822,0.7883,0.6753,0.8065,0.905,0.9179,1.0541,1.1447,1.1607,1.1474,1.1797,1.2656,1.284,1.2454,1.1684,1.1579,1.1618,1.1618,1.2318,1.284,1.284,1.3534,1.4405,1.5441,1.4256,1.4508,1.5766,1.4345,1.3943,1.4062,1.4148,1.5169,1.6656,1.68,1.8165,1.9568,1.9568,2.0096,2.0808,2.0808,2.1159,2.185,2.185,2.2733,2.4147,2.4147,2.2478,2.0961,2.2456,2.4483,2.6525,2.7208,2.7385,2.7385,2.7385,2.7385,2.7333,2.7152,2.7113,2.7061,2.6879,2.684,2.684,2.684,2.6996,2.7113,2.7113,2.7593,2.8164,2.8736,2.9151,2.9606,3.0177,3.0242,2.993,2.9151,2.8918,2.8892,2.9073,2.8918,2.8723,2.8502,2.832,2.8048,2.7658,2.6905,2.6356,2.6356,2.5957,2.5684,2.5684,2.5684,2.5684,0.517,0.5614,0.592,0.5917,0.5817,0.5643,0.563,0.5423,0.5204,0.5298,0.523,0.5202,0.5202,0.5202,0.5251,0.5262,0.5423,0.548,0.5204,0.5504,0.5562,0.5558,0.584,0.6033,0.6321,0.6767,0.6932,0.6932,0.6932,0.0,1.0412,1.0412,0.9453,0.7076,0.7037,0.6936,0.6936,0.9367,1.0412,1.0416,1.2662,1.3563,1.3315,1.3582,1.3563,1.3322,1.3759,1.3719,0.0,1.3765,1.3713,1.3495,1.3772,1.3878,1.3878,1.3878,1.5242,1.7281,1.7281,1.8621,2.0457,2.0457,2.0625,2.0625,2.0625,2.0457,2.0625,2.0625,2.2122,2.4295,2.669,2.7372,2.7359,2.7359,2.7372,2.7204,2.6632,2.6515,2.6347,2.5788,2.5684,2.5684,2.5684,2.6152,2.6356,2.6369,2.7022,2.7593,2.8152,2.8229,2.845,2.9021,2.9073,2.9073,2.9073,2.8554,2.8463,2.9034,2.8528,2.8463,2.9047,2.8515,2.8216,2.8216,2.71,2.6356,2.6356,2.5944,2.5671,2.5671,2.5658,2.5658,0.3326,0.259,0.1818,0.1777,0.2646,0.3475,0.3436,0.4411,0.5215,0.5273,0.527,0.5301,0.5301,0.5263,0.5218,0.5261,0.5357,0.4825,0.3461,0.3338,0.2949,0.1848,0.1712,0.2511,0.413,0.4506,0.5188,0.6812,0.6809,0.702,0.7965,0.6475,0.596,0.691,0.6951,0.6972,0.6972,0.7638,0.8032,0.7986,0.8663,0.9041,0.8939,1.0726,1.1419,1.153,1.3153,1.3607,0.0,1.368,1.3594,1.3205,1.3693,1.3878,1.3878,1.3878,1.4221,1.4899,1.4899,1.5235,1.5732,1.5732,1.6925,1.7943,1.6251,1.5732,1.6073,1.7782,1.8584,1.9515,2.1811,2.2233,2.247,2.3763,2.408,2.4517,2.5646,2.5931,2.5879,2.571,2.5684,2.5801,2.6204,2.6412,2.6658,2.7074,2.7282,2.7593,2.8152,2.8229,2.845,2.9021,2.8372,2.7892,2.7892,2.7736,2.771,2.7879,2.7723,2.771,2.7879,2.7723,2.7632,2.7632,2.6905,2.6356,2.6356,2.5529,2.5035,2.5035,2.462,2.4438,0.1456,0.0735,0.0,0.0,0.0721,0.1571,0.149,0.2377,0.3104,0.3142,0.3216,0.31,0.3212,0.3118,0.3151,0.3221,0.3113,0.2759,0.1726,0.1592,0.1176,0.0153,0.0,0.0619,0.2047,0.2034,0.2663,0.415,0.3994,0.3986,0.4128,0.2883,0.2737,0.4184,0.4221,0.424,0.424,0.5215,0.5577,0.565,0.6482,0.7028,0.7108,0.8465,0.9143,0.9143,1.049,1.1336,0.0,1.2331,1.2833,1.3245,1.37,1.3878,1.3878,1.3878,1.3878,1.3878,1.3878,1.3878,1.3878,1.3878,1.4567,1.5365,1.387,1.3535,1.3702,1.5199,1.6196,1.6987,1.8263,1.9216,2.0302,2.2346,2.3303,2.4183,2.5055,2.5321,2.5256,2.5022,2.497,2.5152,2.5736,2.6022,2.6386,2.6957,2.723,2.7502,2.784,2.7892,2.8022,2.8372,2.7385,2.6697,2.6697,2.6697,2.6697,2.6697,2.6697,2.6697,2.6697,2.6697,2.6697,2.6697,2.636,2.6061,2.5827,2.5113,2.4689,2.4232,2.3737,2.3581,0.0,0.0,0.0,0.0,0.0,0.0,0.0,0.0,0.0,0.0,0.0,0.0,0.0,0.0,0.0,-0.0279,-0.0277,-0.0276,-0.0283,-0.0284,-0.0143,0.0,0.0,0.0,0.0,0.0,0.0,0.0,0.0,-0.0159,-0.0306,-0.0156,0.0,0.0,0.0,0.0,0.0,0.2109,0.3244,0.3251,0.5361,0.6343,0.6356,0.6515,0.6678,0.6678,0.684,0.7968,0.0,0.9966,1.1225,1.2745,1.3008,1.328,1.3457,1.3457,1.3628,1.3798,1.3798,1.3798,1.3798,1.3798,1.3449,1.3027,1.3027,1.3027,1.3027,1.3027,1.4417,1.5964,1.5964,1.752,1.9553,2.1435,2.3315,2.4586,2.4355,2.4388,2.4395,2.3785,2.3839,2.4191,2.4827,2.5399,2.5931,2.6279,2.697,2.7282,2.723,2.723,2.723,2.723,2.6295,2.5684,2.5684,2.5684,2.5684,2.5684,2.5684,2.5684,2.5684,2.5684,2.5684,2.5684,2.5684,2.5412,2.5015,2.495,2.4362,2.3152,2.3087,2.3048,0.0,0.0,0.0,0.0,0.0,0.0,0.0,0.0,0.0,0.0,0.0,0.0,0.0,0.0,-0.0525,-0.2121,-0.2465,-0.2406,-0.2468,-0.2476,-0.1898,-0.0147,0.0,0.0,0.0,0.0,0.0,0.0,0.0,-0.0756,-0.2286,-0.092,0.0,0.0,0.0,0.0,0.0,0.0465,0.0781,0.0796,0.1273,0.1445,0.1634,0.3425,0.4236,0.4399,0.619,0.7096,0.7303,0.7636,0.7952,0.8161,0.8347,0.9404,1.0716,1.0716,1.1715,1.3212,1.3212,1.3212,1.3212,1.3212,1.3126,1.3027,1.3027,1.3027,1.3027,1.3027,1.3167,1.3447,1.3447,1.3581,1.401,1.4458,1.5953,1.7878,1.9264,2.0704,2.1956,2.2138,2.3546,2.4931,2.597,2.6256,2.6227,2.6343,2.6632,2.6541,2.61,2.6035,2.6035,2.6035,2.5827,2.5684,2.5684,2.5684,2.5684,2.5684,2.5684,2.5684,2.5684,2.5684,2.5684,2.5684,2.5684,2.5619,2.549,2.5009,2.4571,2.3724,2.3282,2.2828,-0.1415,-0.1837,-0.2549,-0.2538,-0.256,-0.2557,-0.2578,-0.2525,-0.2231,-0.1444,-0.1198,-0.1203,-0.1217,-0.1268,-0.1843,-0.405,-0.43,-0.4098,-0.3254,-0.3902,-0.3799,-0.1734,-0.2333,-0.2949,-0.2833,-0.2956,-0.2949,-0.2833,-0.2093,-0.2405,-0.4407,-0.3498,-0.2892,-0.2892,-0.1981,-0.1525,-0.1525,-0.0458,0.0,0.0,0.0,0.0,0.0,0.1265,0.1896,0.1896,0.3158,0.4258,0.5197,0.5263,0.5924,0.6889,0.6971,0.7652,0.8462,0.8462,0.9272,1.0253,1.1222,1.1551,1.1343,1.0145,0.9602,0.992,1.0869,1.1182,1.1344,1.23,1.25,1.2381,1.2381,1.2276,1.2471,1.3358,1.4391,1.5723,1.7629,1.8941,1.9737,2.0005,2.1679,2.3274,2.4134,2.5055,2.5775,2.6074,2.6113,2.6009,2.571,2.3486,2.2396,2.3297,2.3446,2.3758,2.4678,2.4827,2.4827,2.4827,2.4827,2.4827,2.4827,2.4827,2.4827,2.4827,2.4827,2.4827,2.4827,2.4516,2.4061,2.3503,2.2919,2.2503,-0.344,-0.4113,-0.5205,-0.5205,-0.5205,-0.5198,-0.5301,-0.5199,-0.4856,-0.3355,-0.3069,-0.3071,-0.3062,-0.2976,-0.3713,-0.5874,-0.6186,-0.5592,-0.4439,-0.5585,-0.582,-0.3849,-0.5071,-0.6071,-0.6059,-0.5969,-0.6098,-0.6062,-0.4509,-0.4328,-0.6257,-0.5833,-0.5709,-0.5885,-0.44,-0.3654,-0.3654,-0.1981,-0.1067,-0.1067,-0.0763,-0.061,-0.0458,-0.0153,0.0,0.0,0.0,0.0,0.2959,0.2814,0.3959,0.5797,0.5797,0.5957,0.6282,0.6282,0.6603,0.7081,0.8679,0.9319,0.8939,0.6761,0.6072,0.6375,0.8046,0.8655,0.8957,1.0638,1.1404,1.1712,1.1712,1.1974,1.2533,1.4148,1.4545,1.4939,1.6533,1.6881,1.7121,1.7567,1.9349,2.0827,2.1341,2.2792,2.4133,2.4367,2.443,2.4392,2.4305,2.0924,1.938,2.1262,2.1552,2.2142,2.3762,2.3918,2.3918,2.3918,2.3918,2.3918,2.3918,2.3918,2.3918,2.3918,2.3918,2.3918,2.3918,2.3918,2.362,2.3061,2.2581,2.2256,-0.4778,-0.5288,-0.5205,-0.5205,-0.5205,-0.5301,-0.5294,-0.5249,-0.52,-0.4955,-0.5118,-0.5213,-0.4877,-0.4914,-0.5694,-0.8241,-0.8163,-0.8092,-0.8615,-0.8718,-0.7898,-0.584,-0.5857,-0.6071,-0.6059,-0.6055,-0.6052,-0.6069,-0.5582,-0.5925,-0.7434,-0.4929,-0.4179,-0.5596,-0.5709,-0.5618,-0.5618,-0.5314,-0.5163,-0.5163,-0.35,-0.2743,-0.259,-0.0763,0.0,0.0,0.0,0.0151,0.0446,0.0456,0.0614,0.0924,0.0924,0.2,0.369,0.369,0.4759,0.6128,0.6434,0.6586,0.6427,0.6085,0.6072,0.6072,0.6375,0.6375,0.6526,0.6832,0.8197,0.9566,0.9566,1.0619,1.1774,1.2066,1.2006,1.1808,1.2089,1.2299,1.3237,1.5769,1.7862,1.9368,1.9981,2.0365,2.0406,1.9766,1.9714,1.957,1.9189,2.0041,2.1407,2.3319,2.3475,2.3619,2.3905,2.3918,2.3918,2.3918,2.3918,2.3918,2.3918,2.3918,2.3918,2.3918,2.3918,2.3918,2.3918,2.3918,2.362,2.3074,2.2996,2.2425,-0.6719,-0.7527,-0.8364,-0.8229,-0.8198,-0.8172,-0.8195,-0.8174,-0.7854,-0.6894,-0.6706,-0.6811,-0.6658,-0.6494,-0.7246,-0.9711,-0.9592,-0.9018,-0.8775,-0.9356,-0.9251,-0.7433,-0.815,-0.8796,-0.9006,-0.9026,-0.898,-0.8715,-0.8827,-0.9147,-0.9697,-0.8405,-0.8076,-0.874,-0.898,-0.8447,-0.7287,-0.6208,-0.5843,-0.6072,-0.5166,-0.4713,-0.4713,-0.3802,-0.2723,-0.1802,-0.167,-0.1062,0.0,0.0,0.0,0.0,0.0,0.061,0.1373,0.1373,0.1981,0.274,0.3954,0.365,0.2587,0.2587,0.2587,0.2884,0.4039,0.4321,0.4605,0.5711,0.671,0.7436,0.7436,0.7958,0.875,0.9742,0.994,1.0144,1.1134,1.1511,1.2086,1.3228,1.5368,1.6911,1.7091,1.8185,1.8723,1.8535,1.8355,1.7541,1.5153,1.5557,1.6882,1.8785,1.8931,1.938,2.0559,2.0704,2.1129,2.2142,2.2286,2.2731,2.3918,2.2875,2.2286,2.2286,2.1129,2.0704,2.0704,2.0704,2.0592,2.0234,1.9933,1.9425,-0.8953,-0.9681,-1.0732,-1.1088,-1.0803,-1.0552,-1.0552,-1.0552,-1.0101,-0.8734,-0.8509,-0.8731,-0.9105,-0.8927,-0.9484,-1.1268,-1.1109,-1.0298,-0.919,-1.0008,-1.029,-0.894,-1.0045,-1.0917,-1.1049,-1.1128,-1.1159,-1.1319,-1.1086,-1.0937,-1.0944,-1.0601,-1.0677,-1.1168,-1.124,-1.0575,-0.903,-0.776,-0.7174,-0.73,-0.6854,-0.6557,-0.6561,-0.6152,-0.5104,-0.374,-0.3785,-0.3036,-0.1511,-0.152,-0.1219,-0.0763,-0.0763,-0.0458,0.0,0.0,0.0,0.0152,0.1351,0.0598,-0.0599,-0.015,0.0,0.0299,0.1903,0.2328,0.2608,0.4119,0.4944,0.5226,0.5226,0.5622,0.6285,0.7671,0.8187,0.8856,1.0175,1.1117,1.1629,1.1709,1.3126,1.4391,1.4391,1.5574,1.6604,1.6604,1.6604,1.5714,1.3358,1.3058,1.38,1.5723,1.5863,1.6456,1.7923,1.807,1.8648,2.01,2.0682,2.1696,2.3175,2.1841,2.0961,2.0961,1.9088,1.807,1.807,1.807,1.807,1.8061,1.7572,1.7206,-1.1736,-1.1429,-1.0447,-1.2353,-1.168,-1.0552,-1.0552,-1.0552,-1.0416,-1.0403,-1.0502,-1.1138,-1.2464,-1.2774,-1.2889,-1.3614,-1.3254,-1.2502,-1.155,-1.1277,-1.1142,-1.0756,-1.0865,-1.0759,-1.0619,-1.072,-1.1298,-1.2277,-1.1105,-1.0248,-1.0041,-0.8888,-0.9133,-1.0878,-1.1142,-1.1273,-1.1134,-1.1007,-1.102,-1.1033,-0.9062,-0.8076,-0.794,-0.6393,-0.5656,-0.5543,-0.5804,-0.5849,-0.5743,-0.5719,-0.4559,-0.2895,-0.2895,-0.1677,0.0,0.0,0.0,-0.0152,-0.1732,-0.227,-0.2129,-0.0569,0.0,0.0,0.0142,0.0142,0.0142,0.0283,0.1697,0.3251,0.3251,0.4436,0.5708,0.5708,0.6795,0.7894,0.8247,0.9846,1.1386,1.1662,1.2107,1.2471,1.2471,1.2471,1.2615,1.2615,1.2615,1.3208,1.483,1.4979,1.5714,1.7776,1.7923,1.7923,1.807,1.807,1.807,1.8218,1.9954,2.0961,2.1106,2.1106,2.0961,2.0961,1.9088,1.807,1.807,1.807,1.807,1.807,1.8051,1.766,-1.0584,-1.1232,-1.1976,-1.2497,-1.3146,-1.3714,-1.3714,-1.3714,-1.3714,-1.3714,-1.3827,-1.3999,-1.4611,-1.4485,-1.4361,-1.4806,-1.4467,-1.4025,-1.4193,-1.3775,-1.3514,-1.3879,-1.2611,-1.2217,-1.3552,-1.361,-1.3569,-1.3502,-1.3689,-1.3613,-1.3496,-1.3113,-1.3247,-1.3914,-1.3914,-1.3983,-1.3983,-1.4233,-1.3682,-1.261,-1.0898,-1.015,-1.0156,-0.9533,-0.8533,-0.7204,-0.7335,-0.6634,-0.5585,-0.5486,-0.5074,-0.4498,-0.4498,-0.4063,-0.3338,-0.3338,-0.3338,-0.3475,-0.4119,-0.4236,-0.4234,-0.3531,-0.339,-0.338,-0.3322,-0.2618,-0.1648,-0.162,-0.0269,0.1077,0.1077,0.1604,0.2254,0.3437,0.4064,0.4721,0.6066,0.7061,0.81,0.9465,1.0009,1.0638,1.2013,1.2321,1.2321,1.2321,1.2321,1.2471,1.3208,1.3358,1.3501,1.4241,1.4391,1.4391,1.4391,1.4391,1.483,1.616,1.6882,1.7766,1.9088,1.7914,1.7177,1.7177,1.5269,1.4391,1.4391,1.4391,1.4391,1.4391,1.4391,1.4172,-1.27,-1.2552,-1.2828,-1.4071,-1.4782,-1.5299,-1.5447,-1.5602,-1.5602,-1.5602,-1.5602,-1.5728,-1.6241,-1.6231,-1.6126,-1.6315,-1.598,-1.5671,-1.5523,-1.5229,-1.5019,-1.5325,-1.4018,-1.3557,-1.4798,-1.542,-1.5718,-1.5463,-1.6014,-1.6116,-1.5602,-1.5602,-1.5602,-1.5602,-1.5602,-1.5602,-1.5602,-1.5761,-1.526,-1.4088,-1.315,-1.2722,-1.273,-1.217,-1.1253,-0.987,-0.9412,-0.8459,-0.7332,-0.7332,-0.6911,-0.6208,-0.6208,-0.5786,-0.522,-0.522,-0.6409,-0.7671,-0.6451,-0.6044,-0.6044,-0.5496,-0.5222,-0.5203,-0.5246,-0.4413,-0.3467,-0.3403,-0.2608,-0.1568,-0.1046,-0.0915,-0.0392,0.1305,0.2101,0.2927,0.4239,0.5055,0.6048,0.752,0.7954,0.8806,1.0789,1.1247,1.1404,1.217,1.2321,1.1712,1.0331,1.0789,1.1404,1.217,1.2321,1.2321,1.2321,1.2321,1.2717,1.3931,1.4645,1.5467,1.6775,1.5475,1.4903,1.4903,1.2879,1.1873,1.1873,1.1873,1.192,1.2018,1.2018,1.2071,-1.8144,-1.5542,-1.2928,-1.7047,-1.6435,-1.4995,-1.5668,-1.5768,-1.5758,-1.5728,-1.5728,-1.6231,-1.7891,-1.814,-1.8128,-1.814,-1.814,-1.7619,-1.598,-1.5728,-1.5568,-1.524,-1.5049,-1.473,-1.4012,-1.6228,-1.772,-1.8094,-1.814,-1.738,-1.5854,-1.5728,-1.5728,-1.5728,-1.5728,-1.5728,-1.5728,-1.5728,-1.5728,-1.5602,-1.5602,-1.5602,-1.5486,-1.4088,-1.3468,-1.3352,-1.2091,-1.14,-1.14,-1.1413,-1.029,-0.8324,-0.8459,-0.7183,-0.5495,-0.5638,-0.8832,-1.2687,-0.9225,-0.7939,-0.7676,-0.5983,-0.5464,-0.5464,-0.5464,-0.5335,-0.5335,-0.5335,-0.5335,-0.4812,-0.3125,-0.2605,-0.2217,-0.0524,0.1202,0.2464,0.2954,0.4326,0.5612,0.5895,0.592,0.6526,0.8655,0.9108,0.9722,1.1712,1.2019,1.0633,0.6526,0.774,0.9873,1.1849,1.2144,1.2144,1.2144,1.2144,1.2018,1.1722,1.3412,1.4388,1.4173,1.4148,1.4148,1.4148,1.2241,1.1273,1.1273,1.1273,1.1425,1.1709,1.1709,1.1867,-1.5645,-1.6505,-1.7419,-1.86,-1.9487,-2.0091,-2.0237,-2.0273,-2.0055,-1.9416,-1.9257,-1.9393,-1.9777,-1.956,-1.9301,-1.9837,-1.956,-1.918,-1.9209,-1.9257,-1.9196,-1.905,-1.7709,-1.7125,-1.7921,-1.9126,-1.956,-1.9188,-1.9674,-1.9764,-1.9257,-1.9257,-1.9257,-1.9257,-1.9257,-1.9257,-1.9257,-1.9257,-1.8637,-1.738,-1.738,-1.6743,-1.5476,-1.5086,-1.5015,-1.4906,-1.4922,-1.4962,-1.498,-1.5395,-1.4278,-1.2599,-1.3706,-1.293,-1.1343,-1.3187,-1.4488,-1.5279,-1.4349,-1.2873,-1.1523,-1.0997,-0.9991,-0.9114,-0.9114,-0.8069,-0.7024,-0.7024,-0.6242,-0.5075,-0.4683,-0.4556,-0.4056,-0.2274,-0.1486,-0.0825,0.0576,0.117,0.2072,0.3636,0.3956,0.4561,0.6526,0.6829,0.7135,0.7589,0.774,0.7286,0.6223,0.6526,0.7539,0.9484,0.9749,1.0221,1.1381,1.1524,1.1484,1.1405,1.1955,1.2194,1.2102,1.2102,1.2102,1.2102,1.1552,1.1273,1.1273,1.1273,1.132,1.1399,1.1399,1.1564,-1.6456,-1.6817,-1.7899,-1.8867,-1.9913,-2.0789,-2.0789,-2.1166,-2.1256,-2.0348,-2.036,-2.0652,-2.0652,-2.0257,-2.0127,-2.06,-2.0244,-2.0153,-2.06,-2.0652,-2.0652,-2.0652,-2.0662,-2.1017,-2.1874,-2.2335,-2.2406,-2.2035,-2.2349,-2.2549,-2.2549,-2.2549,-2.2549,-2.2549,-2.2549,-2.2549,-2.2549,-2.2549,-2.2051,-2.105,-2.105,-2.018,-1.869,-1.869,-1.8072,-1.6934,-1.672,-1.6637,-1.6667,-1.6917,-1.6471,-1.5496,-1.6344,-1.598,-1.5186,-1.7128,-1.7668,-1.7272,-1.6297,-1.5162,-1.395,-1.3316,-1.2312,-1.1431,-1.0674,-0.9765,-0.885,-0.885,-0.8198,-0.7283,-0.6506,-0.6429,-0.5984,-0.419,-0.3866,-0.3678,-0.2772,-0.1926,-0.0899,0.0304,0.1219,0.2438,0.441,0.4862,0.4544,0.3598,0.4193,0.4772,0.4575,0.6037,0.7466,0.837,0.924,1.0144,1.1134,1.1273,1.1227,1.1115,1.1102,1.1049,1.0924,1.0917,1.0917,1.0917,1.0917,1.0917,1.0917,1.0917,1.0983,1.1102,1.1102,1.1194,-1.9221,-1.7013,-1.628,-1.8502,-1.901,-1.901,0.0,-1.9921,-2.0469,-1.9698,-1.9971,-2.0456,-2.0456,-2.0565,-2.0713,-2.0779,-2.0914,-2.105,-2.1117,-2.113,-2.113,-2.113,-2.3619,-2.5287,-2.5287,-2.5287,-2.5287,-2.5287,-2.5287,-2.5287,-2.5287,-2.5287,-2.5137,-2.4923,-2.5121,-2.5121,-2.4923,-2.5121,-2.5287,-2.5287,-2.5367,-2.4637,-2.3244,-2.3392,-2.1989,-1.9299,-1.8447,-1.7853,-1.7779,-1.7831,-1.7715,-1.7568,-1.7653,-1.7748,-1.779,-1.8866,-1.9205,-1.883,-1.6829,-1.602,-1.5602,-1.4077,-1.3316,-1.2679,-1.1175,-1.0519,-1.0242,-1.0242,-1.0088,-0.9557,-0.8151,-0.7934,-0.7843,-0.6257,-0.6089,-0.6313,-0.6033,-0.4647,-0.335,-0.3199,-0.1677,0.0305,0.2438,0.2743,0.2117,0.0295,0.1613,0.2611,0.2268,0.5498,0.7739,0.7586,0.9401,1.0652,1.0898,1.1036,1.1076,1.0832,1.0812,1.07,1.0559,1.0552,1.0552,1.0552,1.0552,1.0552,1.0552,1.0552,1.0561,1.0812,1.0812,1.0678,0.0,0.0,0.0,0.0,0.0,0.0,0.0,-2.0496,-2.0231,-1.9192,-1.9075,-1.9153,-1.9153,-2.0255,-2.1191,-2.1677,-2.2825,-2.3835,-2.4259,-2.4337,-2.4337,-2.4337,-2.4931,-2.5287,-2.5287,-2.5287,-2.5287,-2.5287,-2.5287,-2.5287,-2.5287,-2.5287,-2.4427,-2.2694,-2.438,-2.4412,-2.2563,-2.4396,-2.5287,-2.5287,-2.5969,-2.5696,-2.4844,-2.6194,-2.5332,-2.2848,-2.3344,-2.2962,-2.1942,-2.2377,-2.1686,-2.0344,-2.151,-2.1643,-2.1233,-2.1412,-2.1228,-2.0835,-2.0453,-1.9106,-1.7505,-1.7255,-1.5224,-1.2934,-1.2687,-1.0598,-0.8297,-0.8297,-0.73,-0.6478,-0.7498,-0.7961,-0.8095,-0.7764,-0.8023,-0.7801,-0.6305,-0.575,-0.5014,-0.335,-0.2743,-0.1829,0.0305,0.061,0.0454,0.0,0.0289,0.057,0.0567,0.1132,0.2243,0.3427,0.5327,0.704,0.8344,0.9789,1.0568,1.0639,1.0639,1.0612,1.0552,1.0552,1.0552,1.0552,1.0552,1.0552,1.0552,1.0552,1.0579,1.0639,1.0639,0.9053,0.0,0.0,0.0,0.0,0.0,0.0,0.0,0.0,0.0,0.0,0.0,-1.8828,-1.8828,0.0,-2.0777,-2.1751,-2.3016,-2.4052,-2.5121,-2.5287,-2.5877,-2.7379,-2.7628,-2.7628,-2.7628,-2.7628,-2.7628,-2.7628,-2.7628,-2.7628,-2.7628,-2.726,-2.6519,-2.5451,-2.6388,-2.6692,-2.5974,-2.7453,-2.8518,-2.8923,-2.9311,-2.8786,-2.7694,-2.8561,-2.7995,-2.6086,-2.5678,-2.5793,-2.6225,-2.5143,-2.3978,-2.3009,-2.3999,-2.3512,-2.2007,-2.0778,-2.0706,-2.1155,-1.9939,-1.9381,-1.9146,-1.84,-1.6879,-1.535,-1.4583,-1.3046,-1.1649,-1.1649,-1.0413,-0.9351,-1.0238,-1.0099,-0.9688,-0.9668,-1.0165,-1.018,-0.939,-0.8348,-0.7286,-0.6382,-0.532,-0.3954,-0.1829,-0.151,-0.1183,-0.0143,0.0,0.0277,0.109,0.1223,0.1882,0.3655,0.5448,0.6885,0.7758,0.9418,1.0433,1.0525,1.0552,1.0552,1.0552,1.0552,1.0552,1.0552,1.0552,1.0552,1.0552,1.0552,1.003,0.9108,0.8327,0.6894,0.0,0.0,0.0,0.0,0.0,0.0,0.0,0.0,0.0,0.0,0.0,0.0,0.0,0.0,0.0,-2.2063,-2.3091,-2.4285,-2.5962,-2.6213,-2.7164,-2.9615,-2.9955,-2.9955,-2.9955,-2.9955,-3.0068,-3.0294,-3.0387,-3.05,-3.0724,-3.0191,-2.9525,-2.881,-2.9372,-2.9665,-2.9596,-3.0844,-3.1834,-3.2395,0.0,0.0,-3.0568,-3.0711,-2.9801,-2.8146,-2.724,-2.761,-2.8497,-2.6736,-2.5825,-2.562,-2.6269,-2.4899,-2.2458,-1.9774,-1.9914,-2.0948,-1.8782,-1.9146,-2.0406,-1.9022,-1.84,-1.7766,-1.6492,-1.5533,0.0,-1.5079,-1.3764,-1.2595,-1.292,-1.2439,-1.1879,-1.181,-1.2308,-1.2765,-1.2321,-1.0558,-0.9158,-0.9093,-0.7385,-0.54,-0.3475,-0.3233,-0.2396,0.0267,0.0658,0.1167,0.2511,0.2537,0.3048,0.4833,0.6083,0.6899,0.7259,0.8622,0.9694,0.9972,1.0131,1.0172,1.0172,1.0172,1.0113,1.0008,1.0001,0.9962,0.9871,0.9871,0.8888,0.7278,0.5911,0.4885,0.0,0.0,0.0,0.0,0.0,0.0,0.0,0.0,0.0,0.0,0.0,0.0,0.0,0.0,0.0,0.0,-2.5003,-2.7082,-2.9162,-2.9387,-2.9482,-2.9842,-2.9955,-2.9955,-2.9955,-2.9955,-3.0519,-3.1727,-3.1838,-3.2348,-3.3632,-3.3633,0.0,0.0,0.0,-3.1387,-2.8205,-3.0951,-3.2423,-3.2537,-3.3277,-3.3113,-3.229,-3.3025,-3.0926,-2.6867,-2.9279,-2.8505,-2.5736,-2.728,-2.8333,-2.8921,-2.8672,-2.7033,-2.4424,-2.1433,-2.0568,-2.0607,-2.0342,0.0,0.0,-2.0406,-1.9282,-1.8027,-1.7891,-1.5665,-1.3114,-1.3114,-1.1898,-1.1006,-1.2414,-1.3307,-1.3834,-1.3533,-1.4163,-1.4391,-1.2615,-1.0572,-0.9077,-0.9184,-0.7483,-0.5451,-0.3378,-0.3742,-0.2432,0.2363,0.3078,0.3094,0.3097,0.2295,0.2533,0.4202,0.3625,0.0,0.5433,0.6347,0.7224,0.8023,0.8839,0.9263,0.9263,0.9263,0.9025,0.8406,0.8399,0.8104,0.7355,0.7355,0.6812,0.5573,0.5294,0.3348,0.0,0.0,0.0,0.0,0.0,0.0,0.0,0.0,0.0,0.0,0.0,0.0,0.0,0.0,0.0,0.0,-2.3835,-2.6052,-2.7826,-2.8104,-2.8623,-2.9785,-2.9955,-2.9955,-2.9955,-2.9955,-3.0519,-3.1948,-3.2059,-3.2697,-3.4169,-3.3753,-3.2837,-3.1349,-3.2588,-3.2728,-3.1607,-3.2513,-3.3306,-3.3679,-3.3231,-3.3125,-3.3258,-3.3125,-3.2408,-3.1463,-3.1089,-3.0873,-3.0749,-3.0052,-3.0291,0.0,0.0,0.0,0.0,0.0,-2.2777,-2.1645,-1.9497,-1.9623,-2.0652,-2.0652,-2.0147,-1.9529,-1.9529,-1.8571,-1.7372,-1.7372,-1.6122,-1.5097,-1.6054,-1.5987,-1.5359,-1.4529,-1.4742,-1.4681,-1.2615,-1.1521,-1.0973,-1.0898,-1.0168,0.0,-0.6754,-0.5643,-0.3926,-0.0498,0.0,0.0362,0.1195,0.0987,0.1003,0.1724,0.2188,0.2816,0.3551,0.4992,0.0,0.0,0.0,0.6903,0.6903,0.7766,0.0,0.0,0.0,0.7363,0.6994,0.745,0.0,0.0,0.3565,0.2991,0.0,0.0,0.0,0.0,0.0,0.0,0.0,0.0,0.0,0.0,0.0,0.0,0.0,0.0,0.0,0.0,-2.2128,-2.3871,-2.5406,-2.6336,-2.7701,-2.9963,-3.0028,-3.0275,-3.104,-3.0724,-3.1263,-3.3112,-3.3221,-3.3847,-3.5335,-3.4455,-3.3768,-3.3378,-3.3221,-3.3247,-3.336,-3.3184,-3.3524,-3.438,-3.3335,-3.3315,-3.4093,-3.3258,-3.3138,-3.3745,-3.2282,-3.2466,-3.3596,-3.2282,-3.2196,-3.2831,-3.0693,-3.0067,-2.9732,-2.7001,-2.4916,-2.3155,-2.0078,-1.9656,-2.0652,-2.0652,-2.0652,-2.0652,-2.0652,-2.0652,-2.0652,-2.0652,-1.9653,-1.8892,-1.9415,-1.8449,-1.7009,-1.5599,-1.5578,-1.5277,-1.2765,-1.218,-1.2255,-1.2287,-1.1798,-1.0643,-0.835,-0.6469,-0.4567,-0.262,-0.186,-0.1238,0.0,0.0378,0.0508,0.0497,0.1327,0.1811,0.1894,0.3326,0.4266,0.453,0.5219,0.5459,0.5198,0.6614,0.7158,0.6658,0.6222,0.5783,0.0,0.0,0.0,0.0,0.0,0.0,0.0,0.0,0.0,0.0,0.0,0.0,0.0,0.0,0.0,0.0,0.0,0.0,0.0,0.0,0.0,0.0,0.0,0.0,-2.2365,-2.4988,-2.7793,-3.0591,-3.0308,-3.104,-3.3847,-3.2786,-3.3221,-3.5963,-3.6171,-3.6814,-3.8284,-3.6972,-3.5605,-3.4232,-3.373,-3.2764,-3.1405,-3.2164,-3.2916,-3.3879,-3.3751,-3.4169,-3.4947,-3.4112,-3.2646,-3.0782,-3.2777,-3.252,-3.08,-3.2922,-3.4134,-3.4702,-3.3019,-3.1456,-2.9963,-2.8189,-2.6564,-2.4916,-2.3334,-2.1808,-2.0652,-2.0652,-2.0652,-2.0652,-2.0652,-2.0652,-2.0652,-2.0652,-2.0529,-2.0659,-2.1218,-2.0178,-1.8776,-1.7415,-1.7447,-1.69,-1.3058,-1.2109,-1.2124,-1.2194,-1.0584,-0.8578,-0.6453,-0.4943,-0.35,-0.1975,-0.0325,0.0,0.0416,0.1131,0.1679,0.1678,0.0757,0.0131,0.0131,0.0966,0.1785,0.2592,0.5048,0.6193,0.5318,0.6117,0.583,0.4003,0.3534,0.2836,0.1954,0.0,0.0,0.0,0.0,0.0,0.0,0.0,0.0,0.0,0.0,0.0,0.0,0.0,0.0,0.0,0.0,0.0,0.0,0.0,0.0,0.0,0.0,0.0,0.0,-2.3326,-2.605,-2.9674,-2.9564,-2.9886,-3.1849,-3.0734,-3.1057,-3.396,-3.4641,-3.5963,-3.8385,-3.8059,-3.7529,-3.7122,-3.6829,-3.6571,-3.602,-3.5387,-3.5623,-3.66,-3.5699,-3.6028,-3.7324,-3.5474,-3.4794,-3.506,-3.4249,-3.3666,-3.3503,-3.4342,-3.4435,-3.4093,-3.2973,-3.1773,-3.0757,-2.9547,-2.8205,-2.6797,-2.6196,-2.4306,-2.1943,-2.0885,-2.0652,-2.0652,-2.0652,-2.0652,-2.0652,-2.0652,-1.9777,-1.9017,-1.9544,-1.9405,-1.8393,-1.596,-1.651,-1.6542,-1.3009,-1.2147,-1.214,-1.1867,-0.9192,-0.6373,-0.5084,-0.4772,-0.3978,-0.1811,-0.1414,-0.0979,0.0,0.0374,0.0636,0.0636,0.0259,0.0,0.0,0.0255,0.0635,0.0783,0.2792,0.3789,0.3511,0.5946,0.6605,0.4862,0.5744,0.5712,0.4594,0.0,0.0,0.0,0.0,0.0,0.0,0.0,0.0,0.0,0.0,0.0,0.0,0.0,0.0,0.0,0.0,0.0,0.0,0.0,0.0,0.0,0.0,0.0,0.0,0.0,0.0,-2.9578,-3.0003,0.0,-3.1537,-3.0802,-3.0995,-3.2526,-3.3152,-3.4562,-3.7181,-3.6781,-3.6947,-3.7732,-3.7224,-3.7019,-3.7019,-3.5523,-3.5402,-3.6422,-3.5313,-3.545,-3.6907,-3.5553,-3.5575,-3.648,-3.4954,-3.453,-3.4966,-3.4359,-3.3808,-3.322,-3.1557,-3.0535,-2.9904,-2.7686,-2.6701,-2.6291,-2.5301,-2.4074,-2.2642,-2.1117,-1.9988,-1.9258,-1.857,-1.801,-1.7515,-1.7586,-1.6925,-1.6361,-1.686,-1.7026,-1.6474,-1.4954,-1.5411,-1.548,-1.2698,-1.206,-1.159,-0.9884,-0.6599,-0.4023,-0.3777,-0.3502,-0.2773,-0.0884,-0.1177,-0.0873,0.1008,0.1031,0.1176,0.183,0.1307,0.0915,0.0915,0.0915,0.0915,0.0915,0.3127,0.4166,0.3516,0.6242,0.7117,0.5884,0.6451,0.6754,0.0,0.0,0.0,0.0,0.0,0.0,0.0,0.0,0.0,0.0,0.0,0.0,0.0,0.0,0.0,0.0,0.0,0.0,0.0,0.0,0.0,0.0,0.0,0.0,0.0,0.0,0.0,-2.9952,-3.126,0.0,0.0,0.0,0.0,-3.1684,-3.1738,-3.2768,-3.4882,-3.3731,-3.3929,-3.609,-3.4803,-3.4189,-3.4189,-3.2874,-3.2618,-3.3536,-3.3007,-3.3146,-3.4006,-3.4829,-3.506,-3.5079,-3.4947,-3.4947,-3.4814,-3.3019,-3.23,-3.1989,-2.9049,-2.7886,-2.7128,-2.2939,-2.2576,-2.3777,-2.0987,-2.1157,-2.2541,-2.0983,-1.8901,-1.6652,-1.4703,-1.3147,0.0,0.0,-1.2251,-1.2699,-1.3455,-1.3451,-1.3425,-1.4141,-1.4328,-1.3781,-1.1951,-1.154,-1.0371,-0.6215,-0.3218,-0.1453,-0.2133,0.0,0.0327,0.0905,0.0535,0.1026,0.327,0.2994,0.3386,0.5075,0.3646,0.2605,0.2605,0.2605,0.2605,0.2605,0.5983,0.7278,0.5717,0.7393,0.8032,0.7394,0.6203,0.0,0.0,0.0,0.0,0.0,0.0,0.0,0.0,0.0,0.0,0.0,0.0,0.0,0.0,0.0,0.0,0.0,0.0,0.0,0.0,0.0,0.0,0.0,0.0,0.0,0.0,-2.1514,-2.3833,-2.5119,-2.6326,-2.7047,0.0,0.0,0.0,0.0,0.0,0.0,-3.2625,-3.2353,-3.2464,-3.3005,-3.3291,-3.3334,-3.3334,-3.3503,-3.4233,-3.531,-3.622,-3.6606,-3.6525,-3.7191,-3.6847,-3.5781,-3.4588,-3.4093,-3.396,-3.1254,-2.9728,-2.9013,-2.8251,-2.5855,-2.2618,-2.1742,-2.0927,-2.0198,-1.9621,-1.9711,-1.996,-1.9093,-1.7252,-1.5019,-1.4001,0.0,0.0,0.0,0.0,-0.9319,-1.0635,-1.0824,-1.0843,-1.1026,-1.1207,-1.1019,-0.9366,-0.7565,-0.5308,-0.205,-0.0806,0.0642,0.3552,0.2868,0.0,0.4154,0.3988,0.3829,0.4081,0.4391,0.4686,0.5205,0.4815,0.4556,0.4556,0.4556,0.4556,0.4556,0.778,0.9941,1.0759,1.3952,1.5437,1.4803,0.0,0.0,0.0,0.0,0.0,0.0,0.0,0.0,0.0,0.0,0.0,0.0,0.0,0.0,0.0,0.0,0.0,0.0,0.0,0.0,0.0,0.0,0.0,0.0,0.0,0.0,0.0,-1.8436,-2.1209,-2.2344,-2.4309,-2.5033,0.0,0.0,0.0,0.0,0.0,0.0,0.0,0.0,0.0,-3.188,-3.231,-3.2573,-3.2573,-3.2668,-3.3077,-3.3737,-3.4658,-3.5001,-3.4855,-3.5408,-3.5352,-3.4492,-3.2659,-3.1499,-3.0739,-2.8598,-2.7567,-2.7258,0.0,0.0,0.0,0.0,-1.6435,-1.5357,-1.488,-1.4922,-1.5163,-1.4884,0.0,0.0,0.0,0.0,0.0,0.0,0.0,-0.6647,-0.7525,-0.8294,-0.8794,-0.8995,-0.8226,-0.7451,-0.7126,-0.3018,0.0873,0.2022,0.2639,0.3946,0.6965,0.6291,0.0,0.0,0.0,0.7009,0.775,0.6938,0.6631,0.7417,0.6894,0.6376,0.6376,0.7015,0.7522,0.7522,1.133,1.3596,1.3728,1.7622,1.8893,0.0,0.0,0.0,0.0,0.0,0.0,0.0,0.0,0.0,0.0,0.0,0.0,0.0,0.0,0.0,0.0,0.0,0.0,0.0,0.0,0.0,0.0,0.0,0.0,0.0,0.0,0.0,0.0,0.0,-1.7387,-1.9982,0.0,0.0,0.0,0.0,0.0,0.0,0.0,0.0,0.0,0.0,0.0,0.0,0.0,-3.0686,-3.0686,-3.0272,-3.0209,-3.0351,-3.0719,-3.085,-3.0752,-3.1864,-3.2069,-3.1454,-2.9601,0.0,-2.6845,-2.5596,0.0,0.0,0.0,0.0,0.0,0.0,0.0,0.0,0.0,0.0,0.0,0.0,0.0,0.0,0.0,0.0,0.0,0.0,0.0,0.0,0.0,0.0,-0.6482,-0.689,-0.494,-0.3291,-0.4077,0.1555,0.6555,0.56,0.6332,0.7563,0.0,0.0,0.0,0.0,0.0,0.0,1.226,1.0098,0.9096,1.0667,0.9237,0.8317,0.8693,1.0094,1.1097,1.1592,1.5604,1.7397,1.5992,1.9732,0.0,0.0,0.0,0.0,0.0,0.0,0.0,0.0,0.0,0.0,0.0,0.0,0.0,0.0,0.0,0.0,0.0,0.0,0.0,0.0,0.0,0.0,0.0,0.0,0.0,0.0,0.0,0.0,0.0,0.0,0.0,0.0,0.0,0.0,0.0,0.0,0.0,0.0,0.0,0.0,0.0,0.0,0.0,0.0,0.0,0.0,0.0,0.0,0.0,0.0,-2.8329,-2.8645,-2.8152,-3.0232,-2.9692,-2.701,-2.6433,-2.6003,-2.5685,-2.3939,0.0,0.0,0.0,0.0,0.0,0.0,0.0,0.0,0.0,0.0,0.0,0.0,0.0,0.0,0.0,0.0,0.0,0.0,0.0,0.0,0.0,0.0,-0.1011,-0.2501,-0.0773,0.1496,0.2844,0.0,0.0,0.0,0.0,0.0,0.0,0.0,0.0,0.0,0.0,0.0,1.2955,1.2534,1.2289,1.256,1.1039,1.1153,1.387,1.4365,1.5588,1.8267,1.873,1.9236,0.0,0.0,0.0,0.0,0.0,0.0,0.0,0.0,0.0,0.0,0.0,0.0,0.0,0.0,0.0,0.0,0.0,0.0,0.0,0.0,0.0,0.0,0.0,0.0,0.0,0.0,0.0,0.0,0.0,0.0,0.0,0.0,0.0,0.0,0.0,0.0,0.0,0.0,0.0,0.0,0.0,0.0,0.0,0.0,0.0,0.0,0.0,0.0,0.0,0.0,0.0,0.0,0.0,0.0,0.0,0.0,0.0,0.0,-2.3864,-2.1739,0.0,0.0,0.0,0.0,0.0,0.0,0.0,0.0,0.0,0.0,0.0,0.0,0.0,0.0,0.0,0.0,0.0,0.0,0.0,0.0,0.0,0.0,0.0,0.0,0.0,0.0,0.0,0.0,0.0,0.0,0.0,0.0,0.0,0.0,0.0,0.0,0.0,0.0,0.0,0.0,1.5998,1.5714,1.5888,1.6729,1.5253,1.5253,1.7686,1.9317,2.0328,2.0651,2.2752,0.0,0.0,0.0,0.0,0.0,0.0,0.0,0.0,0.0,0.0,0.0,0.0,0.0,0.0,0.0,0.0,0.0,0.0,0.0,0.0,0.0,0.0,0.0,0.0,0.0,0.0,0.0,0.0,0.0,0.0,0.0,0.0,0.0,0.0,0.0,0.0,0.0,0.0,0.0,0.0,0.0,0.0,0.0,0.0,0.0,0.0,0.0,0.0,0.0,0.0,0.0,0.0,0.0,0.0,0.0,0.0,0.0,0.0,0.0,-2.1386,-1.7846,0.0,0.0,0.0,0.0,0.0,0.0,0.0,0.0,0.0,0.0,0.0,0.0,0.0,0.0,0.0,0.0,0.0,0.0,0.0,0.0,0.0,0.0,0.0,0.0,0.0,0.0,0.0,0.0,0.0,0.0,0.0,0.0,0.0,0.0,0.0,0.0,0.0,0.0,0.0,0.0,1.9046,1.898,1.9526,2.1037,1.9841,1.9707,2.1939,2.4356,2.5113,2.322,2.6519,0.0,0.0,0.0,0.0,0.0,0.0,0.0,0.0,0.0,0.0,0.0,0.0,0.0,0.0,0.0,0.0,0.0,0.0,0.0,0.0,0.0,0.0,0.0,0.0,0.0,0.0,0.0,0.0,0.0,0.0,0.0,0.0,0.0,0.0,0.0,0.0,0.0,0.0,0.0,0.0,0.0,0.0,0.0,0.0,0.0,0.0,0.0,0.0,0.0,0.0,0.0,0.0,0.0,0.0,0.0,0.0,0.0,0.0,0.0,0.0,0.0,0.0,0.0,0.0,0.0,0.0,0.0,0.0,0.0,0.0,0.0,0.0,0.0,0.0,0.0,0.0,0.0,0.0,0.0,0.0,0.0,0.0,0.0,0.0,0.0,0.0,0.0,0.0,0.0,0.0,0.0,0.0,0.0,0.0,0.0,0.0,0.0,0.0,0.0,0.0,0.0,2.0818,2.1725,2.2889,2.4286,2.2904,2.3664,2.8159,2.8735,2.9307,3.0142,0.0,0.0,0.0,0.0,0.0,0.0,0.0,0.0,0.0,0.0,0.0,0.0,0.0,0.0,0.0,0.0,0.0,0.0,0.0,0.0,0.0,0.0,0.0,0.0,0.0,0.0,0.0,0.0,0.0,0.0,0.0,0.0,0.0,0.0,0.0,0.0,0.0,0.0,0.0,0.0,0.0,0.0,0.0,0.0,0.0,0.0,0.0,0.0,0.0,0.0,0.0,0.0,0.0,0.0,0.0,0.0,0.0,0.0,0.0,0.0,0.0,0.0,0.0,0.0,0.0,0.0,0.0,0.0,0.0,0.0,0.0,0.0,0.0,0.0,0.0,0.0,0.0,0.0,0.0,0.0,0.0,0.0,0.0,0.0,0.0,0.0,0.0,0.0,0.0,0.0,0.0,0.0,0.0,0.0,0.0,0.0,0.0,0.0,0.0,0.0,0.0,0.0,2.4376,2.5971,2.7823,3.0243,2.979,3.0351,3.3247,3.4855,3.4459,3.1444,0.0,0.0,0.0,0.0,0.0,0.0,0.0,0.0,0.0,0.0,0.0,0.0,0.0,0.0,0.0,0.0,0.0,0.0,0.0,0.0,0.0,0.0,0.0,0.0,0.0,0.0,0.0,0.0,0.0,0.0,0.0,0.0,0.0,0.0,0.0,0.0,0.0,0.0,0.0,0.0,0.0,0.0,0.0,0.0,0.0,0.0,0.0,0.0,0.0,0.0,0.0,0.0,0.0,0.0,0.0,0.0,0.0,0.0,0.0,0.0,0.0,0.0,0.0,0.0,0.0,0.0,0.0,0.0,0.0,0.0,0.0,0.0,0.0,0.0,0.0,0.0,0.0,0.0,0.0,0.0,0.0,0.0,0.0,0.0,0.0,0.0,0.0,0.0,0.0,0.0,0.0,0.0,0.0,0.0,0.0,0.0,0.0,0.0,0.0,0.0,0.0,0.0,2.6603,2.9614,3.2557,3.5163,3.5517,3.6401,3.8194,4.0082,3.8734,3.3105,0.0,0.0,0.0,0.0,0.0,0.0,0.0,0.0,0.0,0.0,0.0,0.0,0.0,0.0,0.0,0.0,0.0,0.0,0.0,0.0,0.0,0.0,0.0,0.0,0.0,0.0,0.0,0.0,0.0,0.0,0.0,0.0,0.0,0.0,0.0,0.0,0.0,0.0,0.0,0.0,0.0,0.0,0.0,0.0,0.0,0.0,0.0,0.0,0.0,0.0,0.0,0.0,0.0,0.0,0.0,0.0,0.0,0.0,0.0,0.0,0.0,0.0,0.0,0.0,0.0,0.0,0.0,0.0,0.0,0.0,0.0,0.0,0.0,0.0,0.0,0.0,0.0,0.0,0.0,0.0,0.0,0.0,0.0,0.0,0.0,0.0,0.0,0.0,0.0,0.0,0.0,0.0,0.0,0.0,0.0,0.0,0.0,0.0,0.0,0.0,0.0,0.0,2.6906,3.2287,3.6659,3.8114,3.9273,4.0956,4.3431,4.3722,4.1482,0.0,0.0,0.0,0.0,0.0,0.0,0.0,0.0,0.0,0.0,0.0,0.0,0.0,0.0,0.0,0.0,0.0,0.0,0.0,0.0,0.0,0.0,0.0,0.0,0.0,0.0,0.0,0.0,0.0,0.0,0.0,0.0,0.0,0.0,0.0,0.0,0.0,0.0,0.0,0.0,0.0,0.0,0.0,0.0,0.0,0.0,0.0,0.0,0.0,0.0,0.0,0.0,0.0,0.0,0.0,0.0,0.0,0.0,0.0,0.0,0.0,0.0,0.0,0.0,0.0,0.0,0.0,0.0,0.0,0.0,0.0,0.0,0.0,0.0,0.0,0.0,0.0,0.0,0.0,0.0,0.0,0.0,0.0,0.0,0.0,0.0,0.0,0.0,0.0,0.0,0.0,0.0,0.0,0.0,0.0,0.0,0.0,0.0,0.0,0.0,0.0,0.0,0.0,2.8847,3.4026,3.8395,4.0607,4.2713,4.4443,4.5894,4.6821,4.4517,3.789,0.0,0.0,0.0,0.0,0.0,0.0,0.0,0.0,0.0,0.0,0.0,0.0,0.0,0.0,0.0,0.0,0.0,0.0,0.0,0.0,0.0,0.0,0.0,0.0,0.0,0.0,0.0,0.0,0.0,0.0,0.0,0.0,0.0,0.0,0.0,0.0,0.0,0.0,0.0,0.0,0.0,0.0,0.0,0.0,0.0,0.0,0.0,0.0,0.0,0.0,0.0,0.0,0.0,0.0,0.0,0.0,0.0,0.0,0.0,0.0,0.0,0.0,0.0,0.0,0.0,0.0,0.0,0.0,0.0,0.0,0.0,0.0,0.0,0.0,0.0,0.0,0.0,0.0,0.0,0.0,0.0,0.0,0.0,0.0,0.0,0.0,0.0,0.0,0.0,0.0,0.0,0.0,0.0,0.0,0.0,0.0,0.0,0.0,0.0,0.0,0.0,0.0,0.0,3.5817,4.0624,4.3083,4.549,4.7338,4.8282,4.8507,4.5881,3.9208,0.0,0.0,0.0,0.0,0.0,0.0,0.0,0.0,0.0,0.0,0.0,0.0,0.0,0.0,0.0,0.0,0.0,0.0,0.0,0.0,0.0,0.0,0.0,0.0,0.0,0.0,0.0,0.0,0.0,0.0,0.0,0.0,0.0,0.0,0.0,0.0,0.0,0.0,0.0,0.0,0.0,0.0,0.0,0.0,0.0,0.0,0.0,0.0,0.0,0.0,0.0,0.0,0.0,0.0,0.0,0.0,0.0,0.0,0.0,0.0,0.0,0.0,0.0,0.0,0.0,0.0,0.0,0.0,0.0,0.0,0.0,0.0,0.0,0.0,0.0,0.0,0.0,0.0,0.0,0.0,0.0,0.0,0.0,0.0,0.0,0.0,0.0,0.0,0.0,0.0,0.0,0.0,0.0,0.0,0.0,0.0,0.0,0.0,0.0,0.0,0.0,0.0,0.0,3.7858,4.3025,4.5536,4.776,4.9437,5.0405,4.9155,4.5923,4.0289,3.8623,0.0,0.0,0.0,0.0,0.0,0.0,0.0,0.0,0.0,0.0,0.0,0.0,0.0,0.0,0.0,0.0,0.0,0.0,0.0,0.0,0.0,0.0,0.0,0.0,0.0,0.0,0.0,0.0,0.0,0.0,0.0,0.0,0.0,0.0,0.0,0.0,0.0,0.0,0.0,0.0,0.0,0.0,0.0,0.0,0.0,0.0,0.0,0.0,0.0,0.0,0.0,0.0,0.0,0.0,0.0,0.0,0.0,0.0,0.0,0.0,0.0,0.0,0.0,0.0,0.0,0.0,0.0,0.0,0.0,0.0,0.0,0.0,0.0,0.0,0.0,0.0,0.0,0.0,0.0,0.0,0.0,0.0,0.0,0.0,0.0,0.0,0.0,0.0,0.0,0.0,0.0,0.0,0.0,0.0,0.0,0.0,0.0,0.0,0.0,0.0,0.0,0.0,4.0222,4.5175,4.6561,4.8826,5.0117,4.9953,4.9593,4.6212,3.8886,3.8088,0.0,0.0,0.0,0.0,0.0,0.0,0.0,0.0,0.0,0.0,0.0,0.0,0.0,0.0,0.0,0.0,0.0,0.0,0.0,0.0,0.0,0.0,0.0,0.0,0.0,0.0,0.0,0.0,0.0,0.0,0.0,0.0,0.0,0.0,0.0,0.0,0.0,0.0,0.0,0.0,0.0,0.0,0.0,0.0,0.0,0.0,0.0,0.0,0.0,0.0,0.0,0.0,0.0,0.0,0.0,0.0,0.0,0.0,0.0,0.0,0.0,0.0,0.0,0.0,0.0,0.0,0.0,0.0,0.0,0.0,0.0,0.0,0.0,0.0,0.0,0.0,0.0,0.0,0.0,0.0,0.0,0.0,0.0,0.0,0.0,0.0,0.0,0.0,0.0,0.0,0.0,0.0,0.0,0.0,0.0,0.0,0.0,0.0,0.0,0.0,0.0,0.0,3.7502,4.2188,4.5687,4.9149,5.0474,4.8895,4.8793,4.5967,3.9413,3.8341,0.0,0.0,0.0,0.0,0.0,0.0,0.0,0.0,0.0,0.0,0.0,0.0,0.0,0.0,0.0,0.0,0.0,0.0,0.0,0.0,0.0,0.0,0.0,0.0,0.0,0.0,0.0,0.0,0.0,0.0,0.0,0.0,0.0,0.0,0.0,0.0,0.0,0.0,0.0,0.0,0.0,0.0,0.0,0.0,0.0,0.0,0.0,0.0,0.0,0.0,0.0,0.0,0.0,0.0,0.0,0.0,0.0,0.0,0.0,0.0,0.0,0.0,0.0,0.0,0.0,0.0,0.0,0.0,0.0,0.0,0.0,0.0,0.0,0.0,0.0,0.0,0.0,0.0,0.0,0.0,0.0,0.0,0.0,0.0,0.0,0.0,0.0,0.0,0.0,0.0,0.0,0.0,0.0,0.0,0.0,0.0,0.0,0.0,0.0,0.0,0.0,0.0,0.0,3.7935,4.4104,4.8652,5.0141,4.757,4.7307,4.5193,4.0204,0.0,0.0,0.0,0.0,0.0,0.0,0.0,0.0,0.0,0.0,0.0,0.0,0.0,0.0,0.0,0.0,0.0,0.0,0.0,0.0,0.0,0.0,0.0,0.0,0.0,0.0,0.0,0.0,0.0,0.0,0.0,0.0,0.0,0.0,0.0,0.0,0.0,0.0,0.0,0.0,0.0,0.0,0.0,0.0,0.0,0.0,0.0,0.0,0.0,0.0,0.0,0.0,0.0,0.0,0.0,0.0,0.0,0.0,0.0,0.0,0.0,0.0,0.0,0.0,0.0,0.0,0.0,0.0,0.0,0.0,0.0,0.0,0.0,0.0,0.0,0.0,0.0,0.0,0.0,0.0,0.0,0.0,0.0,0.0,0.0,0.0,0.0,0.0,0.0,0.0,0.0,0.0,0.0,0.0,0.0,0.0,0.0,0.0,0.0,0.0,0.0,0.0,0.0,0.0,3.8318,4.353,4.6576,4.7576,4.5932,4.5801,4.3698,3.8757,0.0,0.0,0.0,0.0,0.0,0.0,0.0,0.0,0.0,0.0,0.0,0.0,0.0,0.0]}],[{"header":{"parameterUnit":"kt","parameterCategory":2,"dx":1,"dy":1,"la1":29.285339999999998,"la2":30.599998999999997,"lo1":-89.70041500000002,"lo2":-87.6738589999976,"nx":112,"ny":82,"refTime":"2022-10-30T12:00:00:Z","depth":0,"parameterNumber":2,"parameterNumberName":"V-component_of_WINDS"},"data":[8.6735,8.8116,0.0,8.2297,8.0127,0.0,7.2137,0.0,6.7534,0.0,0.0,0.0,7.069,6.8553,6.6153,6.5199,6.3753,6.224,0.0,6.0629,0.0,0.0,0.0,0.0,0.0,0.0,0.0,0.0,0.0,0.0,0.0,0.0,9.3147,9.3147,9.4528,9.5251,9.5251,9.5251,9.5251,9.5251,9.5251,9.5251,9.5251,9.5251,9.5251,9.5251,9.5251,9.5251,9.5251,9.5251,9.5251,9.5251,9.5251,9.5251,9.5251,9.5251,9.5251,9.5251,9.5251,9.5251,9.5251,9.5251,9.5251,9.5251,9.5251,9.5251,9.5251,9.5251,9.5251,9.5251,9.5251,9.5251,9.5251,9.5251,9.5251,9.5251,9.5251,9.5251,9.5251,9.5251,9.5251,9.5251,9.5251,9.5251,9.5251,9.5251,9.4495,9.4232,9.5152,9.4462,9.4232,9.5152,9.4429,9.3903,9.3903,9.2588,9.193,9.2456,9.2489,9.2259,9.1733,9.1536,9.1042,9.0221,9.0122,8.9662,8.884,8.7886,8.7426,8.7426,8.69,8.667,0.0,0.0,8.3612,7.7266,0.0,0.0,0.0,0.0,0.0,0.0,6.3917,6.4936,6.4936,6.4936,6.4476,6.2997,6.3161,6.2997,0.0,0.0,0.0,0.0,0.0,0.0,0.0,0.0,0.0,0.0,0.0,0.0,0.0,9.2588,9.387,9.387,9.4758,9.5251,9.5251,9.5251,9.5251,9.5251,9.5251,9.5251,9.5251,9.5251,9.5251,9.5251,9.5251,9.5251,9.5251,9.5251,9.5251,9.5251,9.5251,9.5251,9.5251,9.5251,9.5251,9.5251,9.5251,9.5251,9.5251,9.5251,9.5251,9.5251,9.5251,9.5251,9.5251,9.5251,9.5251,9.5251,9.5251,9.5251,9.5251,9.5251,9.5251,9.5251,9.5251,9.5251,9.5251,9.5251,9.5251,9.5251,9.5251,9.4462,9.3903,9.4199,9.3476,9.3081,9.3706,9.3837,9.3969,9.4232,9.3443,9.2555,9.1766,9.124,9.0944,9.0944,9.0944,9.0747,9.0253,9.0253,8.999,8.9497,8.8577,8.8116,8.8116,8.713,8.667,8.667,8.667,8.667,7.9173,0.0,7.605,6.8948,0.0,0.0,0.0,0.0,6.2779,6.2812,6.3851,6.4805,6.4871,6.4871,6.441,6.3043,6.4049,0.0,0.0,0.0,0.0,0.0,0.0,0.0,0.0,0.0,0.0,0.0,0.0,0.0,9.2686,9.4495,9.5251,9.5251,9.5251,9.5251,9.5251,9.5251,9.5251,9.5251,9.5251,9.5251,9.5251,9.5251,9.5251,9.5251,9.5251,9.5251,9.5251,9.5251,9.5251,9.5251,9.5251,9.5251,9.5251,9.5251,9.5251,9.5251,9.5251,9.5251,9.5251,9.5251,9.5251,9.5251,9.5251,9.5251,9.5251,9.5251,9.5251,9.5251,9.5251,9.5251,9.5251,9.5251,9.5251,9.5251,9.5251,9.5251,9.5251,9.5251,9.5218,9.5185,9.5185,9.2818,9.1207,9.2128,9.2193,9.1799,9.0944,9.3311,9.4363,9.2456,9.2226,9.1306,8.9037,9.0056,9.0812,9.0812,9.0812,9.0188,8.884,8.8774,8.8116,8.667,8.667,8.667,8.667,8.667,8.667,8.667,8.667,8.667,7.2071,7.3189,7.411,7.1052,7.0263,6.9408,6.6054,6.3194,6.1517,6.2536,0.0,0.0,0.0,0.0,6.3227,6.2799,0.0,6.7172,0.0,0.0,0.0,0.0,0.0,0.0,0.0,0.0,0.0,0.0,0.0,0.0,9.2851,9.4495,9.5251,9.5251,9.5251,9.5251,9.5251,9.5251,9.5251,9.5251,9.5251,9.5251,9.5251,9.5251,9.5251,9.5251,9.5251,9.5251,9.5251,9.5251,9.5251,9.5251,9.5251,9.5251,9.5251,9.5251,9.5251,9.5251,9.5251,9.5251,9.5251,9.5251,9.5251,9.5251,9.5251,9.5251,9.5251,9.5251,9.5251,9.5251,9.5251,9.5251,9.5251,9.5251,9.5251,9.5251,9.5251,9.5251,9.5251,9.5251,9.4429,9.3706,9.3706,9.1569,9.0188,9.1174,8.953,8.8116,8.7853,8.9727,9.1108,9.1306,9.0418,8.953,8.8905,8.8215,8.782,8.782,8.782,8.7656,8.7261,8.7261,8.7064,8.667,8.667,8.667,8.667,8.667,8.667,8.667,8.667,8.667,6.8981,7.0033,7.1315,6.9244,6.9211,6.8718,6.5167,6.2898,6.1583,0.0,0.0,0.0,0.0,0.0,0.0,0.0,6.6547,0.0,0.0,0.0,0.0,0.0,0.0,0.0,0.0,0.0,0.0,0.0,0.0,8.9464,9.3804,9.4824,9.5251,9.5251,9.5251,9.5251,9.5251,9.5251,9.5251,9.5251,9.5251,9.5251,9.5251,9.5251,9.5251,9.5251,9.5251,9.5251,9.5251,9.5251,9.5251,9.5251,9.5251,9.5251,9.5251,9.5251,9.5251,9.5251,9.5251,9.5251,9.5251,9.5251,9.5251,9.5251,9.5251,9.5251,9.5251,9.5251,9.5251,9.5251,9.5251,9.5251,9.5251,9.5251,9.5251,9.5251,9.5251,9.4791,9.4363,9.4363,9.3213,9.1832,9.0615,8.9234,8.8478,8.907,8.7722,8.667,8.667,8.7623,8.8511,8.907,8.8412,8.7919,8.7919,8.7163,8.667,8.667,8.667,8.667,8.667,8.667,8.667,8.667,8.667,8.667,8.667,8.667,8.667,8.667,8.667,8.667,6.8027,6.7501,6.7928,6.5528,6.5758,6.5693,6.2372,0.0,6.3325,6.2734,0.0,0.0,0.0,0.0,0.0,0.0,0.0,0.0,0.0,0.0,0.0,0.0,0.0,0.0,0.0,0.0,8.976,9.4856,9.1733,9.124,9.5054,9.5251,9.5251,9.5251,9.5251,9.5251,9.5251,9.5251,9.5251,9.5251,9.5251,9.5251,9.5251,9.5251,9.5251,9.5251,9.5251,9.5251,9.5251,9.5251,9.5251,9.5251,9.5251,9.5251,9.5251,9.5251,9.5251,9.5251,9.5251,9.5251,9.5251,9.5251,9.5251,9.5251,9.5251,9.5251,9.5251,9.5251,9.5251,9.5218,9.5054,9.5021,9.4955,9.4824,9.4758,9.4758,9.4758,9.3771,9.2917,9.2917,9.1569,8.9662,8.7097,8.667,8.667,8.667,8.667,8.667,8.667,8.667,8.667,8.667,8.667,8.667,8.667,8.667,8.667,8.667,8.667,8.667,8.667,8.667,8.667,8.667,8.667,8.667,8.667,8.667,8.667,8.667,8.667,8.667,6.418,6.3786,6.4147,6.4772,6.4246,6.4279,0.0,0.0,0.0,0.0,0.0,0.0,0.0,0.0,0.0,0.0,0.0,0.0,0.0,0.0,0.0,0.0,0.0,0.0,0.0,9.3607,9.4067,9.5185,9.4495,9.4396,9.5218,9.5251,9.5251,9.5251,9.5251,9.5251,9.5251,9.5251,9.5251,9.5251,9.5251,9.5251,9.5251,9.5251,9.5251,9.5251,9.5251,9.5251,9.5251,9.5251,9.5251,9.5251,9.5251,9.5251,9.5251,9.5251,9.5251,9.5251,9.5251,9.5251,9.5251,9.5251,9.5251,9.5251,9.5251,9.5251,9.5251,9.5251,9.5251,9.4988,9.387,9.3541,9.3245,9.2062,9.1766,9.1766,9.1766,9.1569,9.1371,9.1371,8.9267,8.7294,8.6735,8.667,8.667,8.667,8.667,8.667,8.667,8.667,8.667,8.667,8.667,8.667,8.667,8.667,8.667,8.667,8.667,8.667,8.667,8.667,8.667,8.667,8.667,8.667,8.667,8.667,8.667,8.667,8.667,8.667,6.3325,6.3292,6.3851,6.3851,6.3851,0.0,0.0,6.5989,6.7633,7.3518,7.411,7.4471,7.7398,0.0,0.0,0.0,0.0,0.0,0.0,0.0,0.0,0.0,0.0,0.0,9.5251,9.5251,9.5251,9.5251,9.5251,9.5251,9.5251,9.5251,9.5251,9.5251,9.5251,9.5251,9.5251,9.5251,9.5251,9.5251,9.5251,9.5251,9.5251,9.5251,9.5251,9.5251,9.5251,9.5251,9.5251,9.5251,9.5251,9.5251,9.5251,9.5251,9.5251,9.5251,9.5251,9.5251,9.5251,9.5251,9.5152,9.4429,9.4199,9.4199,9.4199,9.3673,9.3114,9.3114,9.3114,9.2917,9.2226,9.2062,9.1864,9.1141,9.0944,9.0944,9.0944,9.0385,8.9694,8.8938,8.7623,8.667,8.667,8.667,8.667,8.667,8.667,8.667,8.667,8.667,8.667,8.667,8.667,8.667,8.667,8.667,8.667,8.667,8.667,8.667,8.667,8.667,8.667,8.667,8.667,8.667,8.667,8.667,8.667,8.667,8.667,8.667,6.2964,6.3194,6.3884,6.2964,6.3424,0.0,6.4772,6.5331,6.7468,0.0,7.457,7.5655,0.0,0.0,0.0,0.0,0.0,0.0,0.0,0.0,0.0,0.0,0.0,0.0,9.5251,9.5251,9.5251,9.5251,9.5251,9.5251,9.5251,9.5251,9.5251,9.5251,9.5251,9.5251,9.5251,9.5251,9.5251,9.5251,9.5251,9.5251,9.5251,9.5251,9.5251,9.5251,9.5251,9.5251,9.5251,9.5251,9.5251,9.5251,9.5251,9.5087,9.4856,9.4856,9.4659,9.4429,9.4429,9.4429,9.4232,9.3081,9.2719,9.2719,9.2719,9.1897,9.0944,9.0944,9.0944,9.0878,9.0615,9.0549,9.0484,9.0188,9.0122,9.0122,9.0122,8.9201,8.8083,8.69,8.667,8.667,8.667,8.667,8.667,8.667,8.667,8.667,8.667,8.667,8.667,8.667,8.667,8.667,8.667,8.667,8.667,8.667,8.667,8.667,8.667,8.667,8.667,8.667,8.667,8.667,8.667,8.667,8.667,8.667,8.667,8.667,6.0958,6.0991,6.1385,6.2549,6.1912,0.0,7.0756,7.4406,7.8252,0.0,8.9826,9.216,0.0,0.0,0.0,0.0,0.0,0.0,0.0,0.0,0.0,0.0,0.0,0.0,9.5251,9.5251,9.5251,9.5251,9.5251,9.5251,9.5251,9.5251,9.5251,9.5251,9.5251,9.5251,9.5251,9.5251,9.5251,9.5251,9.5251,9.5251,9.5251,9.5251,9.5251,9.5251,9.5251,9.5251,9.5251,9.5251,9.5251,9.5251,9.5251,9.4495,9.3377,9.3377,9.2555,9.1437,9.1437,9.1437,9.1404,9.124,9.1207,9.1207,9.1207,9.1075,9.0944,9.0944,9.0944,9.0681,8.9399,8.907,8.8741,8.7426,8.713,8.713,8.713,8.6998,8.6834,8.6702,8.667,8.667,8.667,8.667,8.667,8.667,8.667,8.667,8.667,8.667,8.667,8.667,8.667,8.667,8.667,8.667,8.667,8.667,8.667,8.667,8.667,8.667,8.667,8.667,8.667,8.667,8.667,8.667,8.667,8.667,8.667,8.667,6.0629,6.0629,6.0761,6.1353,0.0,0.0,6.8783,7.2729,7.7266,0.0,8.8452,9.1801,0.0,0.0,0.0,0.0,0.0,0.0,0.0,0.0,0.0,0.0,0.0,0.0,0.0,9.2752,9.2752,9.2752,9.1996,9.1864,9.2686,9.2752,9.2752,9.2752,9.2752,9.2752,9.2752,9.3574,9.4035,9.4035,9.4035,9.4462,9.5218,9.4396,9.4462,9.5251,9.5251,9.5251,9.512,9.3443,9.2752,9.2752,9.2752,9.2391,9.1864,9.1864,9.147,9.0944,9.0944,9.0944,9.0812,8.999,8.9727,8.9727,8.9727,8.9135,8.8642,8.9497,8.9103,8.8314,8.7722,8.7557,8.7426,8.6801,8.667,8.667,8.667,8.667,8.667,8.667,8.667,8.667,8.667,8.667,8.667,8.667,8.667,8.667,8.667,8.667,8.667,8.667,8.667,8.667,8.667,8.667,8.667,8.667,8.667,8.667,8.667,8.667,8.667,8.667,8.667,8.667,8.667,8.667,8.667,8.667,8.667,8.667,6.0629,0.0,0.0,0.0,0.0,0.0,6.9733,7.3503,7.784,8.2747,8.6922,9.0482,0.0,0.0,0.0,0.0,0.0,0.0,0.0,0.0,0.0,0.0,0.0,0.0,0.0,0.0,0.0,0.0,9.0023,8.9892,9.0878,9.0944,9.0944,9.0944,9.0944,9.0944,9.0944,9.2029,9.2555,9.2555,9.2555,9.3081,9.4035,9.3015,9.3114,9.4067,9.4067,9.4067,9.3903,9.1832,9.0944,9.0944,9.0944,9.0714,9.0385,9.0385,9.0122,8.976,8.976,8.976,8.9596,8.8577,8.8248,8.8248,8.8248,8.7492,8.6867,8.7952,8.7459,8.667,8.667,8.667,8.667,8.667,8.667,8.667,8.667,8.667,8.667,8.667,8.667,8.667,8.667,8.667,8.667,8.667,8.667,8.667,8.667,8.667,8.667,8.667,8.667,8.667,8.667,8.667,8.667,8.667,8.667,8.667,8.667,8.667,8.667,8.667,8.667,8.667,8.667,8.667,8.667,8.667,8.667,8.667,0.0,0.0,0.0,6.7578,6.8661,7.0449,7.7227,8.1101,8.4163,8.7082,9.028,9.2672,9.27,0.0,0.0,0.0,0.0,0.0,0.0,0.0,0.0,0.0,0.0,0.0,0.0,0.0,0.0,0.0,9.0911,9.0911,9.0944,9.0944,9.0944,9.0944,9.0944,9.0944,9.0944,9.0977,9.101,9.101,9.101,9.1042,9.1075,9.1042,9.1042,9.1075,9.1075,9.1075,9.1075,9.0977,9.0944,9.0944,9.0944,9.0122,8.8905,8.8905,8.8018,8.6768,8.6768,8.6768,8.6768,8.6735,8.6702,8.6702,8.6702,8.6702,8.667,8.6702,8.6702,8.667,8.667,8.667,8.667,8.667,8.667,8.667,8.667,8.667,8.667,8.667,8.667,8.667,8.667,8.667,8.667,8.667,8.667,8.667,8.667,8.667,8.667,8.667,8.667,8.667,8.667,8.667,8.667,8.667,8.667,8.667,8.667,8.667,8.667,8.667,8.667,8.667,8.667,8.667,8.667,8.667,8.667,8.667,6.6122,6.6531,6.7492,7.3072,7.4377,7.5407,7.9828,8.3748,8.6744,8.7776,9.1873,9.4772,9.2944,9.1463,0.0,0.0,0.0,0.0,0.0,0.0,0.0,0.0,0.0,0.0,0.0,0.0,0.0,0.0,0.0,0.0,9.0418,8.8802,8.8254,8.9256,8.8567,8.8116,8.8116,8.907,8.9563,8.9563,8.9563,9.0056,9.0911,8.999,9.0089,9.0944,9.0944,8.9859,8.8116,8.8116,8.8116,8.8116,8.8116,8.782,8.7393,8.7393,8.7064,8.667,8.667,8.667,8.667,8.667,8.667,8.667,8.667,8.667,8.667,8.667,8.667,8.667,8.667,8.667,8.667,8.667,8.667,8.667,8.667,8.667,8.667,8.667,8.667,8.667,8.667,8.667,8.667,8.667,8.667,8.667,8.667,8.667,8.667,8.667,8.667,8.667,8.667,8.667,8.667,8.667,8.667,8.667,8.667,8.667,8.667,8.667,8.667,8.667,8.667,8.667,8.667,8.667,8.667,8.667,6.8888,6.9819,7.1134,7.7815,7.9237,8.0037,8.3525,8.638,8.8532,8.9208,9.2312,9.4481,9.2674,9.1933,9.1532,0.0,0.0,0.0,0.0,0.0,0.0,0.0,0.0,0.0,0.0,0.0,0.0,0.0,0.0,8.9221,9.0185,8.8584,8.8074,8.9058,8.8366,8.7923,8.7923,8.84,8.8717,8.8717,8.8238,8.8511,8.9399,8.8478,8.8544,8.9399,8.9399,8.8346,8.667,8.667,8.667,8.667,8.667,8.667,8.667,8.667,8.667,8.667,8.667,8.667,8.667,8.667,8.667,8.667,8.667,8.667,8.667,8.667,8.667,8.667,8.667,8.667,8.667,8.667,8.667,8.667,8.667,8.667,8.667,8.667,8.667,8.667,8.667,8.667,8.667,8.667,8.667,8.667,8.667,8.667,8.667,8.667,8.667,8.667,8.667,8.667,8.667,8.667,8.667,8.667,8.667,8.667,8.667,8.667,8.667,8.667,8.667,8.667,8.667,8.667,8.667,8.667,6.9336,7.1791,7.478,8.1944,8.3567,8.4419,8.8477,8.9404,8.9797,9.1402,9.1999,9.2227,9.2227,9.3104,9.3899,9.3899,0.0,0.0,0.0,0.0,0.0,0.0,0.0,0.0,0.0,0.0,0.0,0.0,9.0436,9.0436,9.0436,9.0345,9.0345,9.0345,9.0254,9.0162,9.0162,8.9058,8.8567,8.8533,8.7364,8.6821,8.6821,8.6854,8.6746,8.6746,8.6821,8.6854,8.6637,8.6746,8.6746,8.667,8.667,8.667,8.667,8.667,8.667,8.667,8.667,8.667,8.667,8.667,8.667,8.667,8.667,8.667,8.667,8.667,8.667,8.667,8.667,8.667,8.667,8.667,8.667,8.667,8.667,8.667,8.667,8.667,8.667,8.667,8.667,8.667,8.667,8.667,8.667,8.667,8.667,8.667,8.667,8.667,8.667,8.667,8.667,8.667,8.667,8.667,8.667,8.667,8.667,8.667,8.667,8.667,8.667,8.667,8.667,8.667,8.667,8.667,8.667,8.667,7.5184,7.8549,8.1592,8.9221,8.9401,8.8512,9.19,9.183,9.1438,9.3007,9.3353,9.345,9.345,9.3714,9.3899,9.3899,9.3899,0.0,0.0,0.0,0.0,0.0,0.0,0.0,0.0,0.0,0.0,0.0,9.299,9.299,9.299,9.2109,9.1652,9.1652,9.0707,9.0162,9.0162,8.9883,8.9695,8.9695,8.9444,8.9252,8.9252,8.8366,8.7993,8.7993,8.8896,8.8265,8.6746,8.7645,8.7469,8.667,8.667,8.667,8.667,8.667,8.667,8.667,8.667,8.667,8.667,8.667,8.667,8.667,8.667,8.667,8.667,8.667,8.667,8.667,8.667,8.667,8.667,8.667,8.667,8.667,8.667,8.667,8.667,8.667,8.667,8.667,8.667,8.667,8.667,8.667,8.667,8.667,8.667,8.667,8.667,8.667,8.667,8.667,8.667,8.667,8.667,8.667,8.667,8.667,8.667,8.667,8.667,8.667,8.667,8.667,8.667,8.667,8.667,8.667,8.667,8.667,7.5348,7.995,8.4802,9.1259,9.1045,9.0046,9.3186,9.2722,9.2044,9.3578,9.3899,9.3899,9.3899,9.3899,9.3899,9.3899,9.3899,9.3899,0.0,0.0,0.0,0.0,0.0,0.0,0.0,0.0,0.0,0.0,9.3899,9.3899,9.3899,9.326,9.2911,9.2911,9.2157,9.1822,9.1822,9.1822,9.1532,9.1097,9.0436,9.0162,9.0162,8.9539,8.9252,8.9252,8.9883,8.8896,8.6746,8.8026,8.7716,8.667,8.667,8.667,8.667,8.667,8.667,8.667,8.667,8.667,8.667,8.667,8.667,8.667,8.667,8.667,8.667,8.667,8.667,8.667,8.667,8.667,8.667,8.667,8.667,8.667,8.667,8.667,8.667,8.667,8.667,8.667,8.667,8.667,8.667,8.667,8.667,8.667,8.667,8.667,8.667,8.667,8.667,8.667,8.667,8.667,8.667,8.667,8.667,8.667,8.667,8.667,8.667,8.667,8.667,8.667,8.667,8.667,8.667,8.667,8.667,8.667,7.3885,7.9201,8.5658,9.0403,9.0724,9.051,9.3043,9.2722,9.2294,9.3614,9.3899,9.3899,9.3899,9.3899,9.3899,9.3899,9.3899,9.3899,9.3899,9.3899,0.0,0.0,0.0,0.0,0.0,0.0,0.0,0.0,9.3899,9.3899,9.3899,9.3899,9.3899,9.3899,9.3899,9.3899,9.3899,9.3899,9.3373,9.2392,9.1238,9.0673,9.0673,9.0673,9.0617,9.0436,9.0617,8.9348,8.7291,8.8467,8.8197,8.7111,8.7037,8.6929,8.6929,8.6746,8.667,8.667,8.667,8.667,8.667,8.667,8.667,8.667,8.667,8.667,8.667,8.667,8.667,8.667,8.667,8.667,8.667,8.667,8.667,8.667,8.667,8.667,8.667,8.667,8.667,8.667,8.667,8.667,8.667,8.667,8.667,8.667,8.667,8.667,8.667,8.667,8.667,8.667,8.667,8.667,8.667,8.667,8.667,8.667,8.667,8.667,8.667,8.667,8.667,8.667,8.667,8.667,8.667,8.667,8.667,8.667,7.9201,8.2519,8.5658,9.0403,9.2365,9.29,9.2151,9.2758,9.3578,9.3828,9.3899,9.3899,9.3899,9.3899,9.3899,9.3899,9.3899,9.3899,9.3899,9.3899,9.3899,9.3899,0.0,0.0,0.0,0.0,0.0,0.0,0.0,9.3899,9.3899,9.3899,9.3899,9.3899,9.3899,9.3899,9.3899,9.3899,9.3825,9.3562,9.3373,9.326,9.326,9.326,9.2716,9.1822,9.2831,9.1906,8.9695,9.1009,9.0707,8.9539,8.8533,8.8095,8.7993,8.7004,8.667,8.667,8.667,8.667,8.667,8.667,8.667,8.667,8.667,8.667,8.667,8.667,8.667,8.667,8.667,8.667,8.667,8.667,8.667,8.667,8.667,8.667,8.667,8.667,8.667,8.667,8.667,8.667,8.667,8.667,8.667,8.667,8.667,8.667,8.667,8.667,8.667,8.667,8.667,8.667,8.667,8.667,8.667,8.667,8.667,8.667,8.667,8.667,8.667,8.667,8.667,8.667,8.667,8.667,8.667,8.667,7.7774,8.0913,8.3874,8.6158,8.8512,9.0688,9.2401,9.2758,9.2686,9.2686,9.2686,9.2936,9.3757,9.3899,9.3899,9.3899,9.3899,9.3899,9.3899,9.3899,9.3899,9.3899,9.3899,9.3899,9.3899,0.0,0.0,0.0,0.0,9.3899,9.3899,9.3899,9.3899,9.3899,9.3899,9.3899,9.3899,9.3899,9.3899,9.3899,9.3899,9.3899,9.3899,9.3899,9.326,9.2192,9.3373,9.2519,9.0345,9.1617,9.1359,9.0162,8.9635,8.9348,8.9252,8.8732,8.8567,8.8567,8.8567,8.8095,8.7645,8.7645,8.7218,8.667,8.667,8.667,8.667,8.667,8.667,8.667,8.667,8.667,8.667,8.667,8.667,8.667,8.667,8.667,8.667,8.667,8.667,8.667,8.667,8.667,8.667,8.667,8.667,8.667,8.667,8.667,8.667,8.667,8.667,8.667,8.667,8.667,8.667,8.667,8.667,8.667,8.667,8.667,8.667,8.667,8.667,8.667,8.667,8.667,8.667,8.667,8.667,8.667,7.5526,7.8666,8.2055,8.3411,8.4802,8.7049,9.1402,9.1473,9.0867,9.1866,9.1545,9.1652,9.3543,9.3364,9.3114,9.3792,9.3899,9.3899,9.3899,9.3899,9.3899,9.3899,9.3899,9.3899,9.3899,9.3899,9.3899,9.3899,9.3899,9.3899,9.3899,9.3899,9.3899,9.3899,9.3899,9.3899,9.3899,9.3899,9.3899,9.3899,9.3899,9.3899,9.3899,9.3899,9.3373,9.2555,9.345,9.2796,9.1063,9.2109,9.1906,9.0974,9.0707,9.0617,9.0617,9.0345,9.0162,9.0162,9.0162,8.9635,8.8798,8.8798,8.8163,8.7364,8.7111,8.7111,8.7037,8.6746,8.667,8.667,8.667,8.667,8.667,8.667,8.667,8.667,8.667,8.667,8.667,8.667,8.667,8.667,8.667,8.667,8.667,8.667,8.667,8.667,8.667,8.667,8.667,8.667,8.667,8.667,8.667,8.667,8.667,8.667,8.667,8.667,8.667,8.667,8.667,8.667,8.667,8.667,8.667,8.667,8.667,8.667,8.667,8.6472,7.6561,7.8701,8.1484,8.7157,8.5587,8.3518,8.68,8.7442,8.8548,9.2829,9.1438,9.0367,9.3364,9.1545,9.0581,9.3435,9.3899,9.3899,9.3899,9.3899,9.3899,9.3899,9.3899,9.3899,9.3899,9.3899,9.3899,9.3899,9.3899,9.3899,9.3899,9.3899,9.3899,9.3899,9.3899,9.3899,9.3899,9.3899,9.3899,9.3899,9.3899,9.3899,9.3899,9.3899,9.3825,9.3714,9.3825,9.3714,9.3526,9.3638,9.3638,9.345,9.2356,9.1941,9.1857,9.0617,9.0162,9.0162,9.0162,9.0162,9.0069,9.0069,8.9976,8.9695,8.8633,8.8265,8.8095,8.7037,8.667,8.667,8.667,8.667,8.667,8.667,8.667,8.667,8.667,8.667,8.667,8.667,8.667,8.667,8.667,8.667,8.667,8.667,8.667,8.667,8.667,8.667,8.667,8.667,8.667,8.667,8.667,8.667,8.667,8.667,8.667,8.667,8.667,8.667,8.667,8.667,8.667,8.667,8.667,8.667,8.667,8.667,8.667,8.5913,6.8676,7.1566,7.4848,7.7346,7.9415,8.1163,8.2412,8.2697,8.3767,8.7478,8.8013,8.762,8.6978,8.894,9.0439,8.9797,9.2044,9.3899,9.3899,9.3899,9.3899,9.3899,9.3899,9.3899,9.3899,9.3899,9.3899,9.3899,9.3899,9.3899,9.3899,9.3899,9.3899,9.3899,9.3899,9.3899,9.3899,9.3899,9.3899,9.3899,9.3899,9.3899,9.3899,9.3899,9.3899,9.3899,9.3899,9.3899,9.3899,9.3899,9.3899,9.3825,9.3373,9.3182,9.3104,9.26,9.2438,9.2438,9.2438,9.199,9.1272,9.0436,8.9695,8.8896,8.775,8.7397,8.7291,8.6854,8.667,8.667,8.667,8.667,8.667,8.667,8.667,8.667,8.667,8.667,8.667,8.667,8.667,8.667,8.667,8.667,8.667,8.667,8.667,8.667,8.667,8.667,8.667,8.667,8.667,8.667,8.667,8.667,8.667,8.667,8.667,8.5848,8.4039,8.3973,8.3973,8.3973,8.3973,8.3973,8.3973,8.3973,8.3973,8.3973,8.3973,8.3645,6.2683,6.5501,6.8783,7.021,7.3493,7.7132,7.995,7.9165,7.9183,8.4187,8.5535,8.5241,8.3298,8.5765,8.7727,8.6407,8.9368,9.2008,9.2437,9.2508,9.2686,9.315,9.3221,9.34,9.3864,9.3899,9.3899,9.3899,9.3899,9.3899,9.3899,9.3899,9.3899,9.3899,9.3899,9.3899,9.3899,9.3899,9.3899,9.3899,9.3899,9.3899,9.3899,9.3899,9.3899,9.3899,9.3899,9.3899,9.3899,9.3899,9.3899,9.3899,9.3899,9.3899,9.3899,9.3899,9.3899,9.3899,9.3899,9.3373,9.2473,9.1617,9.0707,8.9823,8.8667,8.8298,8.8197,8.782,8.7469,8.7218,8.7218,8.7218,8.7111,8.6746,8.667,8.667,8.667,8.667,8.667,8.667,8.6308,8.6143,8.6571,8.5913,8.5486,8.5913,8.5617,8.5322,8.5322,8.5322,8.5322,8.5322,8.5322,8.5322,8.5322,8.5322,8.5322,8.5322,8.5322,8.4401,8.2297,8.2198,8.2198,8.2198,8.2198,8.2198,8.2198,8.2198,8.2198,8.2198,8.2198,8.1968,6.1042,6.2219,6.4609,6.9354,6.9354,7.0582,8.0057,7.7381,7.5584,8.4752,8.4817,8.348,8.4394,8.2055,8.102,8.4053,8.5908,8.7513,8.9047,8.9261,8.9832,9.1438,9.1616,9.2222,9.3757,9.3899,9.3899,9.3899,9.3899,9.3899,9.3899,9.3899,9.3899,9.3899,9.3899,9.3899,9.3899,9.3899,9.3899,9.3899,9.3899,9.3899,9.3899,9.3899,9.3899,9.3899,9.3899,9.3899,9.3899,9.3899,9.3899,9.3899,9.3899,9.3899,9.3899,9.3899,9.3899,9.3899,9.3899,9.3899,9.3899,9.3899,9.3825,9.3638,9.2473,9.2109,9.1822,9.0527,8.9348,8.8467,8.8467,8.8467,8.8095,8.6929,8.667,8.667,8.667,8.667,8.667,8.667,8.5453,8.4894,8.6407,8.4204,8.2757,8.4204,8.3184,8.2231,8.2231,8.2231,8.2231,8.2231,8.2231,8.2231,8.2231,8.2231,8.2231,8.2231,8.2231,8.2231,8.2198,8.2198,8.2198,8.2198,8.2198,8.2198,8.2198,8.2198,8.2198,8.2198,8.2198,8.1475,5.7867,6.0578,6.4404,6.8578,6.7989,6.889,7.822,7.7951,7.7417,8.3697,8.139,7.8048,7.7378,8.0801,8.3722,8.365,8.6724,8.9194,8.9225,8.9226,8.9404,8.9904,8.9975,9.0153,9.0653,9.0688,9.0688,9.0688,9.0688,9.0688,9.0688,9.0688,9.1188,9.2294,9.1259,9.1224,9.2294,9.233,9.233,9.2294,9.1224,9.0688,9.0688,9.0688,9.0688,9.076,9.1866,9.233,9.2401,9.3471,9.3899,9.3899,9.3899,9.3899,9.3899,9.3899,9.3899,9.3899,9.3899,9.3899,9.3714,9.2911,9.2635,9.2473,9.1185,9.0797,9.0707,9.0345,8.9976,8.955,8.9374,8.7893,8.6225,8.5078,8.4847,8.4646,8.3822,8.3612,8.3612,8.3612,8.3217,8.3053,8.3513,8.2823,8.2362,8.2823,8.2494,8.2198,8.2198,8.2198,8.2198,8.2198,8.2198,8.2198,8.2198,8.2198,8.2198,8.2198,8.0357,7.9272,7.9272,7.9272,7.9272,7.9272,7.9272,7.9272,7.9272,7.9272,7.9272,7.9272,7.9272,7.9009,5.7422,6.0124,6.3669,6.7367,6.6406,6.6896,7.5992,7.4494,7.306,7.9593,7.7831,7.5191,7.5392,7.9451,8.2576,8.1941,8.5046,8.772,8.8184,8.8292,8.8509,8.9058,8.913,8.9217,8.9532,8.9604,8.9503,8.9226,8.9226,8.9226,8.9226,8.9226,8.969,9.0653,8.9725,8.969,9.0688,9.0688,9.0403,8.9832,8.9404,8.9226,8.9226,8.9226,8.9226,8.9261,9.026,9.0688,9.076,9.1723,9.2115,9.2115,9.2115,9.2115,9.2115,9.2115,9.2115,9.2222,9.2829,9.3043,9.293,9.2813,9.2831,9.2635,9.1787,9.1617,9.1617,9.1617,9.0855,8.9917,8.9094,8.7647,8.6006,8.4796,8.4553,8.4366,8.3637,8.3213,8.2847,8.2847,8.2045,8.1573,8.2099,8.131,8.0751,8.131,8.0949,8.0587,8.0587,8.0587,8.0587,8.0587,8.0587,8.0587,8.0587,8.0587,8.0587,8.0587,7.891,7.7891,7.7891,7.7891,7.7891,7.7891,7.7891,7.7891,7.7891,7.7891,7.7891,7.7891,7.7891,7.7891,5.8935,6.0594,6.2762,6.6136,6.5045,6.5388,7.3903,6.8848,6.4819,7.3685,7.4206,7.4002,7.6869,7.7626,7.8163,7.9368,8.1603,8.3907,8.6055,0.0,8.6678,8.8275,8.8458,8.8811,8.9616,8.9807,8.9663,8.9112,8.9043,8.9043,8.9043,8.9043,8.9115,8.9222,8.9045,8.8975,8.9082,8.9118,8.8191,8.6619,8.819,8.8868,8.8726,8.8833,8.8905,8.8905,8.8905,8.894,8.9047,8.9047,8.9119,8.9226,8.9226,8.9226,8.9226,8.9226,8.9226,8.944,9.0902,9.1402,9.1652,9.3079,9.3578,9.3578,9.3578,9.3578,9.3578,9.3578,9.1652,8.9278,8.7803,8.7347,8.6925,8.5695,8.5349,8.5315,8.5227,8.449,8.3718,8.3718,8.1813,8.0525,8.1844,7.9833,7.845,7.9732,7.8779,7.7891,7.7891,7.7891,7.7891,7.7891,7.7891,7.7891,7.7891,7.7891,7.7891,7.7891,7.7891,7.7891,7.7891,7.7891,7.7891,7.7891,7.7891,7.7891,7.7891,7.7891,7.7891,7.7891,7.7891,7.7858,5.7626,6.051,6.4066,6.7153,6.8293,7.0354,7.6576,7.2486,6.864,7.3323,7.0711,6.8554,7.1726,7.2358,7.409,7.9231,8.1586,8.2766,8.2793,8.1354,8.0891,8.2561,8.2762,8.3288,8.4713,8.6438,8.7477,8.7314,8.7314,8.7314,8.7314,8.7314,8.7842,8.9045,8.7335,8.6957,8.8184,8.7712,8.6315,8.4094,8.5622,8.5527,8.391,8.5087,8.5622,8.5622,8.5622,8.6336,8.7442,8.7442,8.8155,8.9226,8.9226,8.9226,8.9226,8.9226,8.9226,8.9261,8.9654,8.9761,8.9832,9.0189,9.0296,9.0296,9.0296,9.0296,9.0296,9.0296,8.9012,8.7516,8.7125,8.613,8.4995,8.3889,8.3544,8.3386,8.2506,8.2087,8.1916,8.1916,8.135,8.081,8.0243,7.9555,7.8975,7.8548,7.8121,7.7891,7.7891,7.7891,7.7891,7.7891,7.7891,7.7891,7.7891,7.7891,7.7891,7.7891,7.7891,7.7891,7.7891,7.7891,7.7891,7.7891,7.7891,7.7891,7.7891,7.7891,7.7891,7.7891,7.7891,7.7332,5.9294,6.2556,6.5487,6.5263,6.5842,6.7152,6.9878,6.7194,6.5042,6.835,6.7241,6.6776,7.0246,7.1537,7.3147,7.6355,7.8206,7.9465,8.0203,8.0584,8.0336,7.8967,0.0,8.3751,8.2012,8.5065,8.7037,8.6706,8.6656,8.6656,8.6656,8.6656,8.7059,8.7939,8.6729,8.6438,8.7312,8.6983,8.5574,8.3228,8.5162,8.4844,8.2759,8.4672,8.5574,8.5514,0.0,8.5499,8.6225,8.5901,8.63,8.7085,8.7085,8.7085,8.7085,8.7085,8.7085,8.7157,8.7906,8.8155,8.8262,8.8976,8.9226,8.9226,8.9226,8.9226,8.9226,8.9226,8.7585,8.5836,8.5836,8.5194,8.4381,8.3861,8.3719,8.354,8.2884,8.2427,8.2036,8.2036,8.1601,8.0905,7.9689,7.9509,7.912,7.8053,7.7891,7.7891,7.7891,7.7891,7.7891,7.7891,7.7891,7.7891,7.7891,7.7891,7.7891,7.7891,7.7581,7.7323,7.7323,7.7323,7.7323,7.7323,7.6906,7.6781,7.7323,7.6815,7.6631,7.6631,7.6631,7.5988,6.1397,6.4445,6.6318,6.3038,6.1916,6.1544,6.1368,5.9835,5.9316,6.2463,6.4163,6.6036,6.9265,7.1226,7.2159,7.1605,7.3094,7.5161,7.7664,8.0392,8.0665,7.6706,8.2416,8.497,8.0692,8.4402,8.6834,8.6264,8.6253,8.6327,8.6584,8.6584,8.6743,8.7,8.6904,8.6635,8.6253,8.6474,8.5446,8.3161,8.5638,8.5623,8.3397,8.5682,8.6656,8.6656,0.0,8.5307,8.5465,8.4589,8.4338,8.4552,8.4552,8.4552,8.4552,8.4552,8.4552,8.4731,8.6086,8.655,8.6764,8.8084,8.8512,8.8512,8.8512,8.8512,8.8512,8.8512,8.6586,8.4552,8.4552,8.4552,8.4552,8.4552,8.4374,8.4195,8.4195,8.3294,8.2544,8.2544,8.1765,8.0632,7.9506,7.9332,7.8925,7.79,7.7744,7.7649,7.749,7.7688,7.7757,7.7692,7.7954,7.8051,7.7853,7.798,7.8108,7.8108,7.7399,7.6849,7.6609,7.6609,7.6609,7.6609,7.5686,7.5686,7.6609,7.5519,7.5045,7.5045,7.4907,7.426,5.9492,6.2005,6.4608,6.4981,6.3347,6.1929,6.3213,6.1134,5.9504,6.147,6.2067,6.2428,6.2976,6.4384,6.5443,6.5327,6.794,7.1067,7.4179,7.4691,7.494,7.5501,7.676,0.0,8.0138,8.2739,8.4328,8.4222,8.4222,8.4819,8.6124,8.6199,8.6833,8.8288,8.7786,8.6446,8.4259,8.5565,8.5084,8.2895,8.6008,8.6257,8.4063,8.5886,8.6656,8.6583,8.4471,0.0,8.5393,8.3406,8.3339,8.4552,8.4552,8.4552,8.4552,8.4552,8.4552,8.4588,8.4802,8.4909,8.4945,8.5194,8.5266,8.5266,8.5266,8.5266,8.5266,8.5266,8.4909,8.4552,8.4552,8.4552,8.4552,8.4552,8.3553,8.259,8.259,8.1389,8.0333,8.0333,8.0232,7.9759,7.8559,7.8338,7.8003,7.6974,7.6811,7.6482,7.5578,7.6474,7.6948,7.6178,7.7988,7.8675,7.7379,7.8213,7.8722,7.8722,7.8643,7.7948,7.6643,7.6609,7.6609,7.6609,7.645,7.645,7.6609,7.5519,7.5045,7.5045,7.4247,7.3142,5.9097,5.8895,5.9044,6.0391,5.9808,5.9299,6.0981,6.0159,5.9598,6.128,6.1617,6.1879,6.2738,6.3449,6.4234,6.5169,6.7412,6.9842,7.2198,7.4592,7.5431,7.343,7.7224,7.953,0.0,8.1599,8.3788,8.3788,8.3788,8.4088,8.4798,8.4835,8.5209,8.5957,8.5714,8.5005,8.3788,8.4499,8.37,8.1473,8.4266,8.3735,8.0478,8.3677,8.4946,8.4613,8.341,8.4321,8.6523,8.4216,8.4009,8.5086,8.5086,8.4905,8.4552,8.4552,8.4552,8.4552,8.4552,8.4552,8.4552,8.4552,8.4552,8.4552,8.4552,8.3375,8.2019,8.2019,8.2019,8.2019,8.2019,8.2019,8.2019,8.2019,8.1484,8.0985,8.0985,8.0414,7.9914,7.9914,7.9914,7.9521,7.8324,7.8183,7.7788,7.6765,7.7295,7.7684,7.7158,7.8452,7.9234,7.8832,7.9758,8.0206,7.9439,8.0196,8.0361,7.9481,7.9411,7.871,7.7131,7.7131,7.671,7.5869,7.531,7.5275,7.5869,7.4808,7.4329,7.4254,7.3828,7.305,5.7189,0.0,5.471,5.666,5.7467,5.8102,0.0,5.9388,5.9463,6.0757,6.1355,6.1879,6.2664,6.315,6.3711,6.4608,6.6477,6.8235,6.9431,7.3207,7.4703,7.1712,7.732,8.0274,7.7208,8.0386,8.2592,8.2592,8.2592,8.2779,8.3153,8.319,8.3377,8.3751,8.3003,8.2592,8.2592,8.2966,8.2279,8.0511,8.2727,8.1771,7.8263,8.2064,8.3324,8.2592,8.2624,8.4061,8.6321,8.4403,8.4027,8.4631,8.4631,8.4321,8.3883,8.3883,8.3793,8.3701,8.3701,8.3607,8.3446,8.3446,8.3446,8.3446,8.3446,8.1805,7.9914,7.9914,7.9914,7.9914,7.9914,7.9914,7.9914,7.9914,7.9629,7.9379,7.9379,7.9058,7.8808,7.8808,7.8808,7.8484,7.7616,7.7444,7.7202,7.6412,7.7269,7.8135,7.8215,7.9597,8.0553,8.077,8.1312,8.1543,8.1082,8.1775,8.1734,8.0521,8.0093,7.9379,7.8166,7.7738,7.6989,7.5812,7.4272,7.4059,7.5241,7.4158,7.3659,7.3694,7.3458,7.2976,0.0,5.2033,5.5011,5.8099,6.0112,6.128,6.1392,6.0233,0.0,5.9238,6.0533,6.1168,5.971,6.0719,6.1318,5.986,6.2252,6.4346,6.4458,6.6141,6.8347,7.1039,7.3245,7.56,7.8292,7.8853,7.9077,7.9077,7.9077,7.975,8.1358,8.1433,8.2143,8.3714,8.0723,7.9077,7.9077,8.0648,8.1327,8.122,8.2934,8.2784,8.1001,8.2934,8.2896,0.0,8.2257,8.2727,8.2909,8.215,8.1853,8.1913,8.1913,8.1913,8.1864,8.1864,8.1524,8.1139,8.1139,8.0745,8.0235,8.0235,8.0235,8.0235,8.0235,8.0093,7.9914,7.9914,7.9914,7.9914,7.9914,7.9914,7.9914,7.9914,7.8773,7.7738,7.7738,7.6596,7.5562,7.5562,7.5562,7.5562,7.5405,7.5405,7.5405,7.5345,7.5451,7.5637,7.6148,7.7446,7.8586,7.9241,8.1436,8.2208,8.0668,8.1523,8.2198,8.2055,8.0699,7.9843,7.9772,7.8345,7.7488,7.7381,7.4432,7.3684,7.5241,7.4158,7.3659,7.3659,7.2835,7.2331,4.9838,5.3123,5.7594,5.8989,5.9774,6.0417,6.1507,6.0389,5.9089,5.9089,5.9598,5.986,5.9201,5.9635,6.0495,6.1879,6.315,6.5093,6.8338,6.9337,7.1019,7.4461,7.6193,7.7613,7.8852,7.7951,7.7657,7.8629,7.7806,7.7956,7.9601,7.9676,7.9975,8.061,7.9377,7.8704,7.8704,7.9377,7.9676,7.9676,8.0311,7.9587,7.7824,7.9769,8.011,7.9241,7.9906,8.0797,0.0,8.1514,8.1132,8.0873,8.1875,8.2022,8.1633,8.1633,8.1535,8.1369,8.1369,8.1161,8.0982,8.0982,8.0778,8.0504,8.0504,7.9348,7.7955,7.7556,7.7206,7.7025,7.7025,7.7025,7.7025,7.7025,7.6525,7.6097,7.6097,7.5633,7.5241,7.5241,7.5241,7.5241,7.5241,7.5241,7.5241,7.5241,7.6061,7.708,7.8255,7.9749,8.1136,8.2339,8.3401,8.2903,8.0351,8.0541,8.0771,8.0771,8.0235,7.9486,7.8487,7.7881,7.7096,7.6133,7.3956,7.3172,7.3742,7.2415,7.1703,7.1703,7.1363,7.1239,5.4984,5.8878,6.2412,6.2579,6.2204,6.1765,6.1863,6.0903,5.9722,5.8632,5.8839,5.9214,5.9214,5.9214,6.0115,6.2877,6.3344,6.4758,6.8864,6.9448,7.0557,7.3496,7.5158,7.6461,7.7554,7.7457,7.7751,7.884,7.7939,7.7775,7.8794,7.8841,7.8634,7.8176,7.8652,7.8915,7.8915,7.8886,7.8841,7.8841,7.8763,7.7721,7.5895,7.7864,7.8281,7.7495,7.835,7.9077,7.975,8.0236,7.9895,7.921,8.0771,8.1097,8.0731,8.0731,8.0601,8.046,8.046,8.0368,8.0144,8.0144,7.9937,7.9601,7.9601,7.8391,7.6884,7.6421,7.5915,7.5428,7.5265,7.5241,7.5241,7.5241,7.5241,7.5098,7.4599,7.4492,7.4349,7.3849,7.3742,7.3742,7.3742,7.417,7.4492,7.4492,7.5812,7.7381,7.8951,8.0093,8.1341,8.2911,8.3089,8.2233,8.0093,7.945,7.9379,7.9879,7.945,7.8915,7.8309,7.7809,7.706,7.599,7.3921,7.2908,7.2908,7.1316,7.0567,7.0567,7.0567,7.0567,6.7571,6.9402,6.9415,6.9377,6.8204,6.6162,6.2771,6.1989,6.1017,5.7655,5.8309,5.9455,5.9455,5.9455,6.0022,6.1698,6.1989,6.2632,6.4331,6.4535,6.5216,6.6893,6.8469,7.0739,7.4106,7.7344,7.9235,7.9235,7.9235,0.0,7.9083,7.9083,7.8401,7.7012,7.8464,7.9273,7.9273,7.9137,7.9083,7.9121,7.8831,7.7911,7.6489,7.8023,7.7911,7.6527,7.8031,7.7806,0.0,7.8068,7.7769,7.6535,7.8105,7.8704,7.8704,7.8704,7.8412,7.7949,7.7949,7.7562,7.7019,7.7019,7.6974,7.6974,7.6974,7.7019,7.6974,7.6974,7.6518,7.5896,7.5369,7.5205,7.5169,7.5169,7.5205,7.4741,7.3172,7.285,7.2387,7.0853,7.0567,7.0567,7.0567,7.1852,7.2908,7.2944,7.4242,7.5812,7.7346,7.756,7.8166,7.9736,7.9879,7.9879,7.9879,7.8452,7.8202,7.9772,7.838,7.8202,7.9807,7.8345,7.7524,7.7524,7.4456,7.2908,7.2908,7.1281,7.0531,7.0531,7.0496,7.0496,6.9245,6.9809,6.9415,6.7859,6.7337,6.6311,6.2929,6.1156,5.9606,5.739,5.7352,5.7692,5.7692,5.8687,5.9644,6.0136,6.1232,6.3066,6.6045,6.647,6.7552,7.0554,7.1317,7.1901,7.2739,7.3668,7.4193,7.4138,7.41,7.4615,7.578,7.5921,7.5735,7.5197,7.5651,7.5877,7.5877,7.5851,7.6421,7.761,7.7537,7.7838,7.8461,7.8811,7.8752,7.8314,7.8597,7.7171,0.0,7.7582,7.7096,7.489,7.7657,7.8704,7.8704,7.8704,7.8642,7.8478,7.8478,7.8375,7.8199,7.8199,7.795,7.7721,7.8131,7.8199,7.813,7.7797,7.6672,7.5461,7.483,7.3873,7.2928,7.2597,7.2492,7.2225,7.1429,7.1245,7.1102,7.0639,7.0567,7.0888,7.1994,7.2565,7.3243,7.4384,7.4955,7.5812,7.7346,7.756,7.8166,7.9736,7.7952,7.6632,7.6632,7.6204,7.6133,7.6596,7.6168,7.6133,7.6596,7.6168,7.5919,7.5919,7.3921,7.2908,7.2908,7.0139,6.8783,6.8783,6.7642,6.7142,6.6728,6.7347,6.7123,6.6212,6.6132,6.5434,6.2094,6.0508,5.9221,5.7546,5.6629,5.6788,5.8835,5.9486,6.0131,6.1458,6.1996,6.3191,6.5924,6.6307,6.7379,7.016,7.0502,7.0955,7.2144,7.1688,7.1782,7.308,7.3165,7.3013,7.2701,7.3369,7.3754,7.3686,7.4331,7.4672,7.4672,7.4572,7.5041,7.6025,7.5997,7.6482,7.7352,7.7291,7.7252,7.7252,7.7081,7.5848,0.0,7.677,7.6687,7.5114,7.7694,7.8704,7.8704,7.8704,7.8704,7.8704,7.8704,7.8704,7.8704,7.8704,7.7652,7.6375,7.67,7.6759,7.673,7.6409,7.5388,7.4318,7.3937,7.2988,7.1984,7.1416,7.1189,7.0735,6.9785,6.9568,6.939,6.8748,6.8605,6.9104,7.071,7.1495,7.2494,7.4063,7.4813,7.5562,7.6489,7.6632,7.6989,7.7952,7.5241,7.335,7.335,7.335,7.335,7.335,7.335,7.335,7.335,7.335,7.335,7.335,7.2422,7.1602,7.096,6.8997,6.7374,6.6126,6.5216,6.4788,6.1694,6.3213,6.3592,6.4466,6.4845,6.4048,6.0593,5.9834,5.9302,5.7442,5.5999,5.6379,6.0859,6.0783,6.1011,6.3971,6.3516,6.3326,6.4921,6.5148,6.5718,6.7275,6.7465,6.8642,7.1755,7.0654,7.1034,7.4109,7.4337,7.3046,7.0122,7.1451,7.2287,7.2287,7.3767,7.4564,7.4564,7.4345,7.4304,7.4456,7.4333,7.437,7.4522,7.447,7.4455,7.4455,7.4441,7.4252,0.0,7.5696,7.6248,7.6163,7.7736,7.8306,7.8314,7.8314,7.8285,7.8255,7.8255,7.8255,7.8255,7.8255,7.6273,7.388,7.388,7.388,7.388,7.388,7.3312,7.2758,7.2758,7.2282,7.1719,7.1219,7.0706,6.9912,6.8302,6.7927,6.7481,6.6248,6.5946,6.6464,6.8213,6.9782,7.1245,7.2694,7.4099,7.4955,7.4813,7.4813,7.4813,7.4813,7.2244,7.0567,7.0567,7.0567,7.0567,7.0567,7.0567,7.0567,7.0567,7.0567,7.0567,7.0567,7.0567,6.9818,6.8265,6.8087,6.6483,6.361,6.3432,6.3325,6.0441,6.2036,6.3327,6.3137,6.401,6.3706,5.915,5.8087,5.7214,5.4177,5.4329,5.4936,5.4708,5.7632,6.0211,6.0746,6.2747,6.4839,6.6508,6.6736,6.6906,6.7389,6.7465,6.7731,6.8452,6.8224,6.83,6.9022,6.9097,6.9283,6.9819,7.0268,7.054,7.054,7.0882,7.1072,7.1072,7.0994,7.1637,7.2966,7.2921,7.3601,7.4888,7.4714,7.4596,7.4587,7.4498,7.3692,7.2527,7.4211,7.4101,7.3047,7.4707,7.5232,7.5056,7.5056,7.5022,7.4927,7.4927,7.4927,7.4927,7.4927,7.4441,7.388,7.388,7.388,7.388,7.388,7.2814,7.1682,7.1682,7.069,6.9638,6.9508,6.9102,6.8512,6.774,6.7195,6.7076,6.8135,6.7902,6.8498,7.1352,7.2137,7.2551,7.2872,7.3172,7.2922,7.1709,7.153,7.153,7.153,7.096,7.0567,7.0567,7.0567,7.0567,7.0567,7.0567,7.0567,7.0567,7.0567,7.0567,7.0567,7.0567,7.0389,7.0032,6.8712,6.7053,6.518,6.3967,6.2718,5.8944,6.011,6.1451,6.1186,6.1717,6.1641,5.9056,5.7842,5.6791,5.5145,5.4885,5.5113,5.5796,5.8112,6.0337,6.1789,6.3485,6.4678,6.4802,6.6173,6.6902,6.6227,6.6817,6.7552,6.8317,6.7704,6.7552,6.8317,6.8496,6.8866,6.9565,6.9655,6.9721,6.9721,6.9829,6.9878,6.9878,6.9931,7.0426,7.1299,7.1299,7.1755,7.259,7.2465,7.2414,7.2414,7.2332,7.2199,7.2061,7.297,7.3224,7.3216,7.4085,7.4362,7.4274,7.4274,7.4177,7.4125,7.3984,7.3972,7.3697,7.2185,7.1723,7.1718,7.1657,7.1609,7.1622,7.1579,7.0889,7.0216,7.0216,6.9618,6.8966,6.8722,6.8436,6.8103,6.7557,6.7161,6.7169,6.8079,6.7724,6.8076,7.0591,7.0753,7.0817,7.1637,7.1744,7.1459,7.0639,6.9688,6.8929,6.863,6.8579,6.8512,6.8267,6.8213,6.8213,6.8213,6.8213,6.8213,6.8213,6.8213,6.8213,6.8213,6.8213,6.8213,6.8213,6.7356,6.6108,6.4574,6.2968,6.1827,5.8328,5.8817,5.9493,5.9493,5.9493,5.9417,5.9103,5.7969,5.6932,5.6888,5.6219,5.6257,5.8425,5.9266,6.0707,6.3931,6.4244,6.3918,6.3475,6.5481,6.6527,6.5263,6.6284,6.7687,6.9251,6.8229,6.7989,6.9288,6.8798,6.8315,6.8089,6.8394,6.8709,6.8999,6.9452,6.9723,6.9723,6.9829,6.9887,6.9887,6.9929,6.993,6.9931,6.997,6.9819,6.9553,6.9857,0.0,7.1352,7.1624,7.252,7.3653,7.3653,7.3641,7.3652,7.3652,7.3624,7.3541,7.3331,7.3253,7.2803,7.0215,6.9402,6.9375,6.9277,6.9242,6.9204,6.9119,6.9074,6.9061,6.9061,6.8784,6.8453,6.8021,6.7704,6.7385,6.6934,6.7082,6.7413,6.7926,6.7479,6.7594,6.9263,6.9119,6.9105,7.027,7.0449,7.0341,7.009,6.8438,6.7036,6.6423,6.6329,6.6175,6.5732,6.5715,6.5715,6.5715,6.5715,6.5715,6.5715,6.5715,6.5715,6.5715,6.5715,6.5715,6.5715,6.5715,6.4895,6.3361,6.2041,6.1149,6.0709,6.0438,5.9493,5.9493,5.9493,5.9103,5.7617,5.7125,5.6596,5.5246,5.7061,5.812,5.5748,5.7612,6.0516,6.3669,6.3066,6.3611,6.7716,6.7359,6.6733,6.6754,6.6943,6.7687,6.9251,6.9213,6.9175,6.9364,6.5443,6.2973,6.2812,6.4429,6.5966,6.7347,6.8709,6.944,6.944,6.9464,6.9475,6.9475,6.9693,6.9803,6.9809,6.9929,6.9173,6.7845,6.9325,6.9249,6.8185,6.9665,7.0386,7.0572,7.0572,7.0512,7.0406,7.0406,7.0265,7.0045,7.0017,7.0003,6.9942,6.9553,6.9402,6.9402,6.9375,6.9375,6.9361,6.9369,6.9259,6.916,6.916,6.8008,6.6776,6.6724,6.5578,6.4495,6.4442,6.5562,6.7315,6.9689,6.9692,6.984,7.1443,7.1611,7.1165,7.0084,6.9901,6.939,6.8038,6.7118,6.6376,6.585,6.5835,6.5783,6.568,6.5715,6.5715,6.5715,6.5715,6.5715,6.5715,6.5715,6.5715,6.5715,6.5715,6.5715,6.5715,6.5715,6.4895,6.3396,6.3182,6.1612,5.785,5.9167,6.0473,5.9495,5.927,5.9082,5.8312,5.8161,5.7707,5.6147,5.7737,5.8642,5.6252,5.6997,5.9011,6.2193,6.056,6.0341,6.4479,6.3553,6.2839,6.3997,6.4063,6.4629,6.6172,6.6322,6.5983,6.51,6.382,6.3085,6.3002,6.3839,6.4608,6.5288,6.5983,6.6398,6.6536,6.756,6.8507,6.9402,6.9513,6.9583,6.9583,6.9639,6.931,6.8808,6.9571,6.9507,6.8946,6.9667,6.9971,6.9971,6.9971,6.993,6.9919,6.9919,6.9829,6.9727,6.9631,6.9647,6.9733,6.9733,6.9733,6.9531,6.8485,6.8201,6.7993,6.6956,6.6634,6.6557,6.6557,6.6,6.5363,6.5184,6.4578,6.4047,6.3959,6.5281,6.6837,6.8052,6.8612,6.9109,6.9846,6.9687,6.9269,6.8573,6.8503,6.8442,6.8349,6.8063,6.7708,6.7166,6.7124,6.7036,6.6723,6.6678,6.6505,6.6175,6.6126,6.6015,6.5715,6.5965,6.6126,6.6126,6.6505,6.6678,6.6678,6.6678,6.6316,6.5671,6.4692,6.3537,5.574,5.7852,6.0098,5.9106,5.9005,5.9089,5.9089,5.9089,5.8783,5.7581,5.8689,5.9308,5.7485,5.7167,5.8231,6.1544,5.9218,5.8401,6.2426,6.1454,6.0676,6.1657,6.1679,6.1916,6.2664,6.3112,6.249,6.0338,6.1307,6.2028,6.2065,6.251,6.2959,6.3337,6.3748,6.4054,6.4252,6.5565,6.6853,6.8024,6.807,6.8099,6.8137,6.8594,6.868,6.8502,6.9336,6.9525,6.9271,6.965,6.9846,6.9929,6.9929,6.9931,6.9971,6.9971,6.9971,6.9857,6.8818,6.8563,6.8639,6.868,6.868,6.8451,6.7096,6.6665,6.6389,6.5019,6.4618,6.4596,6.4596,6.4258,6.3815,6.3625,6.3255,6.3011,6.335,6.4694,6.5954,6.6403,6.753,6.8436,6.8436,6.8137,6.7855,6.7855,6.7855,6.8066,6.8722,6.878,6.8596,6.8103,6.8032,6.7891,6.7479,6.744,6.7243,6.6784,6.6606,6.6282,6.5901,6.6235,6.6479,6.6479,6.7119,6.744,6.744,6.744,6.744,6.7403,6.6158,6.5352,5.7045,5.7455,5.7063,5.8118,5.8721,5.9089,5.9089,5.9089,5.9074,5.9,6.0331,6.0835,5.8638,5.8221,5.9362,6.2701,6.0409,6.0104,6.5505,6.4782,6.3187,6.179,6.1617,6.1019,5.9463,6.0794,6.0226,5.6542,5.6474,5.6675,5.6943,5.8594,6.0208,6.1692,6.3187,6.3935,6.3959,6.4058,6.4133,6.4208,6.4477,6.4608,6.4663,6.6399,6.6313,6.4989,6.8053,6.8583,6.7334,6.8822,6.9556,6.9797,6.9797,6.9875,6.9971,6.9971,6.9971,6.9477,6.6151,6.4995,6.5038,6.5147,6.5187,6.5149,6.5073,6.5035,6.5035,6.4921,6.4823,6.4726,6.4726,6.3438,6.2116,6.2116,6.0822,5.9962,6.16,6.3056,6.4571,6.6141,6.7797,6.8966,6.8966,6.8966,6.8901,6.8901,6.8901,6.8751,6.8303,6.8271,6.8066,6.7518,6.7479,6.7479,6.744,6.744,6.744,6.74,6.6827,6.6479,6.6433,6.6433,6.6479,6.6479,6.7119,6.744,6.744,6.744,6.744,6.744,6.7366,6.6488,5.4449,5.583,5.7576,5.696,5.7515,5.8241,5.8241,5.8241,5.8241,5.8241,5.8721,5.8876,5.8062,5.7036,5.7068,5.9383,5.6962,5.6251,6.0274,5.85,5.7391,5.8943,5.7479,5.6866,5.8123,5.7798,5.6519,5.4152,5.5943,5.7251,5.7317,5.7951,5.8544,5.9091,5.9676,5.9972,5.9972,6.1044,6.1714,6.1981,6.3422,6.4084,6.4122,6.4755,6.4818,6.4482,6.5652,6.5879,6.5481,6.6022,6.6322,6.6402,6.6402,6.643,6.647,6.647,6.647,6.6311,6.5019,6.4631,6.4593,6.4673,6.4681,6.4491,6.3392,6.3121,6.2925,6.1863,6.1656,6.1723,6.1723,6.1256,6.0741,6.0534,6.0,5.999,6.1586,6.3199,6.4797,6.6299,6.7985,6.9119,6.9009,6.8993,6.8993,6.8993,6.8993,6.8966,6.8751,6.8722,6.8656,6.8467,6.8436,6.8436,6.8436,6.8436,6.8303,6.7962,6.7708,6.7481,6.7119,6.7442,6.7634,6.7634,6.8168,6.8436,6.8436,6.8436,6.8436,6.8436,6.8436,6.8133,5.5008,5.547,5.6692,5.6436,5.6646,5.7098,5.7648,5.7724,5.7724,5.7724,5.7724,5.769,5.7587,5.6604,5.6239,5.7369,5.5728,5.5105,5.7431,5.5859,5.509,5.6698,5.5196,5.4373,5.5228,5.5136,5.4815,5.4375,5.631,5.7623,5.7724,5.7724,5.7724,5.7724,5.7724,5.7724,5.7724,5.8822,5.9542,5.983,6.1209,6.1842,6.1879,6.261,6.3013,6.3206,6.3928,6.4253,6.4353,6.4353,6.44,6.4471,6.4471,6.451,6.4521,6.4521,6.365,6.2478,6.2692,6.2771,6.2771,6.2821,6.2844,6.2617,6.1509,6.1194,6.1064,5.9927,5.9739,5.9889,5.9939,5.9941,5.9908,5.982,6.0177,6.094,6.2576,6.4229,6.5821,6.7312,6.8485,6.9223,6.9095,6.9061,6.9074,6.902,6.8993,6.9061,6.9127,6.9095,6.9074,6.902,6.8993,6.8993,6.8993,6.8993,6.8612,6.7717,6.745,6.6994,6.6051,6.6368,6.6538,6.6538,6.7036,6.7337,6.7337,6.7337,6.7599,6.816,6.816,6.8459,5.8886,5.6521,5.437,5.6641,5.6386,5.5961,5.7471,5.7837,5.78,5.769,5.769,5.7551,5.7176,5.7098,5.7061,5.7098,5.7098,5.7181,5.7621,5.769,5.7104,5.5423,5.52,5.4027,5.0957,5.308,5.5358,5.6953,5.7098,5.7294,5.7656,5.769,5.769,5.769,5.769,5.769,5.769,5.769,5.769,5.7724,5.7724,5.7724,5.7795,5.983,6.0751,6.0854,6.2935,6.3835,6.3835,6.391,6.4062,6.4309,6.4253,6.4293,6.4422,6.4447,6.1864,5.8434,5.908,5.9305,5.9301,5.9419,5.9469,5.9469,5.9469,5.9481,5.9481,5.9481,5.9481,5.9488,5.9638,5.9663,5.9755,6.0059,6.1189,6.2709,6.4436,6.5995,6.7536,6.9112,6.9415,6.9361,6.9242,6.9184,6.9177,6.9061,6.9046,6.9081,6.9361,6.9274,6.9156,6.896,6.887,6.887,6.887,6.887,6.816,6.6477,6.5925,6.4902,6.3277,6.3166,6.3166,6.3166,6.3718,6.3935,6.3935,6.3935,6.4795,6.6403,6.6403,6.73,5.456,5.6168,5.7877,5.8545,5.9096,5.9614,6.0046,6.0154,5.9507,5.7198,5.673,5.6724,5.6632,5.5622,5.527,5.6409,5.5622,5.5312,5.6587,5.673,5.6551,5.6119,5.5322,5.4313,5.3175,5.4768,5.5622,5.4947,5.5944,5.6596,5.673,5.673,5.673,5.673,5.673,5.673,5.673,5.673,5.6937,5.7294,5.7294,5.7443,5.7758,5.8332,5.8586,5.8692,6.041,6.1143,6.1217,6.2327,6.3098,6.3339,6.1826,6.1488,6.1955,6.2714,6.153,5.9615,5.9768,5.9288,5.8598,5.8621,5.8917,5.9213,5.9213,5.9287,5.9344,5.9344,5.9393,5.9504,5.9498,5.9546,5.9886,6.1272,6.1904,6.3018,6.6058,6.7037,6.7813,6.9382,6.9669,6.9594,6.9361,6.9331,6.9339,6.9291,6.9274,6.9323,6.9388,6.9361,6.8838,6.7485,6.622,6.5457,6.5381,6.5356,6.5131,6.4683,6.4506,6.4229,6.3745,6.3745,6.3745,6.3745,6.3885,6.3935,6.3935,6.3935,6.4197,6.4645,6.4645,6.558,5.5114,5.5005,5.55,5.5981,5.6624,5.7117,5.7117,5.8152,5.8402,5.5904,5.594,5.6359,5.6359,5.5655,5.5298,5.6216,5.5619,5.5369,5.6216,5.6359,5.6359,5.6359,5.5262,5.4396,5.4139,5.4936,5.5111,5.4197,5.4971,5.5463,5.5463,5.5463,5.5463,5.5463,5.5463,5.5463,5.5463,5.5463,5.5622,5.5928,5.5928,5.6207,5.668,5.668,5.7318,5.8574,6.0292,6.1024,6.1133,6.2049,6.2562,6.2732,6.1535,6.1238,6.1479,6.1242,6.0615,5.9741,5.9267,5.8626,5.8107,5.8255,5.8553,5.8809,5.9028,5.9147,5.9214,5.9214,5.927,5.9312,5.9403,5.9907,6.0755,6.1856,6.3209,6.4779,6.6838,6.7893,6.8712,6.959,6.9808,6.9814,6.9603,6.9535,6.9328,6.8662,6.8552,6.8247,6.7538,6.7309,6.6821,6.5796,6.4721,6.4047,6.3959,6.3935,6.3673,6.3038,6.2963,6.2664,6.1953,6.1916,6.1916,6.1916,6.1916,6.1916,6.1916,6.1916,6.229,6.2963,6.2963,6.3486,5.7864,5.3552,5.0478,5.1888,5.223,5.223,0.0,5.4363,5.586,5.4121,5.487,5.5824,5.5824,5.5744,5.577,5.5948,5.5938,5.5928,5.6105,5.6141,5.6141,5.6141,5.4975,5.4228,5.4228,5.4228,5.4228,5.4228,5.4228,5.4228,5.4228,5.4228,5.4214,5.4062,5.418,5.418,5.4062,5.418,5.4228,5.4228,5.44,5.4693,5.5093,5.5443,5.6911,5.9397,6.1294,6.226,6.2518,6.2701,6.2813,6.2815,6.2593,6.2409,6.2041,6.0292,5.9547,5.9269,5.8209,5.7767,5.7724,5.8076,5.8255,5.8397,5.8858,5.8902,5.8835,5.8835,5.8708,5.8681,5.8931,6.0263,6.1653,6.2139,6.4711,6.7093,6.7271,6.8599,6.9738,6.9783,6.9875,6.9932,6.9814,6.9803,6.9293,6.7692,6.718,6.6464,6.4958,6.4459,6.4191,6.4094,6.3853,6.3656,6.3422,6.3398,6.2813,6.143,6.1318,6.0682,5.9126,5.9089,5.9089,5.9089,5.9089,5.9089,5.9089,5.9089,5.9897,6.1318,6.1318,6.1341,0.0,0.0,0.0,0.0,0.0,0.0,0.0,5.5931,5.5583,5.2729,5.2408,5.2622,5.2622,5.2086,5.2122,5.3318,5.3126,5.3222,5.4488,5.4661,5.4661,5.4661,5.4392,5.4228,5.4228,5.4228,5.4228,5.4228,5.4228,5.4228,5.4228,5.4228,5.3913,5.3141,5.3809,5.3878,5.3155,5.3843,5.4228,5.4228,5.5376,5.542,5.4516,5.682,5.7915,5.8002,5.9642,6.1414,6.3275,6.453,6.5286,6.5518,6.3824,6.2414,6.123,6.0886,5.9945,5.8835,5.8567,5.7942,5.7256,5.7332,5.7825,5.8341,5.8434,5.7885,5.7223,5.7223,5.6402,5.5776,5.6951,5.8497,6.0471,6.3231,6.5342,6.7165,6.8619,6.9201,6.9524,6.9738,6.9803,6.9833,6.9932,6.993,6.9362,6.7693,6.6249,6.526,6.4919,6.4835,6.4237,6.2778,6.2454,6.1788,6.0323,6.0105,5.9934,5.9575,5.9575,5.9425,5.9089,5.9089,5.9089,5.9089,5.9089,5.9089,5.9089,5.9089,5.9238,5.9575,5.9575,5.9683,0.0,0.0,0.0,0.0,0.0,0.0,0.0,0.0,0.0,0.0,0.0,5.173,5.173,0.0,5.2411,5.2836,5.325,5.3707,5.418,5.4228,5.3949,5.316,5.3073,5.3073,5.3073,5.3073,5.3073,5.3073,5.3073,5.3073,5.3073,5.2366,5.1766,5.1327,5.179,5.2104,5.2381,5.3591,5.4493,5.5267,5.6007,5.6193,5.585,5.7285,5.8365,5.9284,6.0494,6.1888,6.3312,6.383,6.3709,6.3218,6.293,6.2059,6.0876,5.9499,5.8881,5.8519,5.7098,5.6688,5.6808,5.7054,5.7443,5.7792,5.7951,5.7655,5.7256,5.7256,5.6876,5.6637,5.7332,5.9553,6.2043,6.3737,6.6042,6.8113,6.8993,6.9241,6.9323,6.945,6.954,6.9631,6.9833,6.9195,6.7796,6.5377,6.4314,6.3402,6.2444,6.229,6.1589,5.976,5.7908,5.7104,5.795,5.628,5.6293,5.8939,5.9089,5.9089,5.9089,5.9089,5.9089,5.9089,5.9089,5.9089,5.9089,5.9089,5.9141,5.9175,5.9252,5.9359,0.0,0.0,0.0,0.0,0.0,0.0,0.0,0.0,0.0,0.0,0.0,0.0,0.0,0.0,0.0,5.2295,5.3425,5.4227,5.3824,5.3744,5.3312,5.2078,5.1883,5.1883,5.1883,5.1883,5.1818,5.1686,5.1587,5.1521,5.1387,5.0246,4.9627,4.9651,5.0114,5.0867,5.2045,5.3693,5.5138,5.6393,0.0,0.0,5.7188,5.7456,5.8488,6.0016,6.1181,6.2014,6.2531,6.223,6.1586,6.0725,6.0778,6.086,6.0468,5.7838,5.7428,5.7948,5.5729,5.5605,5.6448,5.685,5.7054,5.7215,5.7516,5.7468,0.0,5.7275,5.7332,5.7405,5.7683,6.0466,6.3323,6.3722,6.641,6.8874,6.8993,6.8593,6.8411,6.9071,6.8816,6.8619,6.92,6.7311,6.4573,6.1124,6.0324,5.9405,5.7501,5.8108,5.8159,5.6667,5.4446,5.4233,5.7058,5.3679,5.3611,5.8804,5.8199,5.7691,5.7691,5.7691,5.7354,5.6756,5.6719,5.7227,5.8205,5.8205,5.8594,5.9275,5.7442,5.7272,0.0,0.0,0.0,0.0,0.0,0.0,0.0,0.0,0.0,0.0,0.0,0.0,0.0,0.0,0.0,0.0,5.0701,5.1474,5.2072,5.2207,5.211,5.1949,5.1883,5.1883,5.1883,5.1883,5.1554,5.0774,5.0705,5.0291,4.9395,4.9165,0.0,0.0,0.0,5.2495,5.2769,5.4986,5.6158,5.6355,5.7637,5.7644,5.6496,5.7782,5.7858,5.6967,5.9048,6.0098,6.0263,6.0914,6.1812,6.2377,5.7823,5.7644,5.9701,5.7325,5.6511,5.6618,5.627,0.0,0.0,5.6448,5.6802,5.7173,5.7176,5.6487,5.5691,5.5691,5.4798,5.4094,5.5423,5.8218,6.1136,6.299,6.5923,6.8436,6.8901,6.6747,6.5625,6.8599,6.6972,6.5606,6.7266,6.3444,5.8644,5.4125,5.2188,5.059,4.8878,5.257,5.5258,5.4928,5.7213,0.0,5.9129,5.4645,5.3961,5.8949,5.5028,5.2531,5.2531,5.2531,5.1185,4.8287,4.825,5.0455,5.494,5.494,5.6501,5.9231,5.0369,4.9432,0.0,0.0,0.0,0.0,0.0,0.0,0.0,0.0,0.0,0.0,0.0,0.0,0.0,0.0,0.0,0.0,5.0254,5.1407,5.1248,5.1226,5.1373,5.185,5.1883,5.1883,5.1883,5.1883,5.1554,5.0635,5.0565,5.011,4.9025,4.8204,4.7777,4.7816,4.8771,4.9681,5.0581,5.3056,5.4618,5.5502,5.6698,5.7374,5.7604,5.7374,5.7869,5.8863,5.9404,5.9944,6.0348,6.0275,6.1088,0.0,0.0,0.0,0.0,0.0,5.5329,5.5659,5.5442,5.5801,5.6359,5.6359,5.6501,5.6718,5.6718,5.6319,5.5946,5.5946,5.5766,5.5855,5.7403,5.9665,6.2179,6.4209,6.6496,6.8335,6.8901,6.7938,6.7375,6.8809,6.8038,0.0,6.5638,6.2922,5.9895,5.7022,5.5999,5.5315,5.4771,5.656,5.7471,5.6429,5.5691,5.608,5.8055,5.4328,0.0,0.0,0.0,5.6222,5.6222,5.6148,0.0,0.0,0.0,4.9264,5.1387,4.8406,0.0,0.0,4.797,4.7211,0.0,0.0,0.0,0.0,0.0,0.0,0.0,0.0,0.0,0.0,0.0,0.0,0.0,0.0,0.0,0.0,4.9701,5.0615,4.9862,5.0322,5.0754,5.0868,5.149,5.1653,5.1153,5.1387,5.1017,4.9791,4.9718,4.9248,4.8191,4.7424,4.7124,4.7448,4.8112,4.906,5.0401,5.2594,5.444,5.583,5.6592,5.7703,5.9051,5.7604,5.798,5.9644,5.9456,5.9486,5.9684,5.9456,6.0235,6.1101,5.7122,5.6251,5.7114,5.4753,5.4358,5.4883,5.479,5.5507,5.6359,5.6359,5.6359,5.6359,5.6359,5.6359,5.6359,5.6359,5.6675,5.7293,5.8879,6.0818,6.2929,6.4973,6.6812,6.8205,6.8874,6.8208,6.7771,6.8806,6.8661,6.7197,6.3425,6.1545,5.9697,5.7154,5.6804,5.6745,5.6493,5.7744,5.8161,5.6908,5.53,5.5324,5.7867,5.4379,5.4199,5.9205,5.8196,5.8021,5.9417,5.8054,5.7262,5.7322,5.1601,4.8862,0.0,0.0,0.0,0.0,0.0,0.0,0.0,0.0,0.0,0.0,0.0,0.0,0.0,0.0,0.0,0.0,0.0,0.0,0.0,0.0,0.0,0.0,0.0,0.0,4.7421,4.9308,5.014,4.8484,5.0441,5.1153,4.9248,5.0006,4.9718,4.7725,4.7567,4.712,4.6032,4.6899,4.7898,4.8889,5.1203,5.2946,5.3851,5.543,5.7013,5.8385,5.8459,5.9183,6.0531,5.9084,5.7997,5.7289,5.8228,5.8068,5.7322,5.819,5.9422,6.0409,5.7479,5.6748,5.695,5.4151,5.3571,5.4358,5.4972,5.5718,5.6359,5.6359,5.6359,5.6359,5.6359,5.6359,5.6359,5.6359,5.6404,5.6761,5.8295,6.0306,6.2385,6.4431,6.627,6.7782,6.878,6.6138,6.4629,6.8283,6.7783,6.5156,6.0134,5.7953,5.5243,5.0266,4.962,0.0,4.7645,5.1849,5.4949,5.4911,5.7855,5.9834,5.9986,5.5345,5.4527,5.936,5.4933,5.4357,5.9292,5.4747,5.2182,5.2316,4.9,4.8095,4.9735,0.0,0.0,0.0,0.0,0.0,0.0,0.0,0.0,0.0,0.0,0.0,0.0,0.0,0.0,0.0,0.0,0.0,0.0,0.0,0.0,0.0,0.0,0.0,0.0,4.9738,5.0042,5.0377,5.0442,4.9986,4.8578,4.9425,4.9222,4.7173,4.7899,4.7725,4.5948,4.6169,4.6552,4.6878,4.7781,4.8312,4.8678,4.984,5.1112,5.2514,5.3176,5.469,5.6928,5.6222,5.6779,5.8349,5.8434,5.8903,5.9519,5.9784,5.9643,5.9051,5.7111,5.5874,5.4921,5.3031,5.2769,5.3455,5.371,5.4592,5.5706,5.6233,5.6359,5.6359,5.6359,5.6359,5.6359,5.6359,5.6632,5.7252,5.8837,5.9722,6.1112,6.4612,6.5609,6.6345,6.8519,6.8021,6.7135,6.73,6.4382,6.0639,5.6683,5.7434,5.6885,5.1867,5.4007,5.6067,5.5696,5.7213,5.8312,5.8312,5.9378,6.0062,6.0062,5.8504,5.8198,5.9829,5.8134,5.7811,5.9541,5.7782,5.687,5.7007,5.5818,5.1125,4.2807,0.0,0.0,0.0,0.0,0.0,0.0,0.0,0.0,0.0,0.0,0.0,0.0,0.0,0.0,0.0,0.0,0.0,0.0,0.0,0.0,0.0,0.0,0.0,0.0,0.0,0.0,5.0213,5.0182,0.0,4.7874,4.835,4.7956,4.6236,4.691,4.6922,4.571,4.6033,4.6241,4.6388,4.6797,4.6959,4.6959,4.8006,4.9176,5.0593,5.2109,5.407,5.6293,5.6621,5.777,5.953,5.934,5.9807,6.0563,5.9511,5.8558,5.7539,5.5778,5.4524,5.3397,5.1798,5.1843,5.2732,5.3046,5.4071,5.5343,5.6105,5.5671,5.4762,5.4317,5.3826,5.3509,5.4125,5.4932,5.6131,5.8319,5.9377,6.095,6.4774,6.5447,6.5743,6.7689,6.7535,6.6578,6.5163,6.1493,5.7529,5.4007,5.5281,5.5208,5.0638,5.3936,5.7132,5.7775,5.9066,5.9898,5.9882,5.9896,5.9941,5.9941,5.9941,5.9941,5.9941,5.9676,5.9574,5.9616,5.9393,5.9027,5.8437,5.662,5.1304,0.0,0.0,0.0,0.0,0.0,0.0,0.0,0.0,0.0,0.0,0.0,0.0,0.0,0.0,0.0,0.0,0.0,0.0,0.0,0.0,0.0,0.0,0.0,0.0,0.0,0.0,0.0,4.8167,4.9544,0.0,0.0,0.0,0.0,4.4832,4.4701,4.4895,4.5255,4.6214,4.6914,4.7247,4.8344,4.8826,4.8826,4.9903,5.12,5.2641,5.4932,5.6836,5.8311,5.9722,6.0421,6.0454,6.0531,6.0531,6.03,5.7479,5.6228,5.5969,5.3781,5.2723,5.2392,5.0627,5.0707,5.1873,5.294,5.4057,5.5098,5.575,5.4123,5.1634,5.0445,4.9067,0.0,0.0,5.1526,5.3409,5.6586,5.8848,6.1188,6.4451,6.5304,6.5538,6.6089,6.462,6.2818,6.1724,5.8949,5.5487,5.1437,0.0,5.0,4.6081,4.9049,5.2231,5.347,5.7136,5.9624,5.9504,5.9609,5.9663,5.9663,5.9663,5.9663,5.9663,5.9419,5.9275,5.9369,5.9146,5.8066,5.616,5.145,0.0,0.0,0.0,0.0,0.0,0.0,0.0,0.0,0.0,0.0,0.0,0.0,0.0,0.0,0.0,0.0,0.0,0.0,0.0,0.0,0.0,0.0,0.0,0.0,0.0,0.0,4.8894,4.8865,4.8772,4.8995,4.8296,0.0,0.0,0.0,0.0,0.0,0.0,4.4905,4.5149,4.5303,4.5427,4.6672,4.7385,4.7385,4.8747,5.0042,5.1376,5.125,5.2278,5.4406,5.5924,5.7012,5.7821,5.8719,5.9051,5.8821,5.6383,5.4752,5.3714,5.3132,5.1294,4.9063,4.9706,4.9601,4.937,5.0784,5.1685,5.1996,5.1066,4.9752,4.8368,4.6892,0.0,0.0,0.0,0.0,5.0283,5.2271,5.3201,5.4514,5.8075,5.9741,6.0934,6.2669,6.1611,5.9179,5.524,5.2804,4.9009,4.1649,4.2349,0.0,3.7929,4.4469,5.0044,5.0443,5.5789,5.9536,5.9493,5.9525,5.9546,5.9546,5.9546,5.9546,5.9546,5.9096,5.8617,5.8048,5.5957,5.3395,5.0377,0.0,0.0,0.0,0.0,0.0,0.0,0.0,0.0,0.0,0.0,0.0,0.0,0.0,0.0,0.0,0.0,0.0,0.0,0.0,0.0,0.0,0.0,0.0,0.0,0.0,0.0,0.0,4.8027,4.8488,4.9313,4.8757,4.7833,0.0,0.0,0.0,0.0,0.0,0.0,0.0,0.0,0.0,4.4694,4.5506,4.5877,4.5877,4.7755,4.9038,4.9783,5.0902,5.2136,5.3416,5.5048,5.6029,5.6563,5.6854,5.6246,5.4888,5.2946,5.2119,5.181,0.0,0.0,0.0,0.0,4.7062,4.7265,4.8292,4.9192,4.9595,4.7933,0.0,0.0,0.0,0.0,0.0,0.0,0.0,4.7296,4.8893,5.0924,5.3266,5.6003,5.6735,5.7569,6.0211,5.5272,4.9993,4.8744,4.6471,4.2948,3.7128,3.7595,0.0,0.0,0.0,4.6898,4.7589,5.4535,5.9351,5.9334,5.9359,5.9417,5.9417,5.9268,5.9129,5.9129,5.8287,5.663,5.4055,5.1913,4.8583,0.0,0.0,0.0,0.0,0.0,0.0,0.0,0.0,0.0,0.0,0.0,0.0,0.0,0.0,0.0,0.0,0.0,0.0,0.0,0.0,0.0,0.0,0.0,0.0,0.0,0.0,0.0,0.0,0.0,4.7447,4.9458,0.0,0.0,0.0,0.0,0.0,0.0,0.0,0.0,0.0,0.0,0.0,0.0,0.0,4.4649,4.4649,4.6615,4.7648,4.7872,5.1125,5.29,5.3264,5.4638,5.5266,5.5313,5.4518,0.0,5.0224,4.8909,0.0,0.0,0.0,0.0,0.0,0.0,0.0,0.0,0.0,0.0,0.0,0.0,0.0,0.0,0.0,0.0,0.0,0.0,0.0,0.0,0.0,0.0,5.2793,5.4158,5.3761,5.3811,5.6536,4.7508,3.9706,4.2534,4.0549,3.7592,0.0,0.0,0.0,0.0,0.0,0.0,4.4587,5.3189,5.91,5.8991,5.9155,5.9176,5.9046,5.8745,5.8448,5.8275,5.6267,5.3148,4.8855,4.7344,0.0,0.0,0.0,0.0,0.0,0.0,0.0,0.0,0.0,0.0,0.0,0.0,0.0,0.0,0.0,0.0,0.0,0.0,0.0,0.0,0.0,0.0,0.0,0.0,0.0,0.0,0.0,0.0,0.0,0.0,0.0,0.0,0.0,0.0,0.0,0.0,0.0,0.0,0.0,0.0,0.0,0.0,0.0,0.0,0.0,0.0,0.0,0.0,0.0,0.0,4.5779,4.6744,4.876,4.9333,4.966,4.9747,4.9713,4.9424,4.882,4.7753,0.0,0.0,0.0,0.0,0.0,0.0,0.0,0.0,0.0,0.0,0.0,0.0,0.0,0.0,0.0,0.0,0.0,0.0,0.0,0.0,0.0,0.0,4.213,4.241,4.4261,4.5686,4.4899,0.0,0.0,0.0,0.0,0.0,0.0,0.0,0.0,0.0,0.0,0.0,4.0779,5.1223,5.8442,5.8462,5.8845,5.8746,5.7775,5.7614,5.7177,5.6219,5.0431,4.644,0.0,0.0,0.0,0.0,0.0,0.0,0.0,0.0,0.0,0.0,0.0,0.0,0.0,0.0,0.0,0.0,0.0,0.0,0.0,0.0,0.0,0.0,0.0,0.0,0.0,0.0,0.0,0.0,0.0,0.0,0.0,0.0,0.0,0.0,0.0,0.0,0.0,0.0,0.0,0.0,0.0,0.0,0.0,0.0,0.0,0.0,0.0,0.0,0.0,0.0,0.0,0.0,0.0,0.0,0.0,0.0,0.0,0.0,4.6087,4.507,0.0,0.0,0.0,0.0,0.0,0.0,0.0,0.0,0.0,0.0,0.0,0.0,0.0,0.0,0.0,0.0,0.0,0.0,0.0,0.0,0.0,0.0,0.0,0.0,0.0,0.0,0.0,0.0,0.0,0.0,0.0,0.0,0.0,0.0,0.0,0.0,0.0,0.0,0.0,0.0,3.9847,5.0219,5.7292,5.6933,5.7425,5.7425,5.6524,5.5706,5.4009,5.1112,4.6392,0.0,0.0,0.0,0.0,0.0,0.0,0.0,0.0,0.0,0.0,0.0,0.0,0.0,0.0,0.0,0.0,0.0,0.0,0.0,0.0,0.0,0.0,0.0,0.0,0.0,0.0,0.0,0.0,0.0,0.0,0.0,0.0,0.0,0.0,0.0,0.0,0.0,0.0,0.0,0.0,0.0,0.0,0.0,0.0,0.0,0.0,0.0,0.0,0.0,0.0,0.0,0.0,0.0,0.0,0.0,0.0,0.0,0.0,0.0,4.3848,4.2042,0.0,0.0,0.0,0.0,0.0,0.0,0.0,0.0,0.0,0.0,0.0,0.0,0.0,0.0,0.0,0.0,0.0,0.0,0.0,0.0,0.0,0.0,0.0,0.0,0.0,0.0,0.0,0.0,0.0,0.0,0.0,0.0,0.0,0.0,0.0,0.0,0.0,0.0,0.0,0.0,3.9709,4.9444,5.5915,5.5161,5.5643,5.565,5.4645,5.3445,5.0646,4.582,4.203,0.0,0.0,0.0,0.0,0.0,0.0,0.0,0.0,0.0,0.0,0.0,0.0,0.0,0.0,0.0,0.0,0.0,0.0,0.0,0.0,0.0,0.0,0.0,0.0,0.0,0.0,0.0,0.0,0.0,0.0,0.0,0.0,0.0,0.0,0.0,0.0,0.0,0.0,0.0,0.0,0.0,0.0,0.0,0.0,0.0,0.0,0.0,0.0,0.0,0.0,0.0,0.0,0.0,0.0,0.0,0.0,0.0,0.0,0.0,0.0,0.0,0.0,0.0,0.0,0.0,0.0,0.0,0.0,0.0,0.0,0.0,0.0,0.0,0.0,0.0,0.0,0.0,0.0,0.0,0.0,0.0,0.0,0.0,0.0,0.0,0.0,0.0,0.0,0.0,0.0,0.0,0.0,0.0,0.0,0.0,0.0,0.0,0.0,0.0,0.0,0.0,3.9153,4.8509,5.4584,5.3601,5.3959,5.3464,5.1326,5.1049,4.8296,4.2062,0.0,0.0,0.0,0.0,0.0,0.0,0.0,0.0,0.0,0.0,0.0,0.0,0.0,0.0,0.0,0.0,0.0,0.0,0.0,0.0,0.0,0.0,0.0,0.0,0.0,0.0,0.0,0.0,0.0,0.0,0.0,0.0,0.0,0.0,0.0,0.0,0.0,0.0,0.0,0.0,0.0,0.0,0.0,0.0,0.0,0.0,0.0,0.0,0.0,0.0,0.0,0.0,0.0,0.0,0.0,0.0,0.0,0.0,0.0,0.0,0.0,0.0,0.0,0.0,0.0,0.0,0.0,0.0,0.0,0.0,0.0,0.0,0.0,0.0,0.0,0.0,0.0,0.0,0.0,0.0,0.0,0.0,0.0,0.0,0.0,0.0,0.0,0.0,0.0,0.0,0.0,0.0,0.0,0.0,0.0,0.0,0.0,0.0,0.0,0.0,0.0,0.0,3.7179,4.6375,5.2327,5.0834,5.0573,5.0017,4.8601,4.7319,4.332,3.5697,0.0,0.0,0.0,0.0,0.0,0.0,0.0,0.0,0.0,0.0,0.0,0.0,0.0,0.0,0.0,0.0,0.0,0.0,0.0,0.0,0.0,0.0,0.0,0.0,0.0,0.0,0.0,0.0,0.0,0.0,0.0,0.0,0.0,0.0,0.0,0.0,0.0,0.0,0.0,0.0,0.0,0.0,0.0,0.0,0.0,0.0,0.0,0.0,0.0,0.0,0.0,0.0,0.0,0.0,0.0,0.0,0.0,0.0,0.0,0.0,0.0,0.0,0.0,0.0,0.0,0.0,0.0,0.0,0.0,0.0,0.0,0.0,0.0,0.0,0.0,0.0,0.0,0.0,0.0,0.0,0.0,0.0,0.0,0.0,0.0,0.0,0.0,0.0,0.0,0.0,0.0,0.0,0.0,0.0,0.0,0.0,0.0,0.0,0.0,0.0,0.0,0.0,3.5951,4.432,4.9657,4.8176,4.7348,4.6382,4.5117,4.3551,3.8904,3.0071,0.0,0.0,0.0,0.0,0.0,0.0,0.0,0.0,0.0,0.0,0.0,0.0,0.0,0.0,0.0,0.0,0.0,0.0,0.0,0.0,0.0,0.0,0.0,0.0,0.0,0.0,0.0,0.0,0.0,0.0,0.0,0.0,0.0,0.0,0.0,0.0,0.0,0.0,0.0,0.0,0.0,0.0,0.0,0.0,0.0,0.0,0.0,0.0,0.0,0.0,0.0,0.0,0.0,0.0,0.0,0.0,0.0,0.0,0.0,0.0,0.0,0.0,0.0,0.0,0.0,0.0,0.0,0.0,0.0,0.0,0.0,0.0,0.0,0.0,0.0,0.0,0.0,0.0,0.0,0.0,0.0,0.0,0.0,0.0,0.0,0.0,0.0,0.0,0.0,0.0,0.0,0.0,0.0,0.0,0.0,0.0,0.0,0.0,0.0,0.0,0.0,0.0,3.5868,4.246,4.6711,4.5828,4.4586,4.2783,4.0324,4.0064,3.5901,0.0,0.0,0.0,0.0,0.0,0.0,0.0,0.0,0.0,0.0,0.0,0.0,0.0,0.0,0.0,0.0,0.0,0.0,0.0,0.0,0.0,0.0,0.0,0.0,0.0,0.0,0.0,0.0,0.0,0.0,0.0,0.0,0.0,0.0,0.0,0.0,0.0,0.0,0.0,0.0,0.0,0.0,0.0,0.0,0.0,0.0,0.0,0.0,0.0,0.0,0.0,0.0,0.0,0.0,0.0,0.0,0.0,0.0,0.0,0.0,0.0,0.0,0.0,0.0,0.0,0.0,0.0,0.0,0.0,0.0,0.0,0.0,0.0,0.0,0.0,0.0,0.0,0.0,0.0,0.0,0.0,0.0,0.0,0.0,0.0,0.0,0.0,0.0,0.0,0.0,0.0,0.0,0.0,0.0,0.0,0.0,0.0,0.0,0.0,0.0,0.0,0.0,0.0,3.4226,3.984,4.3589,4.3166,4.1248,3.932,3.7497,3.658,3.2641,2.4606,0.0,0.0,0.0,0.0,0.0,0.0,0.0,0.0,0.0,0.0,0.0,0.0,0.0,0.0,0.0,0.0,0.0,0.0,0.0,0.0,0.0,0.0,0.0,0.0,0.0,0.0,0.0,0.0,0.0,0.0,0.0,0.0,0.0,0.0,0.0,0.0,0.0,0.0,0.0,0.0,0.0,0.0,0.0,0.0,0.0,0.0,0.0,0.0,0.0,0.0,0.0,0.0,0.0,0.0,0.0,0.0,0.0,0.0,0.0,0.0,0.0,0.0,0.0,0.0,0.0,0.0,0.0,0.0,0.0,0.0,0.0,0.0,0.0,0.0,0.0,0.0,0.0,0.0,0.0,0.0,0.0,0.0,0.0,0.0,0.0,0.0,0.0,0.0,0.0,0.0,0.0,0.0,0.0,0.0,0.0,0.0,0.0,0.0,0.0,0.0,0.0,0.0,0.0,3.6767,3.9747,4.0529,3.834,3.616,3.4758,3.3651,2.9938,2.2751,0.0,0.0,0.0,0.0,0.0,0.0,0.0,0.0,0.0,0.0,0.0,0.0,0.0,0.0,0.0,0.0,0.0,0.0,0.0,0.0,0.0,0.0,0.0,0.0,0.0,0.0,0.0,0.0,0.0,0.0,0.0,0.0,0.0,0.0,0.0,0.0,0.0,0.0,0.0,0.0,0.0,0.0,0.0,0.0,0.0,0.0,0.0,0.0,0.0,0.0,0.0,0.0,0.0,0.0,0.0,0.0,0.0,0.0,0.0,0.0,0.0,0.0,0.0,0.0,0.0,0.0,0.0,0.0,0.0,0.0,0.0,0.0,0.0,0.0,0.0,0.0,0.0,0.0,0.0,0.0,0.0,0.0,0.0,0.0,0.0,0.0,0.0,0.0,0.0,0.0,0.0,0.0,0.0,0.0,0.0,0.0,0.0,0.0,0.0,0.0,0.0,0.0,0.0,3.3642,3.5784,3.7872,3.5664,3.3503,3.1957,3.1164,2.773,2.0528,1.9362,0.0,0.0,0.0,0.0,0.0,0.0,0.0,0.0,0.0,0.0,0.0,0.0,0.0,0.0,0.0,0.0,0.0,0.0,0.0,0.0,0.0,0.0,0.0,0.0,0.0,0.0,0.0,0.0,0.0,0.0,0.0,0.0,0.0,0.0,0.0,0.0,0.0,0.0,0.0,0.0,0.0,0.0,0.0,0.0,0.0,0.0,0.0,0.0,0.0,0.0,0.0,0.0,0.0,0.0,0.0,0.0,0.0,0.0,0.0,0.0,0.0,0.0,0.0,0.0,0.0,0.0,0.0,0.0,0.0,0.0,0.0,0.0,0.0,0.0,0.0,0.0,0.0,0.0,0.0,0.0,0.0,0.0,0.0,0.0,0.0,0.0,0.0,0.0,0.0,0.0,0.0,0.0,0.0,0.0,0.0,0.0,0.0,0.0,0.0,0.0,0.0,0.0,3.3751,3.5295,3.6542,3.4189,3.1774,2.9719,2.9359,2.6413,1.96,1.899,0.0,0.0,0.0,0.0,0.0,0.0,0.0,0.0,0.0,0.0,0.0,0.0,0.0,0.0,0.0,0.0,0.0,0.0,0.0,0.0,0.0,0.0,0.0,0.0,0.0,0.0,0.0,0.0,0.0,0.0,0.0,0.0,0.0,0.0,0.0,0.0,0.0,0.0,0.0,0.0,0.0,0.0,0.0,0.0,0.0,0.0,0.0,0.0,0.0,0.0,0.0,0.0,0.0,0.0,0.0,0.0,0.0,0.0,0.0,0.0,0.0,0.0,0.0,0.0,0.0,0.0,0.0,0.0,0.0,0.0,0.0,0.0,0.0,0.0,0.0,0.0,0.0,0.0,0.0,0.0,0.0,0.0,0.0,0.0,0.0,0.0,0.0,0.0,0.0,0.0,0.0,0.0,0.0,0.0,0.0,0.0,0.0,0.0,0.0,0.0,0.0,0.0,2.9697,3.2081,3.3806,3.2224,3.0328,2.8372,2.817,2.5611,1.9651,1.8908,0.0,0.0,0.0,0.0,0.0,0.0,0.0,0.0,0.0,0.0,0.0,0.0,0.0,0.0,0.0,0.0,0.0,0.0,0.0,0.0,0.0,0.0,0.0,0.0,0.0,0.0,0.0,0.0,0.0,0.0,0.0,0.0,0.0,0.0,0.0,0.0,0.0,0.0,0.0,0.0,0.0,0.0,0.0,0.0,0.0,0.0,0.0,0.0,0.0,0.0,0.0,0.0,0.0,0.0,0.0,0.0,0.0,0.0,0.0,0.0,0.0,0.0,0.0,0.0,0.0,0.0,0.0,0.0,0.0,0.0,0.0,0.0,0.0,0.0,0.0,0.0,0.0,0.0,0.0,0.0,0.0,0.0,0.0,0.0,0.0,0.0,0.0,0.0,0.0,0.0,0.0,0.0,0.0,0.0,0.0,0.0,0.0,0.0,0.0,0.0,0.0,0.0,0.0,2.8198,3.0739,3.0107,2.8949,2.7326,2.7175,2.5051,1.9936,0.0,0.0,0.0,0.0,0.0,0.0,0.0,0.0,0.0,0.0,0.0,0.0,0.0,0.0,0.0,0.0,0.0,0.0,0.0,0.0,0.0,0.0,0.0,0.0,0.0,0.0,0.0,0.0,0.0,0.0,0.0,0.0,0.0,0.0,0.0,0.0,0.0,0.0,0.0,0.0,0.0,0.0,0.0,0.0,0.0,0.0,0.0,0.0,0.0,0.0,0.0,0.0,0.0,0.0,0.0,0.0,0.0,0.0,0.0,0.0,0.0,0.0,0.0,0.0,0.0,0.0,0.0,0.0,0.0,0.0,0.0,0.0,0.0,0.0,0.0,0.0,0.0,0.0,0.0,0.0,0.0,0.0,0.0,0.0,0.0,0.0,0.0,0.0,0.0,0.0,0.0,0.0,0.0,0.0,0.0,0.0,0.0,0.0,0.0,0.0,0.0,0.0,0.0,0.0,2.6955,2.8676,2.8263,2.7468,2.6519,2.6443,2.4222,1.9008,0.0,0.0,0.0,0.0,0.0,0.0,0.0,0.0,0.0,0.0,0.0,0.0,0.0,0.0]}]]]